<?xml version="1.0" encoding="UTF-8" standalone="no" ?>
<gpx xmlns="http://www.topografix.com/GPX/1/1" xmlns:xsi="http://www.w3.org/2001/XMLSchema-instance" xsi:schemaLocation="http://www.topografix.com/GPX/1/1 http://www.topografix.com/GPX/1/1/gpx.xsd" version="1.1" creator="VisuGPX - https://www.visugpx.com">
  <metadata>
    <name>160525ROBBenjamins1000</name>
    <desc><![CDATA[tres bonne sortie]]></desc>
  </metadata>
  <trk>
    <name><![CDATA[160525ROBBenjamins1000]]></name>
    <trkseg>
      <trkpt lat="43.41579" lon="6.07051">
        <ele>211</ele>
        <time>2016-05-25T12:02:57Z</time>
      </trkpt>
      <trkpt lat="43.41579" lon="6.07053">
        <ele>211</ele>
        <time>2016-05-25T12:02:58Z</time>
      </trkpt>
      <trkpt lat="43.41581" lon="6.07074">
        <ele>211.19999694824</ele>
        <time>2016-05-25T12:03:05Z</time>
      </trkpt>
      <trkpt lat="43.41582" lon="6.07098">
        <ele>211.19999694824</ele>
        <time>2016-05-25T12:03:11Z</time>
      </trkpt>
      <trkpt lat="43.41578" lon="6.07106">
        <ele>211</ele>
        <time>2016-05-25T12:03:14Z</time>
      </trkpt>
      <trkpt lat="43.41575" lon="6.07108">
        <ele>210.80000305176</ele>
        <time>2016-05-25T12:03:15Z</time>
      </trkpt>
      <trkpt lat="43.41561" lon="6.07115">
        <ele>210.60000610352</ele>
        <time>2016-05-25T12:03:20Z</time>
      </trkpt>
      <trkpt lat="43.41558" lon="6.07116">
        <ele>210.60000610352</ele>
        <time>2016-05-25T12:03:21Z</time>
      </trkpt>
      <trkpt lat="43.41549" lon="6.07112">
        <ele>210.60000610352</ele>
        <time>2016-05-25T12:03:24Z</time>
      </trkpt>
      <trkpt lat="43.41548" lon="6.07108">
        <ele>210.60000610352</ele>
        <time>2016-05-25T12:03:25Z</time>
      </trkpt>
      <trkpt lat="43.41546" lon="6.07087">
        <ele>210.39999389648</ele>
        <time>2016-05-25T12:03:30Z</time>
      </trkpt>
      <trkpt lat="43.41541" lon="6.07077">
        <ele>210.60000610352</ele>
        <time>2016-05-25T12:03:33Z</time>
      </trkpt>
      <trkpt lat="43.41537" lon="6.07076">
        <ele>210.39999389648</ele>
        <time>2016-05-25T12:03:34Z</time>
      </trkpt>
      <trkpt lat="43.41525" lon="6.07078">
        <ele>210</ele>
        <time>2016-05-25T12:03:37Z</time>
      </trkpt>
      <trkpt lat="43.41516" lon="6.07079">
        <ele>209.60000610352</ele>
        <time>2016-05-25T12:03:39Z</time>
      </trkpt>
      <trkpt lat="43.41498" lon="6.07081">
        <ele>209</ele>
        <time>2016-05-25T12:03:43Z</time>
      </trkpt>
      <trkpt lat="43.4149" lon="6.07078">
        <ele>209</ele>
        <time>2016-05-25T12:03:45Z</time>
      </trkpt>
      <trkpt lat="43.41476" lon="6.07073">
        <ele>208.80000305176</ele>
        <time>2016-05-25T12:03:49Z</time>
      </trkpt>
      <trkpt lat="43.41471" lon="6.07069">
        <ele>208.80000305176</ele>
        <time>2016-05-25T12:03:53Z</time>
      </trkpt>
      <trkpt lat="43.4147" lon="6.0707">
        <ele>208.39999389648</ele>
        <time>2016-05-25T12:04:01Z</time>
      </trkpt>
      <trkpt lat="43.4147" lon="6.0707">
        <ele>208.39999389648</ele>
        <time>2016-05-25T12:04:21Z</time>
      </trkpt>
      <trkpt lat="43.4147" lon="6.0707">
        <ele>208.19999694824</ele>
        <time>2016-05-25T12:04:22Z</time>
      </trkpt>
      <trkpt lat="43.41469" lon="6.07068">
        <ele>208</ele>
        <time>2016-05-25T12:04:30Z</time>
      </trkpt>
      <trkpt lat="43.41469" lon="6.07066">
        <ele>208</ele>
        <time>2016-05-25T12:04:31Z</time>
      </trkpt>
      <trkpt lat="43.41469" lon="6.07064">
        <ele>208</ele>
        <time>2016-05-25T12:04:32Z</time>
      </trkpt>
      <trkpt lat="43.41473" lon="6.07055">
        <ele>207.80000305176</ele>
        <time>2016-05-25T12:04:35Z</time>
      </trkpt>
      <trkpt lat="43.41478" lon="6.07043">
        <ele>208</ele>
        <time>2016-05-25T12:04:38Z</time>
      </trkpt>
      <trkpt lat="43.4148" lon="6.07038">
        <ele>208.19999694824</ele>
        <time>2016-05-25T12:04:39Z</time>
      </trkpt>
      <trkpt lat="43.41483" lon="6.07034">
        <ele>208.19999694824</ele>
        <time>2016-05-25T12:04:40Z</time>
      </trkpt>
      <trkpt lat="43.41485" lon="6.07029">
        <ele>208.19999694824</ele>
        <time>2016-05-25T12:04:41Z</time>
      </trkpt>
      <trkpt lat="43.41487" lon="6.07024">
        <ele>208.19999694824</ele>
        <time>2016-05-25T12:04:42Z</time>
      </trkpt>
      <trkpt lat="43.41493" lon="6.07008">
        <ele>208.60000610352</ele>
        <time>2016-05-25T12:04:45Z</time>
      </trkpt>
      <trkpt lat="43.41495" lon="6.07003">
        <ele>208.60000610352</ele>
        <time>2016-05-25T12:04:46Z</time>
      </trkpt>
      <trkpt lat="43.41495" lon="6.06985">
        <ele>209</ele>
        <time>2016-05-25T12:04:49Z</time>
      </trkpt>
      <trkpt lat="43.41493" lon="6.06979">
        <ele>209</ele>
        <time>2016-05-25T12:04:50Z</time>
      </trkpt>
      <trkpt lat="43.41486" lon="6.06964">
        <ele>209.39999389648</ele>
        <time>2016-05-25T12:04:53Z</time>
      </trkpt>
      <trkpt lat="43.41484" lon="6.06959">
        <ele>209.60000610352</ele>
        <time>2016-05-25T12:04:54Z</time>
      </trkpt>
      <trkpt lat="43.41472" lon="6.06937">
        <ele>210</ele>
        <time>2016-05-25T12:04:59Z</time>
      </trkpt>
      <trkpt lat="43.41469" lon="6.06929">
        <ele>210.19999694824</ele>
        <time>2016-05-25T12:05:01Z</time>
      </trkpt>
      <trkpt lat="43.4147" lon="6.06925">
        <ele>210.39999389648</ele>
        <time>2016-05-25T12:05:02Z</time>
      </trkpt>
      <trkpt lat="43.41476" lon="6.06905">
        <ele>210.60000610352</ele>
        <time>2016-05-25T12:05:09Z</time>
      </trkpt>
      <trkpt lat="43.41476" lon="6.06904">
        <ele>210.60000610352</ele>
        <time>2016-05-25T12:05:10Z</time>
      </trkpt>
      <trkpt lat="43.41476" lon="6.06901">
        <ele>210.60000610352</ele>
        <time>2016-05-25T12:05:14Z</time>
      </trkpt>
      <trkpt lat="43.41475" lon="6.06896">
        <ele>210.60000610352</ele>
        <time>2016-05-25T12:05:20Z</time>
      </trkpt>
      <trkpt lat="43.41476" lon="6.06881">
        <ele>210.60000610352</ele>
        <time>2016-05-25T12:05:25Z</time>
      </trkpt>
      <trkpt lat="43.41475" lon="6.0686">
        <ele>210.60000610352</ele>
        <time>2016-05-25T12:05:30Z</time>
      </trkpt>
      <trkpt lat="43.41476" lon="6.06851">
        <ele>210.60000610352</ele>
        <time>2016-05-25T12:05:32Z</time>
      </trkpt>
      <trkpt lat="43.41479" lon="6.06831">
        <ele>210.39999389648</ele>
        <time>2016-05-25T12:05:36Z</time>
      </trkpt>
      <trkpt lat="43.41492" lon="6.06793">
        <ele>210.19999694824</ele>
        <time>2016-05-25T12:05:44Z</time>
      </trkpt>
      <trkpt lat="43.41499" lon="6.06743">
        <ele>211.19999694824</ele>
        <time>2016-05-25T12:05:54Z</time>
      </trkpt>
      <trkpt lat="43.415" lon="6.06726">
        <ele>211.60000610352</ele>
        <time>2016-05-25T12:05:57Z</time>
      </trkpt>
      <trkpt lat="43.415" lon="6.06721">
        <ele>211.80000305176</ele>
        <time>2016-05-25T12:05:58Z</time>
      </trkpt>
      <trkpt lat="43.41501" lon="6.0671">
        <ele>212.39999389648</ele>
        <time>2016-05-25T12:06:00Z</time>
      </trkpt>
      <trkpt lat="43.41501" lon="6.06698">
        <ele>212.60000610352</ele>
        <time>2016-05-25T12:06:02Z</time>
      </trkpt>
      <trkpt lat="43.41502" lon="6.06687">
        <ele>212.60000610352</ele>
        <time>2016-05-25T12:06:04Z</time>
      </trkpt>
      <trkpt lat="43.41504" lon="6.06664">
        <ele>212.80000305176</ele>
        <time>2016-05-25T12:06:08Z</time>
      </trkpt>
      <trkpt lat="43.41508" lon="6.06641">
        <ele>213.19999694824</ele>
        <time>2016-05-25T12:06:12Z</time>
      </trkpt>
      <trkpt lat="43.4151" lon="6.06635">
        <ele>213.19999694824</ele>
        <time>2016-05-25T12:06:13Z</time>
      </trkpt>
      <trkpt lat="43.41512" lon="6.06619">
        <ele>213.39999389648</ele>
        <time>2016-05-25T12:06:16Z</time>
      </trkpt>
      <trkpt lat="43.41514" lon="6.06608">
        <ele>213.60000610352</ele>
        <time>2016-05-25T12:06:18Z</time>
      </trkpt>
      <trkpt lat="43.41515" lon="6.06597">
        <ele>213.60000610352</ele>
        <time>2016-05-25T12:06:20Z</time>
      </trkpt>
      <trkpt lat="43.41519" lon="6.06575">
        <ele>213.80000305176</ele>
        <time>2016-05-25T12:06:24Z</time>
      </trkpt>
      <trkpt lat="43.4152" lon="6.06569">
        <ele>214</ele>
        <time>2016-05-25T12:06:25Z</time>
      </trkpt>
      <trkpt lat="43.41528" lon="6.06522">
        <ele>214.19999694824</ele>
        <time>2016-05-25T12:06:33Z</time>
      </trkpt>
      <trkpt lat="43.4153" lon="6.06517">
        <ele>214.39999389648</ele>
        <time>2016-05-25T12:06:34Z</time>
      </trkpt>
      <trkpt lat="43.4154" lon="6.06497">
        <ele>214.39999389648</ele>
        <time>2016-05-25T12:06:39Z</time>
      </trkpt>
      <trkpt lat="43.41548" lon="6.06483">
        <ele>215</ele>
        <time>2016-05-25T12:06:45Z</time>
      </trkpt>
      <trkpt lat="43.4155" lon="6.06477">
        <ele>215.19999694824</ele>
        <time>2016-05-25T12:06:48Z</time>
      </trkpt>
      <trkpt lat="43.41549" lon="6.0647">
        <ele>215.19999694824</ele>
        <time>2016-05-25T12:06:50Z</time>
      </trkpt>
      <trkpt lat="43.41546" lon="6.06442">
        <ele>215.19999694824</ele>
        <time>2016-05-25T12:06:57Z</time>
      </trkpt>
      <trkpt lat="43.4155" lon="6.06417">
        <ele>216.19999694824</ele>
        <time>2016-05-25T12:07:04Z</time>
      </trkpt>
      <trkpt lat="43.41553" lon="6.06402">
        <ele>217.19999694824</ele>
        <time>2016-05-25T12:07:09Z</time>
      </trkpt>
      <trkpt lat="43.41554" lon="6.06396">
        <ele>217.60000610352</ele>
        <time>2016-05-25T12:07:11Z</time>
      </trkpt>
      <trkpt lat="43.41556" lon="6.0639">
        <ele>218.19999694824</ele>
        <time>2016-05-25T12:07:13Z</time>
      </trkpt>
      <trkpt lat="43.41559" lon="6.06376">
        <ele>219</ele>
        <time>2016-05-25T12:07:18Z</time>
      </trkpt>
      <trkpt lat="43.4156" lon="6.06366">
        <ele>219.19999694824</ele>
        <time>2016-05-25T12:07:21Z</time>
      </trkpt>
      <trkpt lat="43.41561" lon="6.06363">
        <ele>219.19999694824</ele>
        <time>2016-05-25T12:07:22Z</time>
      </trkpt>
      <trkpt lat="43.41563" lon="6.06355">
        <ele>219.39999389648</ele>
        <time>2016-05-25T12:07:24Z</time>
      </trkpt>
      <trkpt lat="43.41565" lon="6.06352">
        <ele>219.80000305176</ele>
        <time>2016-05-25T12:07:25Z</time>
      </trkpt>
      <trkpt lat="43.41573" lon="6.06338">
        <ele>220.60000610352</ele>
        <time>2016-05-25T12:07:30Z</time>
      </trkpt>
      <trkpt lat="43.41581" lon="6.06327">
        <ele>221.39999389648</ele>
        <time>2016-05-25T12:07:34Z</time>
      </trkpt>
      <trkpt lat="43.41582" lon="6.06324">
        <ele>221.60000610352</ele>
        <time>2016-05-25T12:07:35Z</time>
      </trkpt>
      <trkpt lat="43.41589" lon="6.06303">
        <ele>222.39999389648</ele>
        <time>2016-05-25T12:07:41Z</time>
      </trkpt>
      <trkpt lat="43.41589" lon="6.06299">
        <ele>222.60000610352</ele>
        <time>2016-05-25T12:07:42Z</time>
      </trkpt>
      <trkpt lat="43.41587" lon="6.06281">
        <ele>223</ele>
        <time>2016-05-25T12:07:47Z</time>
      </trkpt>
      <trkpt lat="43.41591" lon="6.06267">
        <ele>223.39999389648</ele>
        <time>2016-05-25T12:07:52Z</time>
      </trkpt>
      <trkpt lat="43.41595" lon="6.06264">
        <ele>223.80000305176</ele>
        <time>2016-05-25T12:07:54Z</time>
      </trkpt>
      <trkpt lat="43.416" lon="6.0626">
        <ele>224.19999694824</ele>
        <time>2016-05-25T12:07:58Z</time>
      </trkpt>
      <trkpt lat="43.41602" lon="6.06259">
        <ele>224.19999694824</ele>
        <time>2016-05-25T12:07:59Z</time>
      </trkpt>
      <trkpt lat="43.41604" lon="6.06244">
        <ele>223.80000305176</ele>
        <time>2016-05-25T12:08:04Z</time>
      </trkpt>
      <trkpt lat="43.41608" lon="6.06223">
        <ele>224</ele>
        <time>2016-05-25T12:08:10Z</time>
      </trkpt>
      <trkpt lat="43.41605" lon="6.06203">
        <ele>224.19999694824</ele>
        <time>2016-05-25T12:08:16Z</time>
      </trkpt>
      <trkpt lat="43.41601" lon="6.06185">
        <ele>223.80000305176</ele>
        <time>2016-05-25T12:08:20Z</time>
      </trkpt>
      <trkpt lat="43.41602" lon="6.0618">
        <ele>223.60000610352</ele>
        <time>2016-05-25T12:08:21Z</time>
      </trkpt>
      <trkpt lat="43.41608" lon="6.06164">
        <ele>223.19999694824</ele>
        <time>2016-05-25T12:08:24Z</time>
      </trkpt>
      <trkpt lat="43.41612" lon="6.0616">
        <ele>223.19999694824</ele>
        <time>2016-05-25T12:08:25Z</time>
      </trkpt>
      <trkpt lat="43.41619" lon="6.06151">
        <ele>222.80000305176</ele>
        <time>2016-05-25T12:08:27Z</time>
      </trkpt>
      <trkpt lat="43.41621" lon="6.06146">
        <ele>222.60000610352</ele>
        <time>2016-05-25T12:08:28Z</time>
      </trkpt>
      <trkpt lat="43.41626" lon="6.06139">
        <ele>222.39999389648</ele>
        <time>2016-05-25T12:08:30Z</time>
      </trkpt>
      <trkpt lat="43.41629" lon="6.06133">
        <ele>222.60000610352</ele>
        <time>2016-05-25T12:08:32Z</time>
      </trkpt>
      <trkpt lat="43.41629" lon="6.06125">
        <ele>222.60000610352</ele>
        <time>2016-05-25T12:08:34Z</time>
      </trkpt>
      <trkpt lat="43.41619" lon="6.06101">
        <ele>222.19999694824</ele>
        <time>2016-05-25T12:08:39Z</time>
      </trkpt>
      <trkpt lat="43.41617" lon="6.06081">
        <ele>222.19999694824</ele>
        <time>2016-05-25T12:08:43Z</time>
      </trkpt>
      <trkpt lat="43.41617" lon="6.0607">
        <ele>222.19999694824</ele>
        <time>2016-05-25T12:08:45Z</time>
      </trkpt>
      <trkpt lat="43.41621" lon="6.06039">
        <ele>223.19999694824</ele>
        <time>2016-05-25T12:08:51Z</time>
      </trkpt>
      <trkpt lat="43.41623" lon="6.06023">
        <ele>223.80000305176</ele>
        <time>2016-05-25T12:08:54Z</time>
      </trkpt>
      <trkpt lat="43.41626" lon="6.06001">
        <ele>224</ele>
        <time>2016-05-25T12:08:58Z</time>
      </trkpt>
      <trkpt lat="43.41629" lon="6.05985">
        <ele>224.39999389648</ele>
        <time>2016-05-25T12:09:01Z</time>
      </trkpt>
      <trkpt lat="43.41631" lon="6.05974">
        <ele>225</ele>
        <time>2016-05-25T12:09:03Z</time>
      </trkpt>
      <trkpt lat="43.41636" lon="6.05946">
        <ele>225.60000610352</ele>
        <time>2016-05-25T12:09:08Z</time>
      </trkpt>
      <trkpt lat="43.41638" lon="6.05923">
        <ele>226.19999694824</ele>
        <time>2016-05-25T12:09:12Z</time>
      </trkpt>
      <trkpt lat="43.41644" lon="6.05876">
        <ele>227.19999694824</ele>
        <time>2016-05-25T12:09:20Z</time>
      </trkpt>
      <trkpt lat="43.41644" lon="6.0587">
        <ele>227.19999694824</ele>
        <time>2016-05-25T12:09:21Z</time>
      </trkpt>
      <trkpt lat="43.41646" lon="6.05828">
        <ele>227.60000610352</ele>
        <time>2016-05-25T12:09:28Z</time>
      </trkpt>
      <trkpt lat="43.41648" lon="6.05778">
        <ele>228</ele>
        <time>2016-05-25T12:09:36Z</time>
      </trkpt>
      <trkpt lat="43.41647" lon="6.05757">
        <ele>228.19999694824</ele>
        <time>2016-05-25T12:09:39Z</time>
      </trkpt>
      <trkpt lat="43.41646" lon="6.05712">
        <ele>228.39999389648</ele>
        <time>2016-05-25T12:09:45Z</time>
      </trkpt>
      <trkpt lat="43.4164" lon="6.05642">
        <ele>227.39999389648</ele>
        <time>2016-05-25T12:09:54Z</time>
      </trkpt>
      <trkpt lat="43.41639" lon="6.05633">
        <ele>227</ele>
        <time>2016-05-25T12:09:55Z</time>
      </trkpt>
      <trkpt lat="43.41627" lon="6.05558">
        <ele>226.80000305176</ele>
        <time>2016-05-25T12:10:04Z</time>
      </trkpt>
      <trkpt lat="43.41607" lon="6.05484">
        <ele>226.60000610352</ele>
        <time>2016-05-25T12:10:13Z</time>
      </trkpt>
      <trkpt lat="43.41605" lon="6.05476">
        <ele>226.60000610352</ele>
        <time>2016-05-25T12:10:14Z</time>
      </trkpt>
      <trkpt lat="43.41588" lon="6.05419">
        <ele>226.19999694824</ele>
        <time>2016-05-25T12:10:21Z</time>
      </trkpt>
      <trkpt lat="43.41566" lon="6.05357">
        <ele>226.19999694824</ele>
        <time>2016-05-25T12:10:29Z</time>
      </trkpt>
      <trkpt lat="43.41559" lon="6.05342">
        <ele>226</ele>
        <time>2016-05-25T12:10:31Z</time>
      </trkpt>
      <trkpt lat="43.41556" lon="6.05334">
        <ele>225.80000305176</ele>
        <time>2016-05-25T12:10:32Z</time>
      </trkpt>
      <trkpt lat="43.41551" lon="6.05317">
        <ele>225.60000610352</ele>
        <time>2016-05-25T12:10:34Z</time>
      </trkpt>
      <trkpt lat="43.41542" lon="6.05282">
        <ele>224.80000305176</ele>
        <time>2016-05-25T12:10:38Z</time>
      </trkpt>
      <trkpt lat="43.41529" lon="6.05249">
        <ele>224.19999694824</ele>
        <time>2016-05-25T12:10:42Z</time>
      </trkpt>
      <trkpt lat="43.41518" lon="6.05224">
        <ele>223.80000305176</ele>
        <time>2016-05-25T12:10:45Z</time>
      </trkpt>
      <trkpt lat="43.41502" lon="6.05192">
        <ele>223</ele>
        <time>2016-05-25T12:10:49Z</time>
      </trkpt>
      <trkpt lat="43.41499" lon="6.05184">
        <ele>222.80000305176</ele>
        <time>2016-05-25T12:10:50Z</time>
      </trkpt>
      <trkpt lat="43.41497" lon="6.05176">
        <ele>222.60000610352</ele>
        <time>2016-05-25T12:10:51Z</time>
      </trkpt>
      <trkpt lat="43.41496" lon="6.0517">
        <ele>222.60000610352</ele>
        <time>2016-05-25T12:10:52Z</time>
      </trkpt>
      <trkpt lat="43.41504" lon="6.05158">
        <ele>222.39999389648</ele>
        <time>2016-05-25T12:10:55Z</time>
      </trkpt>
      <trkpt lat="43.4151" lon="6.05156">
        <ele>222.60000610352</ele>
        <time>2016-05-25T12:10:57Z</time>
      </trkpt>
      <trkpt lat="43.41525" lon="6.05154">
        <ele>223.39999389648</ele>
        <time>2016-05-25T12:11:01Z</time>
      </trkpt>
      <trkpt lat="43.41535" lon="6.05153">
        <ele>223.80000305176</ele>
        <time>2016-05-25T12:11:04Z</time>
      </trkpt>
      <trkpt lat="43.41554" lon="6.05154">
        <ele>224.80000305176</ele>
        <time>2016-05-25T12:11:10Z</time>
      </trkpt>
      <trkpt lat="43.41568" lon="6.05157">
        <ele>225.80000305176</ele>
        <time>2016-05-25T12:11:15Z</time>
      </trkpt>
      <trkpt lat="43.4157" lon="6.05158">
        <ele>225.80000305176</ele>
        <time>2016-05-25T12:11:16Z</time>
      </trkpt>
      <trkpt lat="43.41573" lon="6.05158">
        <ele>226.19999694824</ele>
        <time>2016-05-25T12:11:17Z</time>
      </trkpt>
      <trkpt lat="43.41582" lon="6.0516">
        <ele>226.60000610352</ele>
        <time>2016-05-25T12:11:20Z</time>
      </trkpt>
      <trkpt lat="43.41589" lon="6.05161">
        <ele>227</ele>
        <time>2016-05-25T12:11:22Z</time>
      </trkpt>
      <trkpt lat="43.41598" lon="6.05163">
        <ele>227.60000610352</ele>
        <time>2016-05-25T12:11:25Z</time>
      </trkpt>
      <trkpt lat="43.41607" lon="6.05164">
        <ele>228</ele>
        <time>2016-05-25T12:11:28Z</time>
      </trkpt>
      <trkpt lat="43.41622" lon="6.05166">
        <ele>229.19999694824</ele>
        <time>2016-05-25T12:11:33Z</time>
      </trkpt>
      <trkpt lat="43.41631" lon="6.05167">
        <ele>229.80000305176</ele>
        <time>2016-05-25T12:11:36Z</time>
      </trkpt>
      <trkpt lat="43.41638" lon="6.05168">
        <ele>230.39999389648</ele>
        <time>2016-05-25T12:11:39Z</time>
      </trkpt>
      <trkpt lat="43.41647" lon="6.05169">
        <ele>231.19999694824</ele>
        <time>2016-05-25T12:11:43Z</time>
      </trkpt>
      <trkpt lat="43.41652" lon="6.05169">
        <ele>231.39999389648</ele>
        <time>2016-05-25T12:11:45Z</time>
      </trkpt>
      <trkpt lat="43.41665" lon="6.05167">
        <ele>232.39999389648</ele>
        <time>2016-05-25T12:11:51Z</time>
      </trkpt>
      <trkpt lat="43.41676" lon="6.05156">
        <ele>233.19999694824</ele>
        <time>2016-05-25T12:11:58Z</time>
      </trkpt>
      <trkpt lat="43.41683" lon="6.05147">
        <ele>233.60000610352</ele>
        <time>2016-05-25T12:12:02Z</time>
      </trkpt>
      <trkpt lat="43.41691" lon="6.05139">
        <ele>234.19999694824</ele>
        <time>2016-05-25T12:12:06Z</time>
      </trkpt>
      <trkpt lat="43.41699" lon="6.05131">
        <ele>234.60000610352</ele>
        <time>2016-05-25T12:12:10Z</time>
      </trkpt>
      <trkpt lat="43.4171" lon="6.05122">
        <ele>235.19999694824</ele>
        <time>2016-05-25T12:12:15Z</time>
      </trkpt>
      <trkpt lat="43.41719" lon="6.05117">
        <ele>235.60000610352</ele>
        <time>2016-05-25T12:12:19Z</time>
      </trkpt>
      <trkpt lat="43.4173" lon="6.05111">
        <ele>236.60000610352</ele>
        <time>2016-05-25T12:12:24Z</time>
      </trkpt>
      <trkpt lat="43.41735" lon="6.05117">
        <ele>237.39999389648</ele>
        <time>2016-05-25T12:12:28Z</time>
      </trkpt>
      <trkpt lat="43.41735" lon="6.05119">
        <ele>237.60000610352</ele>
        <time>2016-05-25T12:12:29Z</time>
      </trkpt>
      <trkpt lat="43.41735" lon="6.05129">
        <ele>238.19999694824</ele>
        <time>2016-05-25T12:12:32Z</time>
      </trkpt>
      <trkpt lat="43.41735" lon="6.05132">
        <ele>238.39999389648</ele>
        <time>2016-05-25T12:12:33Z</time>
      </trkpt>
      <trkpt lat="43.41735" lon="6.05156">
        <ele>238.80000305176</ele>
        <time>2016-05-25T12:12:39Z</time>
      </trkpt>
      <trkpt lat="43.41736" lon="6.05167">
        <ele>238.60000610352</ele>
        <time>2016-05-25T12:12:42Z</time>
      </trkpt>
      <trkpt lat="43.41744" lon="6.0518">
        <ele>238.60000610352</ele>
        <time>2016-05-25T12:12:47Z</time>
      </trkpt>
      <trkpt lat="43.41759" lon="6.05183">
        <ele>239.39999389648</ele>
        <time>2016-05-25T12:12:53Z</time>
      </trkpt>
      <trkpt lat="43.41767" lon="6.05183">
        <ele>239.80000305176</ele>
        <time>2016-05-25T12:12:56Z</time>
      </trkpt>
      <trkpt lat="43.4178" lon="6.05184">
        <ele>240.39999389648</ele>
        <time>2016-05-25T12:13:01Z</time>
      </trkpt>
      <trkpt lat="43.41787" lon="6.05185">
        <ele>240.80000305176</ele>
        <time>2016-05-25T12:13:04Z</time>
      </trkpt>
      <trkpt lat="43.41797" lon="6.05185">
        <ele>241.19999694824</ele>
        <time>2016-05-25T12:13:08Z</time>
      </trkpt>
      <trkpt lat="43.41799" lon="6.05184">
        <ele>241.39999389648</ele>
        <time>2016-05-25T12:13:09Z</time>
      </trkpt>
      <trkpt lat="43.41806" lon="6.05184">
        <ele>241.60000610352</ele>
        <time>2016-05-25T12:13:12Z</time>
      </trkpt>
      <trkpt lat="43.41809" lon="6.05185">
        <ele>241.80000305176</ele>
        <time>2016-05-25T12:13:13Z</time>
      </trkpt>
      <trkpt lat="43.4183" lon="6.05187">
        <ele>242.60000610352</ele>
        <time>2016-05-25T12:13:21Z</time>
      </trkpt>
      <trkpt lat="43.41835" lon="6.05187">
        <ele>242.80000305176</ele>
        <time>2016-05-25T12:13:23Z</time>
      </trkpt>
      <trkpt lat="43.41852" lon="6.05186">
        <ele>244</ele>
        <time>2016-05-25T12:13:30Z</time>
      </trkpt>
      <trkpt lat="43.41854" lon="6.05185">
        <ele>244.19999694824</ele>
        <time>2016-05-25T12:13:31Z</time>
      </trkpt>
      <trkpt lat="43.41877" lon="6.05179">
        <ele>245</ele>
        <time>2016-05-25T12:13:40Z</time>
      </trkpt>
      <trkpt lat="43.41885" lon="6.05178">
        <ele>246</ele>
        <time>2016-05-25T12:13:45Z</time>
      </trkpt>
      <trkpt lat="43.41887" lon="6.05178">
        <ele>246</ele>
        <time>2016-05-25T12:13:46Z</time>
      </trkpt>
      <trkpt lat="43.4189" lon="6.05177">
        <ele>247.19999694824</ele>
        <time>2016-05-25T12:13:54Z</time>
      </trkpt>
      <trkpt lat="43.41898" lon="6.05174">
        <ele>248</ele>
        <time>2016-05-25T12:14:01Z</time>
      </trkpt>
      <trkpt lat="43.41928" lon="6.05171">
        <ele>248.19999694824</ele>
        <time>2016-05-25T12:14:03Z</time>
      </trkpt>
      <trkpt lat="43.4194" lon="6.05161">
        <ele>248.80000305176</ele>
        <time>2016-05-25T12:14:06Z</time>
      </trkpt>
      <trkpt lat="43.41949" lon="6.05153">
        <ele>249.39999389648</ele>
        <time>2016-05-25T12:14:10Z</time>
      </trkpt>
      <trkpt lat="43.41953" lon="6.0515">
        <ele>249.60000610352</ele>
        <time>2016-05-25T12:14:12Z</time>
      </trkpt>
      <trkpt lat="43.41965" lon="6.05142">
        <ele>250.39999389648</ele>
        <time>2016-05-25T12:14:17Z</time>
      </trkpt>
      <trkpt lat="43.41967" lon="6.05141">
        <ele>250.39999389648</ele>
        <time>2016-05-25T12:14:18Z</time>
      </trkpt>
      <trkpt lat="43.41977" lon="6.05137">
        <ele>251</ele>
        <time>2016-05-25T12:14:22Z</time>
      </trkpt>
      <trkpt lat="43.41983" lon="6.05135">
        <ele>251.39999389648</ele>
        <time>2016-05-25T12:14:24Z</time>
      </trkpt>
      <trkpt lat="43.41991" lon="6.05134">
        <ele>251.80000305176</ele>
        <time>2016-05-25T12:14:27Z</time>
      </trkpt>
      <trkpt lat="43.42002" lon="6.05131">
        <ele>252.60000610352</ele>
        <time>2016-05-25T12:14:31Z</time>
      </trkpt>
      <trkpt lat="43.42007" lon="6.05129">
        <ele>252.80000305176</ele>
        <time>2016-05-25T12:14:33Z</time>
      </trkpt>
      <trkpt lat="43.42027" lon="6.05124">
        <ele>252.80000305176</ele>
        <time>2016-05-25T12:14:39Z</time>
      </trkpt>
      <trkpt lat="43.4205" lon="6.05119">
        <ele>253.60000610352</ele>
        <time>2016-05-25T12:14:47Z</time>
      </trkpt>
      <trkpt lat="43.42068" lon="6.05117">
        <ele>254.60000610352</ele>
        <time>2016-05-25T12:14:54Z</time>
      </trkpt>
      <trkpt lat="43.42084" lon="6.05117">
        <ele>255.19999694824</ele>
        <time>2016-05-25T12:15:00Z</time>
      </trkpt>
      <trkpt lat="43.42092" lon="6.05118">
        <ele>255.60000610352</ele>
        <time>2016-05-25T12:15:03Z</time>
      </trkpt>
      <trkpt lat="43.421" lon="6.05118">
        <ele>256</ele>
        <time>2016-05-25T12:15:06Z</time>
      </trkpt>
      <trkpt lat="43.42116" lon="6.05118">
        <ele>256.79998779297</ele>
        <time>2016-05-25T12:15:12Z</time>
      </trkpt>
      <trkpt lat="43.42118" lon="6.05119">
        <ele>257</ele>
        <time>2016-05-25T12:15:13Z</time>
      </trkpt>
      <trkpt lat="43.4213" lon="6.05127">
        <ele>257.60000610352</ele>
        <time>2016-05-25T12:15:20Z</time>
      </trkpt>
      <trkpt lat="43.42131" lon="6.05128">
        <ele>257.60000610352</ele>
        <time>2016-05-25T12:15:21Z</time>
      </trkpt>
      <trkpt lat="43.42134" lon="6.05132">
        <ele>258.20001220703</ele>
        <time>2016-05-25T12:15:25Z</time>
      </trkpt>
      <trkpt lat="43.42135" lon="6.05133">
        <ele>258.20001220703</ele>
        <time>2016-05-25T12:15:26Z</time>
      </trkpt>
      <trkpt lat="43.42135" lon="6.05133">
        <ele>258.20001220703</ele>
        <time>2016-05-25T12:15:31Z</time>
      </trkpt>
      <trkpt lat="43.42136" lon="6.05133">
        <ele>258.20001220703</ele>
        <time>2016-05-25T12:15:38Z</time>
      </trkpt>
      <trkpt lat="43.42136" lon="6.05133">
        <ele>258.39999389648</ele>
        <time>2016-05-25T12:15:41Z</time>
      </trkpt>
      <trkpt lat="43.42136" lon="6.05133">
        <ele>258.60000610352</ele>
        <time>2016-05-25T12:15:44Z</time>
      </trkpt>
      <trkpt lat="43.42136" lon="6.05133">
        <ele>258.79998779297</ele>
        <time>2016-05-25T12:15:48Z</time>
      </trkpt>
      <trkpt lat="43.42136" lon="6.05133">
        <ele>258.60000610352</ele>
        <time>2016-05-25T12:15:51Z</time>
      </trkpt>
      <trkpt lat="43.42136" lon="6.05133">
        <ele>258.60000610352</ele>
        <time>2016-05-25T12:15:58Z</time>
      </trkpt>
      <trkpt lat="43.42135" lon="6.05135">
        <ele>258.39999389648</ele>
        <time>2016-05-25T12:16:07Z</time>
      </trkpt>
      <trkpt lat="43.42136" lon="6.05136">
        <ele>258.39999389648</ele>
        <time>2016-05-25T12:16:09Z</time>
      </trkpt>
      <trkpt lat="43.42141" lon="6.05147">
        <ele>258.60000610352</ele>
        <time>2016-05-25T12:16:16Z</time>
      </trkpt>
      <trkpt lat="43.42149" lon="6.05157">
        <ele>259</ele>
        <time>2016-05-25T12:16:22Z</time>
      </trkpt>
      <trkpt lat="43.42163" lon="6.05167">
        <ele>259.39999389648</ele>
        <time>2016-05-25T12:16:28Z</time>
      </trkpt>
      <trkpt lat="43.42165" lon="6.05168">
        <ele>259.39999389648</ele>
        <time>2016-05-25T12:16:29Z</time>
      </trkpt>
      <trkpt lat="43.42181" lon="6.05176">
        <ele>260</ele>
        <time>2016-05-25T12:16:35Z</time>
      </trkpt>
      <trkpt lat="43.42189" lon="6.05183">
        <ele>260.60000610352</ele>
        <time>2016-05-25T12:16:39Z</time>
      </trkpt>
      <trkpt lat="43.42191" lon="6.05185">
        <ele>260.79998779297</ele>
        <time>2016-05-25T12:16:40Z</time>
      </trkpt>
      <trkpt lat="43.42205" lon="6.05191">
        <ele>261.20001220703</ele>
        <time>2016-05-25T12:16:45Z</time>
      </trkpt>
      <trkpt lat="43.4221" lon="6.05194">
        <ele>261.39999389648</ele>
        <time>2016-05-25T12:16:47Z</time>
      </trkpt>
      <trkpt lat="43.42214" lon="6.05196">
        <ele>261.79998779297</ele>
        <time>2016-05-25T12:16:49Z</time>
      </trkpt>
      <trkpt lat="43.42223" lon="6.05204">
        <ele>262.39999389648</ele>
        <time>2016-05-25T12:16:53Z</time>
      </trkpt>
      <trkpt lat="43.42234" lon="6.05218">
        <ele>263</ele>
        <time>2016-05-25T12:16:59Z</time>
      </trkpt>
      <trkpt lat="43.42237" lon="6.05218">
        <ele>263.20001220703</ele>
        <time>2016-05-25T12:17:00Z</time>
      </trkpt>
      <trkpt lat="43.42255" lon="6.05218">
        <ele>264.20001220703</ele>
        <time>2016-05-25T12:17:07Z</time>
      </trkpt>
      <trkpt lat="43.42258" lon="6.05218">
        <ele>264.20001220703</ele>
        <time>2016-05-25T12:17:08Z</time>
      </trkpt>
      <trkpt lat="43.42277" lon="6.05219">
        <ele>264.79998779297</ele>
        <time>2016-05-25T12:17:15Z</time>
      </trkpt>
      <trkpt lat="43.42285" lon="6.05222">
        <ele>265.20001220703</ele>
        <time>2016-05-25T12:17:18Z</time>
      </trkpt>
      <trkpt lat="43.42297" lon="6.05226">
        <ele>265.79998779297</ele>
        <time>2016-05-25T12:17:23Z</time>
      </trkpt>
      <trkpt lat="43.42311" lon="6.05228">
        <ele>266</ele>
        <time>2016-05-25T12:17:29Z</time>
      </trkpt>
      <trkpt lat="43.42318" lon="6.05229">
        <ele>266</ele>
        <time>2016-05-25T12:17:32Z</time>
      </trkpt>
      <trkpt lat="43.42327" lon="6.05231">
        <ele>267</ele>
        <time>2016-05-25T12:17:36Z</time>
      </trkpt>
      <trkpt lat="43.42329" lon="6.05232">
        <ele>267.20001220703</ele>
        <time>2016-05-25T12:17:37Z</time>
      </trkpt>
      <trkpt lat="43.42334" lon="6.05234">
        <ele>268</ele>
        <time>2016-05-25T12:17:40Z</time>
      </trkpt>
      <trkpt lat="43.42338" lon="6.05235">
        <ele>268.39999389648</ele>
        <time>2016-05-25T12:17:42Z</time>
      </trkpt>
      <trkpt lat="43.4234" lon="6.05235">
        <ele>268.60000610352</ele>
        <time>2016-05-25T12:17:43Z</time>
      </trkpt>
      <trkpt lat="43.42348" lon="6.05236">
        <ele>269.39999389648</ele>
        <time>2016-05-25T12:17:47Z</time>
      </trkpt>
      <trkpt lat="43.42354" lon="6.05235">
        <ele>269.79998779297</ele>
        <time>2016-05-25T12:17:50Z</time>
      </trkpt>
      <trkpt lat="43.42368" lon="6.05231">
        <ele>270.60000610352</ele>
        <time>2016-05-25T12:17:57Z</time>
      </trkpt>
      <trkpt lat="43.4237" lon="6.0523">
        <ele>270.79998779297</ele>
        <time>2016-05-25T12:17:58Z</time>
      </trkpt>
      <trkpt lat="43.4238" lon="6.05231">
        <ele>271.39999389648</ele>
        <time>2016-05-25T12:18:04Z</time>
      </trkpt>
      <trkpt lat="43.42384" lon="6.05231">
        <ele>271.60000610352</ele>
        <time>2016-05-25T12:18:06Z</time>
      </trkpt>
      <trkpt lat="43.42397" lon="6.05228">
        <ele>272.39999389648</ele>
        <time>2016-05-25T12:18:13Z</time>
      </trkpt>
      <trkpt lat="43.42405" lon="6.05226">
        <ele>272.60000610352</ele>
        <time>2016-05-25T12:18:17Z</time>
      </trkpt>
      <trkpt lat="43.42415" lon="6.05226">
        <ele>273</ele>
        <time>2016-05-25T12:18:22Z</time>
      </trkpt>
      <trkpt lat="43.42426" lon="6.05226">
        <ele>273.39999389648</ele>
        <time>2016-05-25T12:18:28Z</time>
      </trkpt>
      <trkpt lat="43.42428" lon="6.05226">
        <ele>273.20001220703</ele>
        <time>2016-05-25T12:18:29Z</time>
      </trkpt>
      <trkpt lat="43.4244" lon="6.05225">
        <ele>273.20001220703</ele>
        <time>2016-05-25T12:18:35Z</time>
      </trkpt>
      <trkpt lat="43.42447" lon="6.05222">
        <ele>273.79998779297</ele>
        <time>2016-05-25T12:18:38Z</time>
      </trkpt>
      <trkpt lat="43.42451" lon="6.0522">
        <ele>274.20001220703</ele>
        <time>2016-05-25T12:18:40Z</time>
      </trkpt>
      <trkpt lat="43.42454" lon="6.0522">
        <ele>274.79998779297</ele>
        <time>2016-05-25T12:18:42Z</time>
      </trkpt>
      <trkpt lat="43.42458" lon="6.05217">
        <ele>276</ele>
        <time>2016-05-25T12:18:45Z</time>
      </trkpt>
      <trkpt lat="43.42461" lon="6.05217">
        <ele>276.60000610352</ele>
        <time>2016-05-25T12:18:48Z</time>
      </trkpt>
      <trkpt lat="43.42464" lon="6.05216">
        <ele>277.20001220703</ele>
        <time>2016-05-25T12:18:51Z</time>
      </trkpt>
      <trkpt lat="43.42464" lon="6.05216">
        <ele>277.39999389648</ele>
        <time>2016-05-25T12:18:54Z</time>
      </trkpt>
      <trkpt lat="43.42465" lon="6.05216">
        <ele>277.79998779297</ele>
        <time>2016-05-25T12:18:58Z</time>
      </trkpt>
      <trkpt lat="43.42464" lon="6.05216">
        <ele>277.60000610352</ele>
        <time>2016-05-25T12:19:03Z</time>
      </trkpt>
      <trkpt lat="43.42464" lon="6.05216">
        <ele>277.60000610352</ele>
        <time>2016-05-25T12:19:10Z</time>
      </trkpt>
      <trkpt lat="43.42465" lon="6.05216">
        <ele>277.60000610352</ele>
        <time>2016-05-25T12:19:15Z</time>
      </trkpt>
      <trkpt lat="43.42464" lon="6.05216">
        <ele>277.79998779297</ele>
        <time>2016-05-25T12:19:24Z</time>
      </trkpt>
      <trkpt lat="43.42464" lon="6.05216">
        <ele>277.79998779297</ele>
        <time>2016-05-25T12:19:26Z</time>
      </trkpt>
      <trkpt lat="43.42465" lon="6.05216">
        <ele>277.79998779297</ele>
        <time>2016-05-25T12:19:29Z</time>
      </trkpt>
      <trkpt lat="43.42464" lon="6.05216">
        <ele>277.60000610352</ele>
        <time>2016-05-25T12:19:34Z</time>
      </trkpt>
      <trkpt lat="43.42465" lon="6.05216">
        <ele>277.60000610352</ele>
        <time>2016-05-25T12:19:35Z</time>
      </trkpt>
      <trkpt lat="43.42466" lon="6.05216">
        <ele>277.39999389648</ele>
        <time>2016-05-25T12:19:37Z</time>
      </trkpt>
      <trkpt lat="43.42475" lon="6.05218">
        <ele>277.39999389648</ele>
        <time>2016-05-25T12:19:43Z</time>
      </trkpt>
      <trkpt lat="43.42493" lon="6.05225">
        <ele>277.39999389648</ele>
        <time>2016-05-25T12:19:49Z</time>
      </trkpt>
      <trkpt lat="43.42505" lon="6.05228">
        <ele>277.20001220703</ele>
        <time>2016-05-25T12:19:53Z</time>
      </trkpt>
      <trkpt lat="43.42524" lon="6.05229">
        <ele>277.60000610352</ele>
        <time>2016-05-25T12:19:59Z</time>
      </trkpt>
      <trkpt lat="43.42536" lon="6.05228">
        <ele>278.20001220703</ele>
        <time>2016-05-25T12:20:04Z</time>
      </trkpt>
      <trkpt lat="43.42543" lon="6.05227">
        <ele>278.39999389648</ele>
        <time>2016-05-25T12:20:07Z</time>
      </trkpt>
      <trkpt lat="43.42546" lon="6.05226">
        <ele>278.79998779297</ele>
        <time>2016-05-25T12:20:09Z</time>
      </trkpt>
      <trkpt lat="43.4255" lon="6.05224">
        <ele>279.20001220703</ele>
        <time>2016-05-25T12:20:11Z</time>
      </trkpt>
      <trkpt lat="43.42553" lon="6.05223">
        <ele>279.60000610352</ele>
        <time>2016-05-25T12:20:13Z</time>
      </trkpt>
      <trkpt lat="43.42555" lon="6.05222">
        <ele>279.60000610352</ele>
        <time>2016-05-25T12:20:14Z</time>
      </trkpt>
      <trkpt lat="43.42564" lon="6.05224">
        <ele>280.20001220703</ele>
        <time>2016-05-25T12:20:18Z</time>
      </trkpt>
      <trkpt lat="43.4257" lon="6.05225">
        <ele>280.39999389648</ele>
        <time>2016-05-25T12:20:20Z</time>
      </trkpt>
      <trkpt lat="43.42585" lon="6.05236">
        <ele>280.20001220703</ele>
        <time>2016-05-25T12:20:26Z</time>
      </trkpt>
      <trkpt lat="43.42601" lon="6.05251">
        <ele>280.39999389648</ele>
        <time>2016-05-25T12:20:33Z</time>
      </trkpt>
      <trkpt lat="43.4261" lon="6.05262">
        <ele>280.39999389648</ele>
        <time>2016-05-25T12:20:38Z</time>
      </trkpt>
      <trkpt lat="43.42615" lon="6.05266">
        <ele>281.60000610352</ele>
        <time>2016-05-25T12:20:41Z</time>
      </trkpt>
      <trkpt lat="43.42619" lon="6.05268">
        <ele>282</ele>
        <time>2016-05-25T12:20:43Z</time>
      </trkpt>
      <trkpt lat="43.42629" lon="6.05271">
        <ele>282.60000610352</ele>
        <time>2016-05-25T12:20:48Z</time>
      </trkpt>
      <trkpt lat="43.4263" lon="6.05271">
        <ele>282.79998779297</ele>
        <time>2016-05-25T12:20:49Z</time>
      </trkpt>
      <trkpt lat="43.4263" lon="6.05271">
        <ele>283</ele>
        <time>2016-05-25T12:20:55Z</time>
      </trkpt>
      <trkpt lat="43.4263" lon="6.05271">
        <ele>282.79998779297</ele>
        <time>2016-05-25T12:20:56Z</time>
      </trkpt>
      <trkpt lat="43.4263" lon="6.05271">
        <ele>282.79998779297</ele>
        <time>2016-05-25T12:21:04Z</time>
      </trkpt>
      <trkpt lat="43.4263" lon="6.05271">
        <ele>283.20001220703</ele>
        <time>2016-05-25T12:21:07Z</time>
      </trkpt>
      <trkpt lat="43.4263" lon="6.05271">
        <ele>283.20001220703</ele>
        <time>2016-05-25T12:21:10Z</time>
      </trkpt>
      <trkpt lat="43.4263" lon="6.05271">
        <ele>282.79998779297</ele>
        <time>2016-05-25T12:21:13Z</time>
      </trkpt>
      <trkpt lat="43.4263" lon="6.05271">
        <ele>282.60000610352</ele>
        <time>2016-05-25T12:21:16Z</time>
      </trkpt>
      <trkpt lat="43.4263" lon="6.05271">
        <ele>282.60000610352</ele>
        <time>2016-05-25T12:21:22Z</time>
      </trkpt>
      <trkpt lat="43.4263" lon="6.05271">
        <ele>282.60000610352</ele>
        <time>2016-05-25T12:21:30Z</time>
      </trkpt>
      <trkpt lat="43.4263" lon="6.05271">
        <ele>282.60000610352</ele>
        <time>2016-05-25T12:21:37Z</time>
      </trkpt>
      <trkpt lat="43.4263" lon="6.05271">
        <ele>282.60000610352</ele>
        <time>2016-05-25T12:21:40Z</time>
      </trkpt>
      <trkpt lat="43.4263" lon="6.05271">
        <ele>282.60000610352</ele>
        <time>2016-05-25T12:21:50Z</time>
      </trkpt>
      <trkpt lat="43.4263" lon="6.05272">
        <ele>282.79998779297</ele>
        <time>2016-05-25T12:21:56Z</time>
      </trkpt>
      <trkpt lat="43.42631" lon="6.05274">
        <ele>282.79998779297</ele>
        <time>2016-05-25T12:21:57Z</time>
      </trkpt>
      <trkpt lat="43.42632" lon="6.05276">
        <ele>282.79998779297</ele>
        <time>2016-05-25T12:21:58Z</time>
      </trkpt>
      <trkpt lat="43.42636" lon="6.05281">
        <ele>283</ele>
        <time>2016-05-25T12:22:01Z</time>
      </trkpt>
      <trkpt lat="43.42646" lon="6.05292">
        <ele>283.60000610352</ele>
        <time>2016-05-25T12:22:06Z</time>
      </trkpt>
      <trkpt lat="43.42648" lon="6.05296">
        <ele>283.79998779297</ele>
        <time>2016-05-25T12:22:07Z</time>
      </trkpt>
      <trkpt lat="43.42653" lon="6.05304">
        <ele>284.20001220703</ele>
        <time>2016-05-25T12:22:10Z</time>
      </trkpt>
      <trkpt lat="43.42657" lon="6.05311">
        <ele>284.60000610352</ele>
        <time>2016-05-25T12:22:13Z</time>
      </trkpt>
      <trkpt lat="43.42667" lon="6.05324">
        <ele>284.79998779297</ele>
        <time>2016-05-25T12:22:17Z</time>
      </trkpt>
      <trkpt lat="43.42671" lon="6.05327">
        <ele>285</ele>
        <time>2016-05-25T12:22:20Z</time>
      </trkpt>
      <trkpt lat="43.42673" lon="6.05331">
        <ele>285.60000610352</ele>
        <time>2016-05-25T12:22:23Z</time>
      </trkpt>
      <trkpt lat="43.42675" lon="6.05331">
        <ele>286</ele>
        <time>2016-05-25T12:22:24Z</time>
      </trkpt>
      <trkpt lat="43.42677" lon="6.05334">
        <ele>286.39999389648</ele>
        <time>2016-05-25T12:22:26Z</time>
      </trkpt>
      <trkpt lat="43.4268" lon="6.05337">
        <ele>286.79998779297</ele>
        <time>2016-05-25T12:22:29Z</time>
      </trkpt>
      <trkpt lat="43.42681" lon="6.05339">
        <ele>287</ele>
        <time>2016-05-25T12:22:30Z</time>
      </trkpt>
      <trkpt lat="43.42683" lon="6.05341">
        <ele>287.39999389648</ele>
        <time>2016-05-25T12:22:32Z</time>
      </trkpt>
      <trkpt lat="43.42684" lon="6.05342">
        <ele>287.39999389648</ele>
        <time>2016-05-25T12:22:33Z</time>
      </trkpt>
      <trkpt lat="43.42689" lon="6.05343">
        <ele>287.60000610352</ele>
        <time>2016-05-25T12:22:37Z</time>
      </trkpt>
      <trkpt lat="43.42698" lon="6.05345">
        <ele>287.79998779297</ele>
        <time>2016-05-25T12:22:43Z</time>
      </trkpt>
      <trkpt lat="43.42701" lon="6.05346">
        <ele>288</ele>
        <time>2016-05-25T12:22:45Z</time>
      </trkpt>
      <trkpt lat="43.42707" lon="6.05345">
        <ele>288.39999389648</ele>
        <time>2016-05-25T12:22:49Z</time>
      </trkpt>
      <trkpt lat="43.42713" lon="6.05346">
        <ele>288.60000610352</ele>
        <time>2016-05-25T12:22:52Z</time>
      </trkpt>
      <trkpt lat="43.42716" lon="6.05349">
        <ele>289.20001220703</ele>
        <time>2016-05-25T12:22:55Z</time>
      </trkpt>
      <trkpt lat="43.42717" lon="6.0536">
        <ele>290</ele>
        <time>2016-05-25T12:23:00Z</time>
      </trkpt>
      <trkpt lat="43.42715" lon="6.05371">
        <ele>290</ele>
        <time>2016-05-25T12:23:05Z</time>
      </trkpt>
      <trkpt lat="43.42715" lon="6.05373">
        <ele>290.20001220703</ele>
        <time>2016-05-25T12:23:06Z</time>
      </trkpt>
      <trkpt lat="43.42715" lon="6.05378">
        <ele>290.39999389648</ele>
        <time>2016-05-25T12:23:08Z</time>
      </trkpt>
      <trkpt lat="43.42714" lon="6.05386">
        <ele>290.79998779297</ele>
        <time>2016-05-25T12:23:12Z</time>
      </trkpt>
      <trkpt lat="43.42717" lon="6.05396">
        <ele>291.39999389648</ele>
        <time>2016-05-25T12:23:17Z</time>
      </trkpt>
      <trkpt lat="43.42717" lon="6.05398">
        <ele>291.39999389648</ele>
        <time>2016-05-25T12:23:18Z</time>
      </trkpt>
      <trkpt lat="43.42721" lon="6.05407">
        <ele>292.39999389648</ele>
        <time>2016-05-25T12:23:24Z</time>
      </trkpt>
      <trkpt lat="43.42721" lon="6.05409">
        <ele>292.60000610352</ele>
        <time>2016-05-25T12:23:25Z</time>
      </trkpt>
      <trkpt lat="43.42723" lon="6.05418">
        <ele>293.20001220703</ele>
        <time>2016-05-25T12:23:30Z</time>
      </trkpt>
      <trkpt lat="43.42725" lon="6.05423">
        <ele>293.39999389648</ele>
        <time>2016-05-25T12:23:32Z</time>
      </trkpt>
      <trkpt lat="43.42728" lon="6.05433">
        <ele>294</ele>
        <time>2016-05-25T12:23:37Z</time>
      </trkpt>
      <trkpt lat="43.42729" lon="6.05441">
        <ele>294.39999389648</ele>
        <time>2016-05-25T12:23:41Z</time>
      </trkpt>
      <trkpt lat="43.4273" lon="6.05445">
        <ele>294.60000610352</ele>
        <time>2016-05-25T12:23:43Z</time>
      </trkpt>
      <trkpt lat="43.42727" lon="6.05458">
        <ele>295.39999389648</ele>
        <time>2016-05-25T12:23:50Z</time>
      </trkpt>
      <trkpt lat="43.42726" lon="6.0546">
        <ele>295.60000610352</ele>
        <time>2016-05-25T12:23:51Z</time>
      </trkpt>
      <trkpt lat="43.42722" lon="6.05473">
        <ele>296</ele>
        <time>2016-05-25T12:23:58Z</time>
      </trkpt>
      <trkpt lat="43.42722" lon="6.05487">
        <ele>296.60000610352</ele>
        <time>2016-05-25T12:24:04Z</time>
      </trkpt>
      <trkpt lat="43.42723" lon="6.05493">
        <ele>296.79998779297</ele>
        <time>2016-05-25T12:24:07Z</time>
      </trkpt>
      <trkpt lat="43.42725" lon="6.05505">
        <ele>297.60000610352</ele>
        <time>2016-05-25T12:24:13Z</time>
      </trkpt>
      <trkpt lat="43.42725" lon="6.05507">
        <ele>297.79998779297</ele>
        <time>2016-05-25T12:24:14Z</time>
      </trkpt>
      <trkpt lat="43.42727" lon="6.05527">
        <ele>298.79998779297</ele>
        <time>2016-05-25T12:24:23Z</time>
      </trkpt>
      <trkpt lat="43.42728" lon="6.0554">
        <ele>299.79998779297</ele>
        <time>2016-05-25T12:24:29Z</time>
      </trkpt>
      <trkpt lat="43.42729" lon="6.05542">
        <ele>300</ele>
        <time>2016-05-25T12:24:30Z</time>
      </trkpt>
      <trkpt lat="43.42733" lon="6.05557">
        <ele>300.60000610352</ele>
        <time>2016-05-25T12:24:37Z</time>
      </trkpt>
      <trkpt lat="43.42733" lon="6.05565">
        <ele>301</ele>
        <time>2016-05-25T12:24:41Z</time>
      </trkpt>
      <trkpt lat="43.42736" lon="6.05572">
        <ele>301.60000610352</ele>
        <time>2016-05-25T12:24:44Z</time>
      </trkpt>
      <trkpt lat="43.42741" lon="6.05578">
        <ele>302</ele>
        <time>2016-05-25T12:24:48Z</time>
      </trkpt>
      <trkpt lat="43.42745" lon="6.0558">
        <ele>302.60000610352</ele>
        <time>2016-05-25T12:24:51Z</time>
      </trkpt>
      <trkpt lat="43.42749" lon="6.05584">
        <ele>303.20001220703</ele>
        <time>2016-05-25T12:24:54Z</time>
      </trkpt>
      <trkpt lat="43.42751" lon="6.05589">
        <ele>303.39999389648</ele>
        <time>2016-05-25T12:24:57Z</time>
      </trkpt>
      <trkpt lat="43.42751" lon="6.05594">
        <ele>304</ele>
        <time>2016-05-25T12:25:00Z</time>
      </trkpt>
      <trkpt lat="43.42751" lon="6.05606">
        <ele>305</ele>
        <time>2016-05-25T12:25:06Z</time>
      </trkpt>
      <trkpt lat="43.4275" lon="6.05608">
        <ele>305</ele>
        <time>2016-05-25T12:25:07Z</time>
      </trkpt>
      <trkpt lat="43.42749" lon="6.05617">
        <ele>305.79998779297</ele>
        <time>2016-05-25T12:25:12Z</time>
      </trkpt>
      <trkpt lat="43.42749" lon="6.0562">
        <ele>306.20001220703</ele>
        <time>2016-05-25T12:25:14Z</time>
      </trkpt>
      <trkpt lat="43.42746" lon="6.05626">
        <ele>307</ele>
        <time>2016-05-25T12:25:18Z</time>
      </trkpt>
      <trkpt lat="43.42743" lon="6.05633">
        <ele>307.39999389648</ele>
        <time>2016-05-25T12:25:22Z</time>
      </trkpt>
      <trkpt lat="43.42738" lon="6.05638">
        <ele>308</ele>
        <time>2016-05-25T12:25:26Z</time>
      </trkpt>
      <trkpt lat="43.42729" lon="6.05647">
        <ele>307.79998779297</ele>
        <time>2016-05-25T12:25:33Z</time>
      </trkpt>
      <trkpt lat="43.42725" lon="6.05656">
        <ele>308.39999389648</ele>
        <time>2016-05-25T12:25:38Z</time>
      </trkpt>
      <trkpt lat="43.42723" lon="6.05662">
        <ele>308.60000610352</ele>
        <time>2016-05-25T12:25:41Z</time>
      </trkpt>
      <trkpt lat="43.42723" lon="6.05664">
        <ele>308.79998779297</ele>
        <time>2016-05-25T12:25:42Z</time>
      </trkpt>
      <trkpt lat="43.4272" lon="6.05668">
        <ele>309.39999389648</ele>
        <time>2016-05-25T12:25:45Z</time>
      </trkpt>
      <trkpt lat="43.42719" lon="6.0567">
        <ele>309.39999389648</ele>
        <time>2016-05-25T12:25:46Z</time>
      </trkpt>
      <trkpt lat="43.42716" lon="6.05676">
        <ele>309.79998779297</ele>
        <time>2016-05-25T12:25:50Z</time>
      </trkpt>
      <trkpt lat="43.42715" lon="6.05677">
        <ele>309.79998779297</ele>
        <time>2016-05-25T12:25:51Z</time>
      </trkpt>
      <trkpt lat="43.4271" lon="6.05681">
        <ele>310.20001220703</ele>
        <time>2016-05-25T12:25:55Z</time>
      </trkpt>
      <trkpt lat="43.42708" lon="6.05684">
        <ele>310.39999389648</ele>
        <time>2016-05-25T12:25:57Z</time>
      </trkpt>
      <trkpt lat="43.42707" lon="6.05685">
        <ele>310.60000610352</ele>
        <time>2016-05-25T12:25:58Z</time>
      </trkpt>
      <trkpt lat="43.42705" lon="6.05692">
        <ele>311.39999389648</ele>
        <time>2016-05-25T12:26:02Z</time>
      </trkpt>
      <trkpt lat="43.42704" lon="6.05694">
        <ele>311.60000610352</ele>
        <time>2016-05-25T12:26:03Z</time>
      </trkpt>
      <trkpt lat="43.42704" lon="6.05696">
        <ele>311.60000610352</ele>
        <time>2016-05-25T12:26:04Z</time>
      </trkpt>
      <trkpt lat="43.42702" lon="6.05701">
        <ele>312.39999389648</ele>
        <time>2016-05-25T12:26:07Z</time>
      </trkpt>
      <trkpt lat="43.42702" lon="6.05702">
        <ele>312.60000610352</ele>
        <time>2016-05-25T12:26:08Z</time>
      </trkpt>
      <trkpt lat="43.42701" lon="6.05706">
        <ele>313</ele>
        <time>2016-05-25T12:26:10Z</time>
      </trkpt>
      <trkpt lat="43.42699" lon="6.05711">
        <ele>313.60000610352</ele>
        <time>2016-05-25T12:26:13Z</time>
      </trkpt>
      <trkpt lat="43.42699" lon="6.05718">
        <ele>313.79998779297</ele>
        <time>2016-05-25T12:26:16Z</time>
      </trkpt>
      <trkpt lat="43.42699" lon="6.0572">
        <ele>314</ele>
        <time>2016-05-25T12:26:17Z</time>
      </trkpt>
      <trkpt lat="43.42696" lon="6.05726">
        <ele>314.39999389648</ele>
        <time>2016-05-25T12:26:21Z</time>
      </trkpt>
      <trkpt lat="43.42696" lon="6.05729">
        <ele>314.60000610352</ele>
        <time>2016-05-25T12:26:22Z</time>
      </trkpt>
      <trkpt lat="43.42696" lon="6.05731">
        <ele>314.60000610352</ele>
        <time>2016-05-25T12:26:23Z</time>
      </trkpt>
      <trkpt lat="43.42697" lon="6.05733">
        <ele>314.79998779297</ele>
        <time>2016-05-25T12:26:24Z</time>
      </trkpt>
      <trkpt lat="43.42699" lon="6.05737">
        <ele>315.60000610352</ele>
        <time>2016-05-25T12:26:27Z</time>
      </trkpt>
      <trkpt lat="43.42699" lon="6.05738">
        <ele>316</ele>
        <time>2016-05-25T12:26:29Z</time>
      </trkpt>
      <trkpt lat="43.42699" lon="6.05739">
        <ele>316.20001220703</ele>
        <time>2016-05-25T12:26:32Z</time>
      </trkpt>
      <trkpt lat="43.42699" lon="6.05739">
        <ele>316.20001220703</ele>
        <time>2016-05-25T12:26:35Z</time>
      </trkpt>
      <trkpt lat="43.42699" lon="6.05739">
        <ele>316</ele>
        <time>2016-05-25T12:26:40Z</time>
      </trkpt>
      <trkpt lat="43.427" lon="6.05738">
        <ele>316</ele>
        <time>2016-05-25T12:26:47Z</time>
      </trkpt>
      <trkpt lat="43.42703" lon="6.05739">
        <ele>316</ele>
        <time>2016-05-25T12:26:50Z</time>
      </trkpt>
      <trkpt lat="43.42706" lon="6.05739">
        <ele>316</ele>
        <time>2016-05-25T12:26:52Z</time>
      </trkpt>
      <trkpt lat="43.42712" lon="6.05739">
        <ele>316</ele>
        <time>2016-05-25T12:26:55Z</time>
      </trkpt>
      <trkpt lat="43.42719" lon="6.0574">
        <ele>316</ele>
        <time>2016-05-25T12:26:59Z</time>
      </trkpt>
      <trkpt lat="43.42721" lon="6.0574">
        <ele>316</ele>
        <time>2016-05-25T12:27:00Z</time>
      </trkpt>
      <trkpt lat="43.4273" lon="6.05741">
        <ele>316.39999389648</ele>
        <time>2016-05-25T12:27:05Z</time>
      </trkpt>
      <trkpt lat="43.42732" lon="6.05741">
        <ele>316.60000610352</ele>
        <time>2016-05-25T12:27:06Z</time>
      </trkpt>
      <trkpt lat="43.42742" lon="6.05741">
        <ele>316.79998779297</ele>
        <time>2016-05-25T12:27:12Z</time>
      </trkpt>
      <trkpt lat="43.42746" lon="6.05742">
        <ele>316.79998779297</ele>
        <time>2016-05-25T12:27:14Z</time>
      </trkpt>
      <trkpt lat="43.42749" lon="6.05743">
        <ele>317</ele>
        <time>2016-05-25T12:27:16Z</time>
      </trkpt>
      <trkpt lat="43.42754" lon="6.0574">
        <ele>317.20001220703</ele>
        <time>2016-05-25T12:27:19Z</time>
      </trkpt>
      <trkpt lat="43.42756" lon="6.05737">
        <ele>317.20001220703</ele>
        <time>2016-05-25T12:27:20Z</time>
      </trkpt>
      <trkpt lat="43.42765" lon="6.05731">
        <ele>317.20001220703</ele>
        <time>2016-05-25T12:27:25Z</time>
      </trkpt>
      <trkpt lat="43.42777" lon="6.05735">
        <ele>318</ele>
        <time>2016-05-25T12:27:31Z</time>
      </trkpt>
      <trkpt lat="43.42778" lon="6.05736">
        <ele>318.20001220703</ele>
        <time>2016-05-25T12:27:32Z</time>
      </trkpt>
      <trkpt lat="43.42785" lon="6.05739">
        <ele>318.39999389648</ele>
        <time>2016-05-25T12:27:36Z</time>
      </trkpt>
      <trkpt lat="43.42788" lon="6.05744">
        <ele>318.79998779297</ele>
        <time>2016-05-25T12:27:39Z</time>
      </trkpt>
      <trkpt lat="43.42797" lon="6.05745">
        <ele>319.20001220703</ele>
        <time>2016-05-25T12:27:44Z</time>
      </trkpt>
      <trkpt lat="43.42799" lon="6.05744">
        <ele>319.20001220703</ele>
        <time>2016-05-25T12:27:45Z</time>
      </trkpt>
      <trkpt lat="43.4281" lon="6.05738">
        <ele>319.20001220703</ele>
        <time>2016-05-25T12:27:49Z</time>
      </trkpt>
      <trkpt lat="43.42821" lon="6.05736">
        <ele>319</ele>
        <time>2016-05-25T12:27:53Z</time>
      </trkpt>
      <trkpt lat="43.42823" lon="6.05735">
        <ele>318.79998779297</ele>
        <time>2016-05-25T12:27:57Z</time>
      </trkpt>
      <trkpt lat="43.42823" lon="6.05735">
        <ele>318.60000610352</ele>
        <time>2016-05-25T12:28:04Z</time>
      </trkpt>
      <trkpt lat="43.42823" lon="6.05735">
        <ele>319</ele>
        <time>2016-05-25T12:28:12Z</time>
      </trkpt>
      <trkpt lat="43.42823" lon="6.05735">
        <ele>318.79998779297</ele>
        <time>2016-05-25T12:28:19Z</time>
      </trkpt>
      <trkpt lat="43.42823" lon="6.05735">
        <ele>319</ele>
        <time>2016-05-25T12:28:25Z</time>
      </trkpt>
      <trkpt lat="43.42823" lon="6.05735">
        <ele>318.79998779297</ele>
        <time>2016-05-25T12:28:30Z</time>
      </trkpt>
      <trkpt lat="43.42823" lon="6.05735">
        <ele>318.79998779297</ele>
        <time>2016-05-25T12:28:39Z</time>
      </trkpt>
      <trkpt lat="43.42823" lon="6.05735">
        <ele>318.39999389648</ele>
        <time>2016-05-25T12:28:53Z</time>
      </trkpt>
      <trkpt lat="43.42823" lon="6.05735">
        <ele>318.20001220703</ele>
        <time>2016-05-25T12:28:57Z</time>
      </trkpt>
      <trkpt lat="43.42823" lon="6.05734">
        <ele>318.20001220703</ele>
        <time>2016-05-25T12:29:19Z</time>
      </trkpt>
      <trkpt lat="43.42823" lon="6.05734">
        <ele>318.20001220703</ele>
        <time>2016-05-25T12:29:36Z</time>
      </trkpt>
      <trkpt lat="43.42823" lon="6.05734">
        <ele>318.20001220703</ele>
        <time>2016-05-25T12:30:02Z</time>
      </trkpt>
      <trkpt lat="43.42823" lon="6.05734">
        <ele>318.20001220703</ele>
        <time>2016-05-25T12:30:28Z</time>
      </trkpt>
      <trkpt lat="43.42823" lon="6.05734">
        <ele>318.60000610352</ele>
        <time>2016-05-25T12:30:54Z</time>
      </trkpt>
      <trkpt lat="43.42823" lon="6.05734">
        <ele>318.79998779297</ele>
        <time>2016-05-25T12:31:12Z</time>
      </trkpt>
      <trkpt lat="43.42823" lon="6.05734">
        <ele>318.79998779297</ele>
        <time>2016-05-25T12:31:18Z</time>
      </trkpt>
      <trkpt lat="43.42823" lon="6.05734">
        <ele>318.60000610352</ele>
        <time>2016-05-25T12:31:31Z</time>
      </trkpt>
      <trkpt lat="43.42823" lon="6.05734">
        <ele>318.79998779297</ele>
        <time>2016-05-25T12:32:00Z</time>
      </trkpt>
      <trkpt lat="43.42823" lon="6.05734">
        <ele>318.79998779297</ele>
        <time>2016-05-25T12:32:05Z</time>
      </trkpt>
      <trkpt lat="43.42823" lon="6.05734">
        <ele>318.79998779297</ele>
        <time>2016-05-25T12:32:08Z</time>
      </trkpt>
      <trkpt lat="43.42823" lon="6.05734">
        <ele>318.79998779297</ele>
        <time>2016-05-25T12:32:09Z</time>
      </trkpt>
      <trkpt lat="43.42826" lon="6.05732">
        <ele>319</ele>
        <time>2016-05-25T12:32:19Z</time>
      </trkpt>
      <trkpt lat="43.42834" lon="6.05724">
        <ele>319.20001220703</ele>
        <time>2016-05-25T12:32:25Z</time>
      </trkpt>
      <trkpt lat="43.42838" lon="6.05709">
        <ele>319.20001220703</ele>
        <time>2016-05-25T12:32:30Z</time>
      </trkpt>
      <trkpt lat="43.42841" lon="6.05691">
        <ele>319.39999389648</ele>
        <time>2016-05-25T12:32:34Z</time>
      </trkpt>
      <trkpt lat="43.42842" lon="6.05676">
        <ele>319.39999389648</ele>
        <time>2016-05-25T12:32:37Z</time>
      </trkpt>
      <trkpt lat="43.42848" lon="6.05632">
        <ele>318.79998779297</ele>
        <time>2016-05-25T12:32:44Z</time>
      </trkpt>
      <trkpt lat="43.42855" lon="6.05577">
        <ele>318.79998779297</ele>
        <time>2016-05-25T12:32:52Z</time>
      </trkpt>
      <trkpt lat="43.42862" lon="6.05534">
        <ele>318</ele>
        <time>2016-05-25T12:32:58Z</time>
      </trkpt>
      <trkpt lat="43.42867" lon="6.05498">
        <ele>318</ele>
        <time>2016-05-25T12:33:03Z</time>
      </trkpt>
      <trkpt lat="43.42868" lon="6.05484">
        <ele>318.39999389648</ele>
        <time>2016-05-25T12:33:05Z</time>
      </trkpt>
      <trkpt lat="43.42872" lon="6.05456">
        <ele>318.60000610352</ele>
        <time>2016-05-25T12:33:09Z</time>
      </trkpt>
      <trkpt lat="43.42874" lon="6.05443">
        <ele>318.79998779297</ele>
        <time>2016-05-25T12:33:11Z</time>
      </trkpt>
      <trkpt lat="43.42876" lon="6.0543">
        <ele>319</ele>
        <time>2016-05-25T12:33:13Z</time>
      </trkpt>
      <trkpt lat="43.42877" lon="6.05423">
        <ele>319</ele>
        <time>2016-05-25T12:33:14Z</time>
      </trkpt>
      <trkpt lat="43.42879" lon="6.05405">
        <ele>319.20001220703</ele>
        <time>2016-05-25T12:33:17Z</time>
      </trkpt>
      <trkpt lat="43.4288" lon="6.05386">
        <ele>320</ele>
        <time>2016-05-25T12:33:20Z</time>
      </trkpt>
      <trkpt lat="43.42881" lon="6.0537">
        <ele>320.60000610352</ele>
        <time>2016-05-25T12:33:23Z</time>
      </trkpt>
      <trkpt lat="43.42883" lon="6.05354">
        <ele>321.20001220703</ele>
        <time>2016-05-25T12:33:26Z</time>
      </trkpt>
      <trkpt lat="43.42885" lon="6.05344">
        <ele>321.20001220703</ele>
        <time>2016-05-25T12:33:28Z</time>
      </trkpt>
      <trkpt lat="43.42886" lon="6.05339">
        <ele>321.39999389648</ele>
        <time>2016-05-25T12:33:29Z</time>
      </trkpt>
      <trkpt lat="43.42887" lon="6.05329">
        <ele>321.60000610352</ele>
        <time>2016-05-25T12:33:31Z</time>
      </trkpt>
      <trkpt lat="43.42888" lon="6.05325">
        <ele>321.79998779297</ele>
        <time>2016-05-25T12:33:32Z</time>
      </trkpt>
      <trkpt lat="43.42889" lon="6.05316">
        <ele>322.39999389648</ele>
        <time>2016-05-25T12:33:34Z</time>
      </trkpt>
      <trkpt lat="43.42891" lon="6.05299">
        <ele>323</ele>
        <time>2016-05-25T12:33:39Z</time>
      </trkpt>
      <trkpt lat="43.42894" lon="6.05273">
        <ele>323.20001220703</ele>
        <time>2016-05-25T12:33:47Z</time>
      </trkpt>
      <trkpt lat="43.42895" lon="6.05261">
        <ele>323.20001220703</ele>
        <time>2016-05-25T12:33:51Z</time>
      </trkpt>
      <trkpt lat="43.42896" lon="6.05254">
        <ele>323.20001220703</ele>
        <time>2016-05-25T12:33:53Z</time>
      </trkpt>
      <trkpt lat="43.42897" lon="6.05247">
        <ele>322.79998779297</ele>
        <time>2016-05-25T12:33:55Z</time>
      </trkpt>
      <trkpt lat="43.42897" lon="6.05243">
        <ele>322.60000610352</ele>
        <time>2016-05-25T12:33:56Z</time>
      </trkpt>
      <trkpt lat="43.42899" lon="6.05231">
        <ele>322.60000610352</ele>
        <time>2016-05-25T12:33:59Z</time>
      </trkpt>
      <trkpt lat="43.429" lon="6.05219">
        <ele>322.60000610352</ele>
        <time>2016-05-25T12:34:02Z</time>
      </trkpt>
      <trkpt lat="43.42901" lon="6.05211">
        <ele>322.60000610352</ele>
        <time>2016-05-25T12:34:04Z</time>
      </trkpt>
      <trkpt lat="43.42904" lon="6.05196">
        <ele>322.39999389648</ele>
        <time>2016-05-25T12:34:08Z</time>
      </trkpt>
      <trkpt lat="43.42906" lon="6.05174">
        <ele>322</ele>
        <time>2016-05-25T12:34:13Z</time>
      </trkpt>
      <trkpt lat="43.42908" lon="6.0515">
        <ele>321.39999389648</ele>
        <time>2016-05-25T12:34:17Z</time>
      </trkpt>
      <trkpt lat="43.4291" lon="6.05136">
        <ele>320.79998779297</ele>
        <time>2016-05-25T12:34:19Z</time>
      </trkpt>
      <trkpt lat="43.42916" lon="6.05102">
        <ele>321.20001220703</ele>
        <time>2016-05-25T12:34:24Z</time>
      </trkpt>
      <trkpt lat="43.42916" lon="6.05095">
        <ele>321.39999389648</ele>
        <time>2016-05-25T12:34:25Z</time>
      </trkpt>
      <trkpt lat="43.42918" lon="6.05076">
        <ele>320</ele>
        <time>2016-05-25T12:34:28Z</time>
      </trkpt>
      <trkpt lat="43.42922" lon="6.05045">
        <ele>319.60000610352</ele>
        <time>2016-05-25T12:34:33Z</time>
      </trkpt>
      <trkpt lat="43.42924" lon="6.05021">
        <ele>319</ele>
        <time>2016-05-25T12:34:37Z</time>
      </trkpt>
      <trkpt lat="43.42928" lon="6.04989">
        <ele>318</ele>
        <time>2016-05-25T12:34:42Z</time>
      </trkpt>
      <trkpt lat="43.42931" lon="6.04971">
        <ele>317.39999389648</ele>
        <time>2016-05-25T12:34:45Z</time>
      </trkpt>
      <trkpt lat="43.42932" lon="6.04954">
        <ele>317.39999389648</ele>
        <time>2016-05-25T12:34:48Z</time>
      </trkpt>
      <trkpt lat="43.42932" lon="6.04932">
        <ele>316.79998779297</ele>
        <time>2016-05-25T12:34:53Z</time>
      </trkpt>
      <trkpt lat="43.42931" lon="6.04932">
        <ele>316.79998779297</ele>
        <time>2016-05-25T12:34:58Z</time>
      </trkpt>
      <trkpt lat="43.42931" lon="6.04932">
        <ele>316.79998779297</ele>
        <time>2016-05-25T12:35:20Z</time>
      </trkpt>
      <trkpt lat="43.42931" lon="6.04932">
        <ele>316.39999389648</ele>
        <time>2016-05-25T12:35:25Z</time>
      </trkpt>
      <trkpt lat="43.42931" lon="6.04932">
        <ele>316.39999389648</ele>
        <time>2016-05-25T12:35:37Z</time>
      </trkpt>
      <trkpt lat="43.42931" lon="6.04932">
        <ele>316.60000610352</ele>
        <time>2016-05-25T12:35:57Z</time>
      </trkpt>
      <trkpt lat="43.42931" lon="6.04932">
        <ele>316.60000610352</ele>
        <time>2016-05-25T12:35:58Z</time>
      </trkpt>
      <trkpt lat="43.42932" lon="6.04931">
        <ele>316.60000610352</ele>
        <time>2016-05-25T12:36:19Z</time>
      </trkpt>
      <trkpt lat="43.42933" lon="6.04918">
        <ele>316.20001220703</ele>
        <time>2016-05-25T12:36:24Z</time>
      </trkpt>
      <trkpt lat="43.42933" lon="6.04913">
        <ele>315.79998779297</ele>
        <time>2016-05-25T12:36:26Z</time>
      </trkpt>
      <trkpt lat="43.42935" lon="6.04904">
        <ele>315.39999389648</ele>
        <time>2016-05-25T12:36:29Z</time>
      </trkpt>
      <trkpt lat="43.42936" lon="6.0489">
        <ele>314.60000610352</ele>
        <time>2016-05-25T12:36:33Z</time>
      </trkpt>
      <trkpt lat="43.42937" lon="6.04886">
        <ele>314.39999389648</ele>
        <time>2016-05-25T12:36:34Z</time>
      </trkpt>
      <trkpt lat="43.42941" lon="6.04878">
        <ele>313.39999389648</ele>
        <time>2016-05-25T12:36:37Z</time>
      </trkpt>
      <trkpt lat="43.42942" lon="6.04877">
        <ele>312.79998779297</ele>
        <time>2016-05-25T12:36:38Z</time>
      </trkpt>
      <trkpt lat="43.42944" lon="6.04875">
        <ele>312.39999389648</ele>
        <time>2016-05-25T12:36:39Z</time>
      </trkpt>
      <trkpt lat="43.42948" lon="6.04869">
        <ele>311.60000610352</ele>
        <time>2016-05-25T12:36:43Z</time>
      </trkpt>
      <trkpt lat="43.4295" lon="6.04869">
        <ele>311.60000610352</ele>
        <time>2016-05-25T12:36:44Z</time>
      </trkpt>
      <trkpt lat="43.42955" lon="6.04867">
        <ele>311.20001220703</ele>
        <time>2016-05-25T12:36:47Z</time>
      </trkpt>
      <trkpt lat="43.42957" lon="6.04865">
        <ele>310.79998779297</ele>
        <time>2016-05-25T12:36:48Z</time>
      </trkpt>
      <trkpt lat="43.4296" lon="6.04863">
        <ele>310.20001220703</ele>
        <time>2016-05-25T12:36:49Z</time>
      </trkpt>
      <trkpt lat="43.42962" lon="6.04861">
        <ele>309.39999389648</ele>
        <time>2016-05-25T12:36:50Z</time>
      </trkpt>
      <trkpt lat="43.42968" lon="6.04854">
        <ele>308.39999389648</ele>
        <time>2016-05-25T12:36:53Z</time>
      </trkpt>
      <trkpt lat="43.42973" lon="6.04849">
        <ele>307.60000610352</ele>
        <time>2016-05-25T12:36:55Z</time>
      </trkpt>
      <trkpt lat="43.42976" lon="6.04847">
        <ele>307</ele>
        <time>2016-05-25T12:36:56Z</time>
      </trkpt>
      <trkpt lat="43.4298" lon="6.04841">
        <ele>305.79998779297</ele>
        <time>2016-05-25T12:36:58Z</time>
      </trkpt>
      <trkpt lat="43.42985" lon="6.04835">
        <ele>304.39999389648</ele>
        <time>2016-05-25T12:37:00Z</time>
      </trkpt>
      <trkpt lat="43.42988" lon="6.04827">
        <ele>302.79998779297</ele>
        <time>2016-05-25T12:37:02Z</time>
      </trkpt>
      <trkpt lat="43.42992" lon="6.04818">
        <ele>302.20001220703</ele>
        <time>2016-05-25T12:37:04Z</time>
      </trkpt>
      <trkpt lat="43.42999" lon="6.04803">
        <ele>301.60000610352</ele>
        <time>2016-05-25T12:37:08Z</time>
      </trkpt>
      <trkpt lat="43.43005" lon="6.04795">
        <ele>300.39999389648</ele>
        <time>2016-05-25T12:37:12Z</time>
      </trkpt>
      <trkpt lat="43.43008" lon="6.04793">
        <ele>299.79998779297</ele>
        <time>2016-05-25T12:37:14Z</time>
      </trkpt>
      <trkpt lat="43.43012" lon="6.04789">
        <ele>298.79998779297</ele>
        <time>2016-05-25T12:37:16Z</time>
      </trkpt>
      <trkpt lat="43.43018" lon="6.04786">
        <ele>297.20001220703</ele>
        <time>2016-05-25T12:37:18Z</time>
      </trkpt>
      <trkpt lat="43.43023" lon="6.04785">
        <ele>295.60000610352</ele>
        <time>2016-05-25T12:37:20Z</time>
      </trkpt>
      <trkpt lat="43.43026" lon="6.04784">
        <ele>294.60000610352</ele>
        <time>2016-05-25T12:37:22Z</time>
      </trkpt>
      <trkpt lat="43.43025" lon="6.04782">
        <ele>293.60000610352</ele>
        <time>2016-05-25T12:37:32Z</time>
      </trkpt>
      <trkpt lat="43.43024" lon="6.04782">
        <ele>294</ele>
        <time>2016-05-25T12:37:44Z</time>
      </trkpt>
      <trkpt lat="43.43024" lon="6.04782">
        <ele>293.79998779297</ele>
        <time>2016-05-25T12:37:50Z</time>
      </trkpt>
      <trkpt lat="43.43025" lon="6.04782">
        <ele>293.79998779297</ele>
        <time>2016-05-25T12:37:59Z</time>
      </trkpt>
      <trkpt lat="43.43025" lon="6.04782">
        <ele>294.20001220703</ele>
        <time>2016-05-25T12:38:13Z</time>
      </trkpt>
      <trkpt lat="43.43025" lon="6.04782">
        <ele>294.39999389648</ele>
        <time>2016-05-25T12:38:23Z</time>
      </trkpt>
      <trkpt lat="43.43024" lon="6.04782">
        <ele>294.20001220703</ele>
        <time>2016-05-25T12:38:28Z</time>
      </trkpt>
      <trkpt lat="43.43025" lon="6.04782">
        <ele>294</ele>
        <time>2016-05-25T12:38:44Z</time>
      </trkpt>
      <trkpt lat="43.43025" lon="6.04782">
        <ele>294</ele>
        <time>2016-05-25T12:38:52Z</time>
      </trkpt>
      <trkpt lat="43.43024" lon="6.04782">
        <ele>294</ele>
        <time>2016-05-25T12:38:59Z</time>
      </trkpt>
      <trkpt lat="43.43023" lon="6.04787">
        <ele>293.79998779297</ele>
        <time>2016-05-25T12:39:02Z</time>
      </trkpt>
      <trkpt lat="43.43021" lon="6.04807">
        <ele>293.60000610352</ele>
        <time>2016-05-25T12:39:07Z</time>
      </trkpt>
      <trkpt lat="43.43021" lon="6.04819">
        <ele>293</ele>
        <time>2016-05-25T12:39:09Z</time>
      </trkpt>
      <trkpt lat="43.43019" lon="6.0484">
        <ele>292</ele>
        <time>2016-05-25T12:39:13Z</time>
      </trkpt>
      <trkpt lat="43.4302" lon="6.04844">
        <ele>291.79998779297</ele>
        <time>2016-05-25T12:39:14Z</time>
      </trkpt>
      <trkpt lat="43.43021" lon="6.04849">
        <ele>291.60000610352</ele>
        <time>2016-05-25T12:39:15Z</time>
      </trkpt>
      <trkpt lat="43.43026" lon="6.04863">
        <ele>291</ele>
        <time>2016-05-25T12:39:18Z</time>
      </trkpt>
      <trkpt lat="43.43028" lon="6.04868">
        <ele>290.79998779297</ele>
        <time>2016-05-25T12:39:19Z</time>
      </trkpt>
      <trkpt lat="43.43032" lon="6.04879">
        <ele>290.39999389648</ele>
        <time>2016-05-25T12:39:21Z</time>
      </trkpt>
      <trkpt lat="43.43039" lon="6.04891">
        <ele>289.79998779297</ele>
        <time>2016-05-25T12:39:23Z</time>
      </trkpt>
      <trkpt lat="43.43045" lon="6.04906">
        <ele>288.60000610352</ele>
        <time>2016-05-25T12:39:25Z</time>
      </trkpt>
      <trkpt lat="43.43052" lon="6.04921">
        <ele>286.79998779297</ele>
        <time>2016-05-25T12:39:27Z</time>
      </trkpt>
      <trkpt lat="43.43056" lon="6.04929">
        <ele>286.39999389648</ele>
        <time>2016-05-25T12:39:28Z</time>
      </trkpt>
      <trkpt lat="43.4306" lon="6.04937">
        <ele>285.60000610352</ele>
        <time>2016-05-25T12:39:29Z</time>
      </trkpt>
      <trkpt lat="43.43072" lon="6.04959">
        <ele>284.79998779297</ele>
        <time>2016-05-25T12:39:32Z</time>
      </trkpt>
      <trkpt lat="43.43081" lon="6.04972">
        <ele>284.39999389648</ele>
        <time>2016-05-25T12:39:34Z</time>
      </trkpt>
      <trkpt lat="43.43087" lon="6.04979">
        <ele>282.60000610352</ele>
        <time>2016-05-25T12:39:35Z</time>
      </trkpt>
      <trkpt lat="43.43092" lon="6.04987">
        <ele>282</ele>
        <time>2016-05-25T12:39:36Z</time>
      </trkpt>
      <trkpt lat="43.43106" lon="6.05011">
        <ele>282</ele>
        <time>2016-05-25T12:39:39Z</time>
      </trkpt>
      <trkpt lat="43.43111" lon="6.05019">
        <ele>281.60000610352</ele>
        <time>2016-05-25T12:39:40Z</time>
      </trkpt>
      <trkpt lat="43.43126" lon="6.05043">
        <ele>280</ele>
        <time>2016-05-25T12:39:43Z</time>
      </trkpt>
      <trkpt lat="43.43135" lon="6.05056">
        <ele>279</ele>
        <time>2016-05-25T12:39:45Z</time>
      </trkpt>
      <trkpt lat="43.4314" lon="6.05061">
        <ele>278</ele>
        <time>2016-05-25T12:39:46Z</time>
      </trkpt>
      <trkpt lat="43.43151" lon="6.05068">
        <ele>276.39999389648</ele>
        <time>2016-05-25T12:39:48Z</time>
      </trkpt>
      <trkpt lat="43.43156" lon="6.05072">
        <ele>275.60000610352</ele>
        <time>2016-05-25T12:39:49Z</time>
      </trkpt>
      <trkpt lat="43.43163" lon="6.05075">
        <ele>275.20001220703</ele>
        <time>2016-05-25T12:39:50Z</time>
      </trkpt>
      <trkpt lat="43.43184" lon="6.0508">
        <ele>273.79998779297</ele>
        <time>2016-05-25T12:39:53Z</time>
      </trkpt>
      <trkpt lat="43.43191" lon="6.05082">
        <ele>273</ele>
        <time>2016-05-25T12:39:54Z</time>
      </trkpt>
      <trkpt lat="43.43198" lon="6.05084">
        <ele>272</ele>
        <time>2016-05-25T12:39:55Z</time>
      </trkpt>
      <trkpt lat="43.43209" lon="6.05086">
        <ele>271</ele>
        <time>2016-05-25T12:39:57Z</time>
      </trkpt>
      <trkpt lat="43.43226" lon="6.05083">
        <ele>270.60000610352</ele>
        <time>2016-05-25T12:40:01Z</time>
      </trkpt>
      <trkpt lat="43.43242" lon="6.05084">
        <ele>269.79998779297</ele>
        <time>2016-05-25T12:40:04Z</time>
      </trkpt>
      <trkpt lat="43.43248" lon="6.05084">
        <ele>269.79998779297</ele>
        <time>2016-05-25T12:40:05Z</time>
      </trkpt>
      <trkpt lat="43.43268" lon="6.05084">
        <ele>268.60000610352</ele>
        <time>2016-05-25T12:40:08Z</time>
      </trkpt>
      <trkpt lat="43.43274" lon="6.05085">
        <ele>268.20001220703</ele>
        <time>2016-05-25T12:40:09Z</time>
      </trkpt>
      <trkpt lat="43.4328" lon="6.05088">
        <ele>267.79998779297</ele>
        <time>2016-05-25T12:40:10Z</time>
      </trkpt>
      <trkpt lat="43.43286" lon="6.05092">
        <ele>267.60000610352</ele>
        <time>2016-05-25T12:40:11Z</time>
      </trkpt>
      <trkpt lat="43.43305" lon="6.05108">
        <ele>266</ele>
        <time>2016-05-25T12:40:14Z</time>
      </trkpt>
      <trkpt lat="43.43311" lon="6.05113">
        <ele>265.39999389648</ele>
        <time>2016-05-25T12:40:15Z</time>
      </trkpt>
      <trkpt lat="43.43317" lon="6.05119">
        <ele>265</ele>
        <time>2016-05-25T12:40:16Z</time>
      </trkpt>
      <trkpt lat="43.43322" lon="6.05125">
        <ele>264.79998779297</ele>
        <time>2016-05-25T12:40:17Z</time>
      </trkpt>
      <trkpt lat="43.43328" lon="6.05131">
        <ele>264.20001220703</ele>
        <time>2016-05-25T12:40:18Z</time>
      </trkpt>
      <trkpt lat="43.43333" lon="6.05135">
        <ele>263.60000610352</ele>
        <time>2016-05-25T12:40:19Z</time>
      </trkpt>
      <trkpt lat="43.43345" lon="6.05142">
        <ele>262.79998779297</ele>
        <time>2016-05-25T12:40:22Z</time>
      </trkpt>
      <trkpt lat="43.43348" lon="6.05143">
        <ele>262.39999389648</ele>
        <time>2016-05-25T12:40:23Z</time>
      </trkpt>
      <trkpt lat="43.4335" lon="6.05146">
        <ele>262.20001220703</ele>
        <time>2016-05-25T12:40:25Z</time>
      </trkpt>
      <trkpt lat="43.43351" lon="6.05147">
        <ele>262.20001220703</ele>
        <time>2016-05-25T12:40:26Z</time>
      </trkpt>
      <trkpt lat="43.43353" lon="6.05152">
        <ele>261.60000610352</ele>
        <time>2016-05-25T12:40:30Z</time>
      </trkpt>
      <trkpt lat="43.43354" lon="6.05153">
        <ele>261.79998779297</ele>
        <time>2016-05-25T12:40:32Z</time>
      </trkpt>
      <trkpt lat="43.43357" lon="6.05152">
        <ele>261.39999389648</ele>
        <time>2016-05-25T12:40:36Z</time>
      </trkpt>
      <trkpt lat="43.43358" lon="6.05151">
        <ele>261.20001220703</ele>
        <time>2016-05-25T12:40:39Z</time>
      </trkpt>
      <trkpt lat="43.43359" lon="6.0515">
        <ele>261.39999389648</ele>
        <time>2016-05-25T12:40:47Z</time>
      </trkpt>
      <trkpt lat="43.4336" lon="6.05148">
        <ele>261.20001220703</ele>
        <time>2016-05-25T12:40:52Z</time>
      </trkpt>
      <trkpt lat="43.4336" lon="6.05149">
        <ele>261.20001220703</ele>
        <time>2016-05-25T12:41:06Z</time>
      </trkpt>
      <trkpt lat="43.43358" lon="6.05152">
        <ele>261</ele>
        <time>2016-05-25T12:41:11Z</time>
      </trkpt>
      <trkpt lat="43.43356" lon="6.05153">
        <ele>261.20001220703</ele>
        <time>2016-05-25T12:41:17Z</time>
      </trkpt>
      <trkpt lat="43.43355" lon="6.05146">
        <ele>261.20001220703</ele>
        <time>2016-05-25T12:41:25Z</time>
      </trkpt>
      <trkpt lat="43.43354" lon="6.05146">
        <ele>261.60000610352</ele>
        <time>2016-05-25T12:41:32Z</time>
      </trkpt>
      <trkpt lat="43.43354" lon="6.05146">
        <ele>261.60000610352</ele>
        <time>2016-05-25T12:41:39Z</time>
      </trkpt>
      <trkpt lat="43.43354" lon="6.05145">
        <ele>261.39999389648</ele>
        <time>2016-05-25T12:41:45Z</time>
      </trkpt>
      <trkpt lat="43.43354" lon="6.05145">
        <ele>261.60000610352</ele>
        <time>2016-05-25T12:41:56Z</time>
      </trkpt>
      <trkpt lat="43.43354" lon="6.05145">
        <ele>261.60000610352</ele>
        <time>2016-05-25T12:42:06Z</time>
      </trkpt>
      <trkpt lat="43.43354" lon="6.05145">
        <ele>261.39999389648</ele>
        <time>2016-05-25T12:42:08Z</time>
      </trkpt>
      <trkpt lat="43.43355" lon="6.05148">
        <ele>261.60000610352</ele>
        <time>2016-05-25T12:42:15Z</time>
      </trkpt>
      <trkpt lat="43.43355" lon="6.05149">
        <ele>261.60000610352</ele>
        <time>2016-05-25T12:42:16Z</time>
      </trkpt>
      <trkpt lat="43.43357" lon="6.0515">
        <ele>261.20001220703</ele>
        <time>2016-05-25T12:42:22Z</time>
      </trkpt>
      <trkpt lat="43.43359" lon="6.05149">
        <ele>261.20001220703</ele>
        <time>2016-05-25T12:42:23Z</time>
      </trkpt>
      <trkpt lat="43.43359" lon="6.05148">
        <ele>261.20001220703</ele>
        <time>2016-05-25T12:42:24Z</time>
      </trkpt>
      <trkpt lat="43.43361" lon="6.05145">
        <ele>261.20001220703</ele>
        <time>2016-05-25T12:42:28Z</time>
      </trkpt>
      <trkpt lat="43.43361" lon="6.05145">
        <ele>261</ele>
        <time>2016-05-25T12:42:34Z</time>
      </trkpt>
      <trkpt lat="43.43361" lon="6.05145">
        <ele>261.20001220703</ele>
        <time>2016-05-25T12:42:40Z</time>
      </trkpt>
      <trkpt lat="43.43361" lon="6.05145">
        <ele>261</ele>
        <time>2016-05-25T12:42:52Z</time>
      </trkpt>
      <trkpt lat="43.43362" lon="6.05145">
        <ele>261.20001220703</ele>
        <time>2016-05-25T12:43:01Z</time>
      </trkpt>
      <trkpt lat="43.4337" lon="6.05147">
        <ele>261</ele>
        <time>2016-05-25T12:43:06Z</time>
      </trkpt>
      <trkpt lat="43.43381" lon="6.05142">
        <ele>261.39999389648</ele>
        <time>2016-05-25T12:43:11Z</time>
      </trkpt>
      <trkpt lat="43.43382" lon="6.0514">
        <ele>261.79998779297</ele>
        <time>2016-05-25T12:43:12Z</time>
      </trkpt>
      <trkpt lat="43.43388" lon="6.05126">
        <ele>262.39999389648</ele>
        <time>2016-05-25T12:43:17Z</time>
      </trkpt>
      <trkpt lat="43.43392" lon="6.05115">
        <ele>262.60000610352</ele>
        <time>2016-05-25T12:43:21Z</time>
      </trkpt>
      <trkpt lat="43.43394" lon="6.05112">
        <ele>262.79998779297</ele>
        <time>2016-05-25T12:43:22Z</time>
      </trkpt>
      <trkpt lat="43.43402" lon="6.05086">
        <ele>262.79998779297</ele>
        <time>2016-05-25T12:43:29Z</time>
      </trkpt>
      <trkpt lat="43.43408" lon="6.05062">
        <ele>262.60000610352</ele>
        <time>2016-05-25T12:43:34Z</time>
      </trkpt>
      <trkpt lat="43.4341" lon="6.05056">
        <ele>262.20001220703</ele>
        <time>2016-05-25T12:43:35Z</time>
      </trkpt>
      <trkpt lat="43.43411" lon="6.05049">
        <ele>261.60000610352</ele>
        <time>2016-05-25T12:43:36Z</time>
      </trkpt>
      <trkpt lat="43.43417" lon="6.05018">
        <ele>260.39999389648</ele>
        <time>2016-05-25T12:43:40Z</time>
      </trkpt>
      <trkpt lat="43.4342" lon="6.05002">
        <ele>259.60000610352</ele>
        <time>2016-05-25T12:43:42Z</time>
      </trkpt>
      <trkpt lat="43.43427" lon="6.04962">
        <ele>259.20001220703</ele>
        <time>2016-05-25T12:43:47Z</time>
      </trkpt>
      <trkpt lat="43.43431" lon="6.04918">
        <ele>258.79998779297</ele>
        <time>2016-05-25T12:43:53Z</time>
      </trkpt>
      <trkpt lat="43.43434" lon="6.04892">
        <ele>259.39999389648</ele>
        <time>2016-05-25T12:43:57Z</time>
      </trkpt>
      <trkpt lat="43.43435" lon="6.04868">
        <ele>259.79998779297</ele>
        <time>2016-05-25T12:44:01Z</time>
      </trkpt>
      <trkpt lat="43.43436" lon="6.04862">
        <ele>260</ele>
        <time>2016-05-25T12:44:02Z</time>
      </trkpt>
      <trkpt lat="43.43436" lon="6.04851">
        <ele>260</ele>
        <time>2016-05-25T12:44:04Z</time>
      </trkpt>
      <trkpt lat="43.43436" lon="6.04839">
        <ele>260.20001220703</ele>
        <time>2016-05-25T12:44:06Z</time>
      </trkpt>
      <trkpt lat="43.43436" lon="6.04828">
        <ele>260.20001220703</ele>
        <time>2016-05-25T12:44:08Z</time>
      </trkpt>
      <trkpt lat="43.43437" lon="6.04811">
        <ele>260.60000610352</ele>
        <time>2016-05-25T12:44:11Z</time>
      </trkpt>
      <trkpt lat="43.43437" lon="6.04806">
        <ele>260.60000610352</ele>
        <time>2016-05-25T12:44:12Z</time>
      </trkpt>
      <trkpt lat="43.43441" lon="6.04769">
        <ele>261</ele>
        <time>2016-05-25T12:44:19Z</time>
      </trkpt>
      <trkpt lat="43.43442" lon="6.04746">
        <ele>261.79998779297</ele>
        <time>2016-05-25T12:44:24Z</time>
      </trkpt>
      <trkpt lat="43.43443" lon="6.04741">
        <ele>262</ele>
        <time>2016-05-25T12:44:25Z</time>
      </trkpt>
      <trkpt lat="43.43446" lon="6.04712">
        <ele>262.39999389648</ele>
        <time>2016-05-25T12:44:31Z</time>
      </trkpt>
      <trkpt lat="43.43449" lon="6.04691">
        <ele>262.60000610352</ele>
        <time>2016-05-25T12:44:35Z</time>
      </trkpt>
      <trkpt lat="43.4345" lon="6.04687">
        <ele>262.39999389648</ele>
        <time>2016-05-25T12:44:36Z</time>
      </trkpt>
      <trkpt lat="43.43452" lon="6.04678">
        <ele>262.39999389648</ele>
        <time>2016-05-25T12:44:39Z</time>
      </trkpt>
      <trkpt lat="43.43451" lon="6.04676">
        <ele>262.39999389648</ele>
        <time>2016-05-25T12:44:40Z</time>
      </trkpt>
      <trkpt lat="43.43453" lon="6.04664">
        <ele>262.39999389648</ele>
        <time>2016-05-25T12:44:44Z</time>
      </trkpt>
      <trkpt lat="43.43454" lon="6.0466">
        <ele>262.39999389648</ele>
        <time>2016-05-25T12:44:45Z</time>
      </trkpt>
      <trkpt lat="43.43456" lon="6.04646">
        <ele>262.39999389648</ele>
        <time>2016-05-25T12:44:49Z</time>
      </trkpt>
      <trkpt lat="43.43457" lon="6.04642">
        <ele>262.60000610352</ele>
        <time>2016-05-25T12:44:50Z</time>
      </trkpt>
      <trkpt lat="43.43457" lon="6.04634">
        <ele>262.79998779297</ele>
        <time>2016-05-25T12:44:52Z</time>
      </trkpt>
      <trkpt lat="43.43457" lon="6.0463">
        <ele>262.79998779297</ele>
        <time>2016-05-25T12:44:53Z</time>
      </trkpt>
      <trkpt lat="43.4346" lon="6.04612">
        <ele>263.39999389648</ele>
        <time>2016-05-25T12:44:57Z</time>
      </trkpt>
      <trkpt lat="43.43462" lon="6.04599">
        <ele>263.60000610352</ele>
        <time>2016-05-25T12:45:00Z</time>
      </trkpt>
      <trkpt lat="43.43465" lon="6.04573">
        <ele>264</ele>
        <time>2016-05-25T12:45:06Z</time>
      </trkpt>
      <trkpt lat="43.43465" lon="6.04564">
        <ele>264.20001220703</ele>
        <time>2016-05-25T12:45:08Z</time>
      </trkpt>
      <trkpt lat="43.4347" lon="6.04546">
        <ele>264.39999389648</ele>
        <time>2016-05-25T12:45:12Z</time>
      </trkpt>
      <trkpt lat="43.43485" lon="6.04509">
        <ele>263.79998779297</ele>
        <time>2016-05-25T12:45:20Z</time>
      </trkpt>
      <trkpt lat="43.43486" lon="6.04504">
        <ele>263.79998779297</ele>
        <time>2016-05-25T12:45:21Z</time>
      </trkpt>
      <trkpt lat="43.43489" lon="6.04475">
        <ele>264</ele>
        <time>2016-05-25T12:45:26Z</time>
      </trkpt>
      <trkpt lat="43.43488" lon="6.04469">
        <ele>264</ele>
        <time>2016-05-25T12:45:27Z</time>
      </trkpt>
      <trkpt lat="43.43489" lon="6.04447">
        <ele>264.20001220703</ele>
        <time>2016-05-25T12:45:31Z</time>
      </trkpt>
      <trkpt lat="43.43489" lon="6.04427">
        <ele>264.20001220703</ele>
        <time>2016-05-25T12:45:35Z</time>
      </trkpt>
      <trkpt lat="43.43486" lon="6.04391">
        <ele>264.39999389648</ele>
        <time>2016-05-25T12:45:42Z</time>
      </trkpt>
      <trkpt lat="43.43488" lon="6.04364">
        <ele>265.20001220703</ele>
        <time>2016-05-25T12:45:48Z</time>
      </trkpt>
      <trkpt lat="43.4349" lon="6.04347">
        <ele>265.20001220703</ele>
        <time>2016-05-25T12:45:52Z</time>
      </trkpt>
      <trkpt lat="43.43491" lon="6.04328">
        <ele>265.39999389648</ele>
        <time>2016-05-25T12:45:56Z</time>
      </trkpt>
      <trkpt lat="43.43493" lon="6.04317">
        <ele>265.20001220703</ele>
        <time>2016-05-25T12:45:58Z</time>
      </trkpt>
      <trkpt lat="43.43496" lon="6.04296">
        <ele>264.60000610352</ele>
        <time>2016-05-25T12:46:02Z</time>
      </trkpt>
      <trkpt lat="43.43497" lon="6.0429">
        <ele>264.39999389648</ele>
        <time>2016-05-25T12:46:03Z</time>
      </trkpt>
      <trkpt lat="43.435" lon="6.04275">
        <ele>264.39999389648</ele>
        <time>2016-05-25T12:46:06Z</time>
      </trkpt>
      <trkpt lat="43.43505" lon="6.04261">
        <ele>264.39999389648</ele>
        <time>2016-05-25T12:46:09Z</time>
      </trkpt>
      <trkpt lat="43.43511" lon="6.04251">
        <ele>264.39999389648</ele>
        <time>2016-05-25T12:46:12Z</time>
      </trkpt>
      <trkpt lat="43.43513" lon="6.04247">
        <ele>264.20001220703</ele>
        <time>2016-05-25T12:46:13Z</time>
      </trkpt>
      <trkpt lat="43.43515" lon="6.04244">
        <ele>264</ele>
        <time>2016-05-25T12:46:14Z</time>
      </trkpt>
      <trkpt lat="43.43528" lon="6.04235">
        <ele>263.79998779297</ele>
        <time>2016-05-25T12:46:18Z</time>
      </trkpt>
      <trkpt lat="43.4354" lon="6.04215">
        <ele>263.60000610352</ele>
        <time>2016-05-25T12:46:23Z</time>
      </trkpt>
      <trkpt lat="43.43541" lon="6.0419">
        <ele>263.39999389648</ele>
        <time>2016-05-25T12:46:28Z</time>
      </trkpt>
      <trkpt lat="43.43537" lon="6.04177">
        <ele>264</ele>
        <time>2016-05-25T12:46:31Z</time>
      </trkpt>
      <trkpt lat="43.43535" lon="6.0417">
        <ele>265.20001220703</ele>
        <time>2016-05-25T12:46:33Z</time>
      </trkpt>
      <trkpt lat="43.43537" lon="6.04158">
        <ele>265.60000610352</ele>
        <time>2016-05-25T12:46:36Z</time>
      </trkpt>
      <trkpt lat="43.43539" lon="6.0415">
        <ele>265.60000610352</ele>
        <time>2016-05-25T12:46:38Z</time>
      </trkpt>
      <trkpt lat="43.43551" lon="6.04127">
        <ele>266</ele>
        <time>2016-05-25T12:46:45Z</time>
      </trkpt>
      <trkpt lat="43.43557" lon="6.04108">
        <ele>266</ele>
        <time>2016-05-25T12:46:49Z</time>
      </trkpt>
      <trkpt lat="43.43563" lon="6.04089">
        <ele>265.79998779297</ele>
        <time>2016-05-25T12:46:53Z</time>
      </trkpt>
      <trkpt lat="43.43575" lon="6.0406">
        <ele>266.20001220703</ele>
        <time>2016-05-25T12:47:00Z</time>
      </trkpt>
      <trkpt lat="43.43584" lon="6.04044">
        <ele>267</ele>
        <time>2016-05-25T12:47:06Z</time>
      </trkpt>
      <trkpt lat="43.43586" lon="6.04041">
        <ele>267.20001220703</ele>
        <time>2016-05-25T12:47:07Z</time>
      </trkpt>
      <trkpt lat="43.43594" lon="6.04028">
        <ele>268.39999389648</ele>
        <time>2016-05-25T12:47:12Z</time>
      </trkpt>
      <trkpt lat="43.436" lon="6.04017">
        <ele>269.20001220703</ele>
        <time>2016-05-25T12:47:16Z</time>
      </trkpt>
      <trkpt lat="43.43602" lon="6.0401">
        <ele>269.39999389648</ele>
        <time>2016-05-25T12:47:18Z</time>
      </trkpt>
      <trkpt lat="43.43603" lon="6.04008">
        <ele>269.60000610352</ele>
        <time>2016-05-25T12:47:19Z</time>
      </trkpt>
      <trkpt lat="43.43605" lon="6.04">
        <ele>270</ele>
        <time>2016-05-25T12:47:22Z</time>
      </trkpt>
      <trkpt lat="43.43607" lon="6.03993">
        <ele>270</ele>
        <time>2016-05-25T12:47:25Z</time>
      </trkpt>
      <trkpt lat="43.43607" lon="6.03992">
        <ele>269.79998779297</ele>
        <time>2016-05-25T12:47:28Z</time>
      </trkpt>
      <trkpt lat="43.43606" lon="6.03991">
        <ele>269.60000610352</ele>
        <time>2016-05-25T12:47:30Z</time>
      </trkpt>
      <trkpt lat="43.43606" lon="6.03991">
        <ele>269.60000610352</ele>
        <time>2016-05-25T12:47:34Z</time>
      </trkpt>
      <trkpt lat="43.43606" lon="6.03991">
        <ele>269.79998779297</ele>
        <time>2016-05-25T12:47:45Z</time>
      </trkpt>
      <trkpt lat="43.43606" lon="6.03991">
        <ele>269.79998779297</ele>
        <time>2016-05-25T12:47:47Z</time>
      </trkpt>
      <trkpt lat="43.43606" lon="6.03991">
        <ele>269.79998779297</ele>
        <time>2016-05-25T12:47:51Z</time>
      </trkpt>
      <trkpt lat="43.43606" lon="6.03991">
        <ele>269.60000610352</ele>
        <time>2016-05-25T12:47:56Z</time>
      </trkpt>
      <trkpt lat="43.43606" lon="6.03991">
        <ele>269.60000610352</ele>
        <time>2016-05-25T12:48:01Z</time>
      </trkpt>
      <trkpt lat="43.43606" lon="6.03991">
        <ele>269.79998779297</ele>
        <time>2016-05-25T12:48:15Z</time>
      </trkpt>
      <trkpt lat="43.43607" lon="6.0399">
        <ele>270</ele>
        <time>2016-05-25T12:48:25Z</time>
      </trkpt>
      <trkpt lat="43.43607" lon="6.03986">
        <ele>269.79998779297</ele>
        <time>2016-05-25T12:48:27Z</time>
      </trkpt>
      <trkpt lat="43.43607" lon="6.03978">
        <ele>269.60000610352</ele>
        <time>2016-05-25T12:48:30Z</time>
      </trkpt>
      <trkpt lat="43.43608" lon="6.03963">
        <ele>268.79998779297</ele>
        <time>2016-05-25T12:48:33Z</time>
      </trkpt>
      <trkpt lat="43.43608" lon="6.03956">
        <ele>268.20001220703</ele>
        <time>2016-05-25T12:48:34Z</time>
      </trkpt>
      <trkpt lat="43.43607" lon="6.03949">
        <ele>267.60000610352</ele>
        <time>2016-05-25T12:48:35Z</time>
      </trkpt>
      <trkpt lat="43.436" lon="6.03931">
        <ele>267.20001220703</ele>
        <time>2016-05-25T12:48:38Z</time>
      </trkpt>
      <trkpt lat="43.43599" lon="6.03926">
        <ele>267.20001220703</ele>
        <time>2016-05-25T12:48:39Z</time>
      </trkpt>
      <trkpt lat="43.43592" lon="6.03903">
        <ele>267.39999389648</ele>
        <time>2016-05-25T12:48:44Z</time>
      </trkpt>
      <trkpt lat="43.43591" lon="6.03891">
        <ele>267.60000610352</ele>
        <time>2016-05-25T12:48:47Z</time>
      </trkpt>
      <trkpt lat="43.43591" lon="6.03884">
        <ele>268.20001220703</ele>
        <time>2016-05-25T12:48:49Z</time>
      </trkpt>
      <trkpt lat="43.4359" lon="6.03872">
        <ele>268.60000610352</ele>
        <time>2016-05-25T12:48:52Z</time>
      </trkpt>
      <trkpt lat="43.4359" lon="6.03869">
        <ele>268.79998779297</ele>
        <time>2016-05-25T12:48:53Z</time>
      </trkpt>
      <trkpt lat="43.4359" lon="6.03866">
        <ele>269</ele>
        <time>2016-05-25T12:48:54Z</time>
      </trkpt>
      <trkpt lat="43.43589" lon="6.03856">
        <ele>269.60000610352</ele>
        <time>2016-05-25T12:48:57Z</time>
      </trkpt>
      <trkpt lat="43.43588" lon="6.03849">
        <ele>269.60000610352</ele>
        <time>2016-05-25T12:48:59Z</time>
      </trkpt>
      <trkpt lat="43.43586" lon="6.03837">
        <ele>270</ele>
        <time>2016-05-25T12:49:02Z</time>
      </trkpt>
      <trkpt lat="43.43584" lon="6.03829">
        <ele>270.20001220703</ele>
        <time>2016-05-25T12:49:04Z</time>
      </trkpt>
      <trkpt lat="43.43579" lon="6.03815">
        <ele>271</ele>
        <time>2016-05-25T12:49:08Z</time>
      </trkpt>
      <trkpt lat="43.43576" lon="6.03808">
        <ele>271.39999389648</ele>
        <time>2016-05-25T12:49:10Z</time>
      </trkpt>
      <trkpt lat="43.43572" lon="6.03796">
        <ele>271.60000610352</ele>
        <time>2016-05-25T12:49:16Z</time>
      </trkpt>
      <trkpt lat="43.4357" lon="6.03785">
        <ele>271.39999389648</ele>
        <time>2016-05-25T12:49:22Z</time>
      </trkpt>
      <trkpt lat="43.43571" lon="6.03782">
        <ele>271.39999389648</ele>
        <time>2016-05-25T12:49:28Z</time>
      </trkpt>
      <trkpt lat="43.43575" lon="6.03767">
        <ele>271.39999389648</ele>
        <time>2016-05-25T12:49:33Z</time>
      </trkpt>
      <trkpt lat="43.43576" lon="6.03752">
        <ele>270.79998779297</ele>
        <time>2016-05-25T12:49:37Z</time>
      </trkpt>
      <trkpt lat="43.43576" lon="6.03741">
        <ele>270.39999389648</ele>
        <time>2016-05-25T12:49:39Z</time>
      </trkpt>
      <trkpt lat="43.43575" lon="6.03725">
        <ele>270.20001220703</ele>
        <time>2016-05-25T12:49:42Z</time>
      </trkpt>
      <trkpt lat="43.43576" lon="6.03713">
        <ele>270</ele>
        <time>2016-05-25T12:49:44Z</time>
      </trkpt>
      <trkpt lat="43.43576" lon="6.03707">
        <ele>270</ele>
        <time>2016-05-25T12:49:45Z</time>
      </trkpt>
      <trkpt lat="43.4358" lon="6.03682">
        <ele>269.39999389648</ele>
        <time>2016-05-25T12:49:50Z</time>
      </trkpt>
      <trkpt lat="43.43576" lon="6.03673">
        <ele>269.79998779297</ele>
        <time>2016-05-25T12:49:54Z</time>
      </trkpt>
      <trkpt lat="43.43575" lon="6.03671">
        <ele>270</ele>
        <time>2016-05-25T12:49:55Z</time>
      </trkpt>
      <trkpt lat="43.43579" lon="6.03661">
        <ele>270.60000610352</ele>
        <time>2016-05-25T12:49:59Z</time>
      </trkpt>
      <trkpt lat="43.43583" lon="6.03637">
        <ele>270</ele>
        <time>2016-05-25T12:50:04Z</time>
      </trkpt>
      <trkpt lat="43.43583" lon="6.03603">
        <ele>269.39999389648</ele>
        <time>2016-05-25T12:50:11Z</time>
      </trkpt>
      <trkpt lat="43.43587" lon="6.03573">
        <ele>269.20001220703</ele>
        <time>2016-05-25T12:50:17Z</time>
      </trkpt>
      <trkpt lat="43.43597" lon="6.03556">
        <ele>269.60000610352</ele>
        <time>2016-05-25T12:50:22Z</time>
      </trkpt>
      <trkpt lat="43.43604" lon="6.03543">
        <ele>269.79998779297</ele>
        <time>2016-05-25T12:50:25Z</time>
      </trkpt>
      <trkpt lat="43.43607" lon="6.03533">
        <ele>269.79998779297</ele>
        <time>2016-05-25T12:50:27Z</time>
      </trkpt>
      <trkpt lat="43.43615" lon="6.035">
        <ele>270</ele>
        <time>2016-05-25T12:50:33Z</time>
      </trkpt>
      <trkpt lat="43.43618" lon="6.03486">
        <ele>270.20001220703</ele>
        <time>2016-05-25T12:50:37Z</time>
      </trkpt>
      <trkpt lat="43.43621" lon="6.03475">
        <ele>270.20001220703</ele>
        <time>2016-05-25T12:50:39Z</time>
      </trkpt>
      <trkpt lat="43.43621" lon="6.03475">
        <ele>270.60000610352</ele>
        <time>2016-05-25T12:50:40Z</time>
      </trkpt>
      <trkpt lat="43.43628" lon="6.03449">
        <ele>271.60000610352</ele>
        <time>2016-05-25T12:50:46Z</time>
      </trkpt>
      <trkpt lat="43.43628" lon="6.03444">
        <ele>271.39999389648</ele>
        <time>2016-05-25T12:50:47Z</time>
      </trkpt>
      <trkpt lat="43.43629" lon="6.0344">
        <ele>271.39999389648</ele>
        <time>2016-05-25T12:50:48Z</time>
      </trkpt>
      <trkpt lat="43.43629" lon="6.03436">
        <ele>271.39999389648</ele>
        <time>2016-05-25T12:50:49Z</time>
      </trkpt>
      <trkpt lat="43.43629" lon="6.03428">
        <ele>271.79998779297</ele>
        <time>2016-05-25T12:50:51Z</time>
      </trkpt>
      <trkpt lat="43.43629" lon="6.0342">
        <ele>272</ele>
        <time>2016-05-25T12:50:53Z</time>
      </trkpt>
      <trkpt lat="43.43629" lon="6.03401">
        <ele>272</ele>
        <time>2016-05-25T12:50:57Z</time>
      </trkpt>
      <trkpt lat="43.4363" lon="6.03396">
        <ele>271.79998779297</ele>
        <time>2016-05-25T12:50:58Z</time>
      </trkpt>
      <trkpt lat="43.43635" lon="6.03389">
        <ele>271.79998779297</ele>
        <time>2016-05-25T12:51:00Z</time>
      </trkpt>
      <trkpt lat="43.43639" lon="6.0338">
        <ele>272</ele>
        <time>2016-05-25T12:51:02Z</time>
      </trkpt>
      <trkpt lat="43.43647" lon="6.03362">
        <ele>272.20001220703</ele>
        <time>2016-05-25T12:51:07Z</time>
      </trkpt>
      <trkpt lat="43.43658" lon="6.03341">
        <ele>272.39999389648</ele>
        <time>2016-05-25T12:51:13Z</time>
      </trkpt>
      <trkpt lat="43.43664" lon="6.03328">
        <ele>271.39999389648</ele>
        <time>2016-05-25T12:51:16Z</time>
      </trkpt>
      <trkpt lat="43.43665" lon="6.03318">
        <ele>271.20001220703</ele>
        <time>2016-05-25T12:51:18Z</time>
      </trkpt>
      <trkpt lat="43.43669" lon="6.03308">
        <ele>271</ele>
        <time>2016-05-25T12:51:21Z</time>
      </trkpt>
      <trkpt lat="43.43676" lon="6.03299">
        <ele>271</ele>
        <time>2016-05-25T12:51:25Z</time>
      </trkpt>
      <trkpt lat="43.43678" lon="6.03297">
        <ele>271.20001220703</ele>
        <time>2016-05-25T12:51:26Z</time>
      </trkpt>
      <trkpt lat="43.43683" lon="6.03283">
        <ele>271.60000610352</ele>
        <time>2016-05-25T12:51:31Z</time>
      </trkpt>
      <trkpt lat="43.43689" lon="6.03264">
        <ele>271.79998779297</ele>
        <time>2016-05-25T12:51:37Z</time>
      </trkpt>
      <trkpt lat="43.43689" lon="6.03262">
        <ele>272</ele>
        <time>2016-05-25T12:51:38Z</time>
      </trkpt>
      <trkpt lat="43.43689" lon="6.03257">
        <ele>272</ele>
        <time>2016-05-25T12:51:39Z</time>
      </trkpt>
      <trkpt lat="43.43688" lon="6.03256">
        <ele>272.20001220703</ele>
        <time>2016-05-25T12:51:42Z</time>
      </trkpt>
      <trkpt lat="43.43688" lon="6.03255">
        <ele>272</ele>
        <time>2016-05-25T12:51:55Z</time>
      </trkpt>
      <trkpt lat="43.43688" lon="6.03255">
        <ele>272</ele>
        <time>2016-05-25T12:51:59Z</time>
      </trkpt>
      <trkpt lat="43.43688" lon="6.03255">
        <ele>272.20001220703</ele>
        <time>2016-05-25T12:52:19Z</time>
      </trkpt>
      <trkpt lat="43.43688" lon="6.03255">
        <ele>272.20001220703</ele>
        <time>2016-05-25T12:52:20Z</time>
      </trkpt>
      <trkpt lat="43.43688" lon="6.03255">
        <ele>272</ele>
        <time>2016-05-25T12:52:30Z</time>
      </trkpt>
      <trkpt lat="43.43688" lon="6.03255">
        <ele>272.20001220703</ele>
        <time>2016-05-25T12:52:42Z</time>
      </trkpt>
      <trkpt lat="43.43689" lon="6.03256">
        <ele>271.79998779297</ele>
        <time>2016-05-25T12:52:59Z</time>
      </trkpt>
      <trkpt lat="43.4369" lon="6.03255">
        <ele>271.79998779297</ele>
        <time>2016-05-25T12:53:07Z</time>
      </trkpt>
      <trkpt lat="43.43692" lon="6.03254">
        <ele>271.79998779297</ele>
        <time>2016-05-25T12:53:08Z</time>
      </trkpt>
      <trkpt lat="43.43695" lon="6.0325">
        <ele>271.60000610352</ele>
        <time>2016-05-25T12:53:10Z</time>
      </trkpt>
      <trkpt lat="43.437" lon="6.03247">
        <ele>271.39999389648</ele>
        <time>2016-05-25T12:53:13Z</time>
      </trkpt>
      <trkpt lat="43.43702" lon="6.03247">
        <ele>270.79998779297</ele>
        <time>2016-05-25T12:53:15Z</time>
      </trkpt>
      <trkpt lat="43.43707" lon="6.03249">
        <ele>269.79998779297</ele>
        <time>2016-05-25T12:53:18Z</time>
      </trkpt>
      <trkpt lat="43.43709" lon="6.03251">
        <ele>269</ele>
        <time>2016-05-25T12:53:20Z</time>
      </trkpt>
      <trkpt lat="43.43711" lon="6.03255">
        <ele>269</ele>
        <time>2016-05-25T12:53:21Z</time>
      </trkpt>
      <trkpt lat="43.43715" lon="6.03263">
        <ele>268.20001220703</ele>
        <time>2016-05-25T12:53:26Z</time>
      </trkpt>
      <trkpt lat="43.43721" lon="6.03268">
        <ele>268</ele>
        <time>2016-05-25T12:53:30Z</time>
      </trkpt>
      <trkpt lat="43.43722" lon="6.03269">
        <ele>267.79998779297</ele>
        <time>2016-05-25T12:53:31Z</time>
      </trkpt>
      <trkpt lat="43.43726" lon="6.03274">
        <ele>267.60000610352</ele>
        <time>2016-05-25T12:53:35Z</time>
      </trkpt>
      <trkpt lat="43.43727" lon="6.03275">
        <ele>267.60000610352</ele>
        <time>2016-05-25T12:53:36Z</time>
      </trkpt>
      <trkpt lat="43.43734" lon="6.03277">
        <ele>267.60000610352</ele>
        <time>2016-05-25T12:53:40Z</time>
      </trkpt>
      <trkpt lat="43.43736" lon="6.03277">
        <ele>267.79998779297</ele>
        <time>2016-05-25T12:53:46Z</time>
      </trkpt>
      <trkpt lat="43.43736" lon="6.03277">
        <ele>267.79998779297</ele>
        <time>2016-05-25T12:53:50Z</time>
      </trkpt>
      <trkpt lat="43.43736" lon="6.03277">
        <ele>267.60000610352</ele>
        <time>2016-05-25T12:53:55Z</time>
      </trkpt>
      <trkpt lat="43.43736" lon="6.03277">
        <ele>267.79998779297</ele>
        <time>2016-05-25T12:53:59Z</time>
      </trkpt>
      <trkpt lat="43.43736" lon="6.03277">
        <ele>267.60000610352</ele>
        <time>2016-05-25T12:54:11Z</time>
      </trkpt>
      <trkpt lat="43.43736" lon="6.03276">
        <ele>267.60000610352</ele>
        <time>2016-05-25T12:54:18Z</time>
      </trkpt>
      <trkpt lat="43.43736" lon="6.03274">
        <ele>267.60000610352</ele>
        <time>2016-05-25T12:54:24Z</time>
      </trkpt>
      <trkpt lat="43.43736" lon="6.03274">
        <ele>267.60000610352</ele>
        <time>2016-05-25T12:54:28Z</time>
      </trkpt>
      <trkpt lat="43.43736" lon="6.03274">
        <ele>267.39999389648</ele>
        <time>2016-05-25T12:54:43Z</time>
      </trkpt>
      <trkpt lat="43.4373" lon="6.03272">
        <ele>267.39999389648</ele>
        <time>2016-05-25T12:54:51Z</time>
      </trkpt>
      <trkpt lat="43.43727" lon="6.03268">
        <ele>267.60000610352</ele>
        <time>2016-05-25T12:54:53Z</time>
      </trkpt>
      <trkpt lat="43.43726" lon="6.03265">
        <ele>267.60000610352</ele>
        <time>2016-05-25T12:54:55Z</time>
      </trkpt>
      <trkpt lat="43.43726" lon="6.03265">
        <ele>267.60000610352</ele>
        <time>2016-05-25T12:54:56Z</time>
      </trkpt>
      <trkpt lat="43.43722" lon="6.03263">
        <ele>267.39999389648</ele>
        <time>2016-05-25T12:54:59Z</time>
      </trkpt>
      <trkpt lat="43.43722" lon="6.03263">
        <ele>267.60000610352</ele>
        <time>2016-05-25T12:55:01Z</time>
      </trkpt>
      <trkpt lat="43.43723" lon="6.03263">
        <ele>267.20001220703</ele>
        <time>2016-05-25T12:55:10Z</time>
      </trkpt>
      <trkpt lat="43.43723" lon="6.03263">
        <ele>267.39999389648</ele>
        <time>2016-05-25T12:55:18Z</time>
      </trkpt>
      <trkpt lat="43.43723" lon="6.03262">
        <ele>267.39999389648</ele>
        <time>2016-05-25T12:55:21Z</time>
      </trkpt>
      <trkpt lat="43.4372" lon="6.03258">
        <ele>267.60000610352</ele>
        <time>2016-05-25T12:55:24Z</time>
      </trkpt>
      <trkpt lat="43.43716" lon="6.03251">
        <ele>267.79998779297</ele>
        <time>2016-05-25T12:55:27Z</time>
      </trkpt>
      <trkpt lat="43.4371" lon="6.03245">
        <ele>268.60000610352</ele>
        <time>2016-05-25T12:55:33Z</time>
      </trkpt>
      <trkpt lat="43.43708" lon="6.03245">
        <ele>268.79998779297</ele>
        <time>2016-05-25T12:55:34Z</time>
      </trkpt>
      <trkpt lat="43.43704" lon="6.03243">
        <ele>270</ele>
        <time>2016-05-25T12:55:37Z</time>
      </trkpt>
      <trkpt lat="43.43703" lon="6.03243">
        <ele>270.39999389648</ele>
        <time>2016-05-25T12:55:38Z</time>
      </trkpt>
      <trkpt lat="43.43702" lon="6.03243">
        <ele>270.39999389648</ele>
        <time>2016-05-25T12:55:39Z</time>
      </trkpt>
      <trkpt lat="43.437" lon="6.03243">
        <ele>270.60000610352</ele>
        <time>2016-05-25T12:55:40Z</time>
      </trkpt>
      <trkpt lat="43.43699" lon="6.03243">
        <ele>270.60000610352</ele>
        <time>2016-05-25T12:55:41Z</time>
      </trkpt>
      <trkpt lat="43.43697" lon="6.03244">
        <ele>270.60000610352</ele>
        <time>2016-05-25T12:55:42Z</time>
      </trkpt>
      <trkpt lat="43.43693" lon="6.03243">
        <ele>270.79998779297</ele>
        <time>2016-05-25T12:55:45Z</time>
      </trkpt>
      <trkpt lat="43.43692" lon="6.03242">
        <ele>271.20001220703</ele>
        <time>2016-05-25T12:55:47Z</time>
      </trkpt>
      <trkpt lat="43.43692" lon="6.03241">
        <ele>271.39999389648</ele>
        <time>2016-05-25T12:55:50Z</time>
      </trkpt>
      <trkpt lat="43.4369" lon="6.03241">
        <ele>272</ele>
        <time>2016-05-25T12:55:59Z</time>
      </trkpt>
      <trkpt lat="43.43689" lon="6.0324">
        <ele>272.20001220703</ele>
        <time>2016-05-25T12:56:06Z</time>
      </trkpt>
      <trkpt lat="43.43689" lon="6.0324">
        <ele>272</ele>
        <time>2016-05-25T12:56:10Z</time>
      </trkpt>
      <trkpt lat="43.43689" lon="6.0324">
        <ele>272</ele>
        <time>2016-05-25T12:56:23Z</time>
      </trkpt>
      <trkpt lat="43.43689" lon="6.0324">
        <ele>272</ele>
        <time>2016-05-25T12:56:27Z</time>
      </trkpt>
      <trkpt lat="43.43689" lon="6.0324">
        <ele>272</ele>
        <time>2016-05-25T12:56:29Z</time>
      </trkpt>
      <trkpt lat="43.43689" lon="6.0324">
        <ele>272</ele>
        <time>2016-05-25T12:56:31Z</time>
      </trkpt>
      <trkpt lat="43.43689" lon="6.0324">
        <ele>271.79998779297</ele>
        <time>2016-05-25T12:56:34Z</time>
      </trkpt>
      <trkpt lat="43.43689" lon="6.0324">
        <ele>271.79998779297</ele>
        <time>2016-05-25T12:56:38Z</time>
      </trkpt>
      <trkpt lat="43.43689" lon="6.0324">
        <ele>271.79998779297</ele>
        <time>2016-05-25T12:56:48Z</time>
      </trkpt>
      <trkpt lat="43.43689" lon="6.0324">
        <ele>272</ele>
        <time>2016-05-25T12:56:51Z</time>
      </trkpt>
      <trkpt lat="43.4369" lon="6.0324">
        <ele>271.79998779297</ele>
        <time>2016-05-25T12:56:55Z</time>
      </trkpt>
      <trkpt lat="43.43689" lon="6.0324">
        <ele>271.79998779297</ele>
        <time>2016-05-25T12:57:02Z</time>
      </trkpt>
      <trkpt lat="43.43689" lon="6.03239">
        <ele>272</ele>
        <time>2016-05-25T12:57:21Z</time>
      </trkpt>
      <trkpt lat="43.43689" lon="6.03239">
        <ele>272</ele>
        <time>2016-05-25T12:57:27Z</time>
      </trkpt>
      <trkpt lat="43.43689" lon="6.03239">
        <ele>272</ele>
        <time>2016-05-25T12:57:34Z</time>
      </trkpt>
      <trkpt lat="43.43689" lon="6.03238">
        <ele>272</ele>
        <time>2016-05-25T12:57:40Z</time>
      </trkpt>
      <trkpt lat="43.43687" lon="6.03234">
        <ele>272</ele>
        <time>2016-05-25T12:57:42Z</time>
      </trkpt>
      <trkpt lat="43.43686" lon="6.03229">
        <ele>272</ele>
        <time>2016-05-25T12:57:45Z</time>
      </trkpt>
      <trkpt lat="43.43687" lon="6.03222">
        <ele>272</ele>
        <time>2016-05-25T12:57:48Z</time>
      </trkpt>
      <trkpt lat="43.43692" lon="6.03199">
        <ele>272.60000610352</ele>
        <time>2016-05-25T12:57:57Z</time>
      </trkpt>
      <trkpt lat="43.43694" lon="6.03185">
        <ele>272.39999389648</ele>
        <time>2016-05-25T12:58:01Z</time>
      </trkpt>
      <trkpt lat="43.43694" lon="6.03178">
        <ele>272.20001220703</ele>
        <time>2016-05-25T12:58:03Z</time>
      </trkpt>
      <trkpt lat="43.43692" lon="6.03159">
        <ele>272.39999389648</ele>
        <time>2016-05-25T12:58:10Z</time>
      </trkpt>
      <trkpt lat="43.43688" lon="6.03148">
        <ele>272.39999389648</ele>
        <time>2016-05-25T12:58:13Z</time>
      </trkpt>
      <trkpt lat="43.4369" lon="6.03143">
        <ele>272.20001220703</ele>
        <time>2016-05-25T12:58:15Z</time>
      </trkpt>
      <trkpt lat="43.43691" lon="6.03137">
        <ele>272</ele>
        <time>2016-05-25T12:58:17Z</time>
      </trkpt>
      <trkpt lat="43.43691" lon="6.0313">
        <ele>272</ele>
        <time>2016-05-25T12:58:20Z</time>
      </trkpt>
      <trkpt lat="43.43694" lon="6.03104">
        <ele>272</ele>
        <time>2016-05-25T12:58:25Z</time>
      </trkpt>
      <trkpt lat="43.43701" lon="6.03079">
        <ele>272</ele>
        <time>2016-05-25T12:58:32Z</time>
      </trkpt>
      <trkpt lat="43.43715" lon="6.03062">
        <ele>272</ele>
        <time>2016-05-25T12:58:38Z</time>
      </trkpt>
      <trkpt lat="43.43736" lon="6.03049">
        <ele>271.20001220703</ele>
        <time>2016-05-25T12:58:44Z</time>
      </trkpt>
      <trkpt lat="43.43753" lon="6.03042">
        <ele>270</ele>
        <time>2016-05-25T12:58:48Z</time>
      </trkpt>
      <trkpt lat="43.4376" lon="6.03036">
        <ele>269.60000610352</ele>
        <time>2016-05-25T12:58:49Z</time>
      </trkpt>
      <trkpt lat="43.43769" lon="6.03017">
        <ele>269</ele>
        <time>2016-05-25T12:58:53Z</time>
      </trkpt>
      <trkpt lat="43.43769" lon="6.03017">
        <ele>269</ele>
        <time>2016-05-25T12:58:54Z</time>
      </trkpt>
      <trkpt lat="43.43782" lon="6.02994">
        <ele>269.20001220703</ele>
        <time>2016-05-25T12:58:59Z</time>
      </trkpt>
      <trkpt lat="43.43783" lon="6.02984">
        <ele>269.20001220703</ele>
        <time>2016-05-25T12:59:01Z</time>
      </trkpt>
      <trkpt lat="43.43783" lon="6.02975">
        <ele>269.20001220703</ele>
        <time>2016-05-25T12:59:03Z</time>
      </trkpt>
      <trkpt lat="43.43788" lon="6.02953">
        <ele>269.60000610352</ele>
        <time>2016-05-25T12:59:09Z</time>
      </trkpt>
      <trkpt lat="43.43794" lon="6.02935">
        <ele>270.20001220703</ele>
        <time>2016-05-25T12:59:15Z</time>
      </trkpt>
      <trkpt lat="43.43792" lon="6.02908">
        <ele>270.79998779297</ele>
        <time>2016-05-25T12:59:21Z</time>
      </trkpt>
      <trkpt lat="43.43794" lon="6.02885">
        <ele>271.20001220703</ele>
        <time>2016-05-25T12:59:27Z</time>
      </trkpt>
      <trkpt lat="43.43795" lon="6.02882">
        <ele>271.39999389648</ele>
        <time>2016-05-25T12:59:29Z</time>
      </trkpt>
      <trkpt lat="43.43805" lon="6.02852">
        <ele>271.39999389648</ele>
        <time>2016-05-25T12:59:36Z</time>
      </trkpt>
      <trkpt lat="43.43809" lon="6.02835">
        <ele>271.39999389648</ele>
        <time>2016-05-25T12:59:39Z</time>
      </trkpt>
      <trkpt lat="43.43809" lon="6.02831">
        <ele>271.39999389648</ele>
        <time>2016-05-25T12:59:41Z</time>
      </trkpt>
      <trkpt lat="43.43807" lon="6.02819">
        <ele>271.60000610352</ele>
        <time>2016-05-25T12:59:43Z</time>
      </trkpt>
      <trkpt lat="43.43805" lon="6.02813">
        <ele>272</ele>
        <time>2016-05-25T12:59:46Z</time>
      </trkpt>
      <trkpt lat="43.43803" lon="6.0281">
        <ele>272.39999389648</ele>
        <time>2016-05-25T12:59:47Z</time>
      </trkpt>
      <trkpt lat="43.43795" lon="6.02798">
        <ele>273</ele>
        <time>2016-05-25T12:59:51Z</time>
      </trkpt>
      <trkpt lat="43.43795" lon="6.02798">
        <ele>273.20001220703</ele>
        <time>2016-05-25T12:59:52Z</time>
      </trkpt>
      <trkpt lat="43.43793" lon="6.02793">
        <ele>273.39999389648</ele>
        <time>2016-05-25T12:59:53Z</time>
      </trkpt>
      <trkpt lat="43.43793" lon="6.02793">
        <ele>273.60000610352</ele>
        <time>2016-05-25T12:59:54Z</time>
      </trkpt>
      <trkpt lat="43.43787" lon="6.02781">
        <ele>273.79998779297</ele>
        <time>2016-05-25T12:59:57Z</time>
      </trkpt>
      <trkpt lat="43.43786" lon="6.02778">
        <ele>273.79998779297</ele>
        <time>2016-05-25T12:59:59Z</time>
      </trkpt>
      <trkpt lat="43.43785" lon="6.02775">
        <ele>273.79998779297</ele>
        <time>2016-05-25T13:00:00Z</time>
      </trkpt>
      <trkpt lat="43.43786" lon="6.02769">
        <ele>274</ele>
        <time>2016-05-25T13:00:02Z</time>
      </trkpt>
      <trkpt lat="43.43787" lon="6.02766">
        <ele>274</ele>
        <time>2016-05-25T13:00:03Z</time>
      </trkpt>
      <trkpt lat="43.43788" lon="6.02757">
        <ele>274.20001220703</ele>
        <time>2016-05-25T13:00:05Z</time>
      </trkpt>
      <trkpt lat="43.43788" lon="6.02757">
        <ele>274.20001220703</ele>
        <time>2016-05-25T13:00:06Z</time>
      </trkpt>
      <trkpt lat="43.43788" lon="6.02741">
        <ele>274.39999389648</ele>
        <time>2016-05-25T13:00:11Z</time>
      </trkpt>
      <trkpt lat="43.43783" lon="6.02726">
        <ele>274.39999389648</ele>
        <time>2016-05-25T13:00:17Z</time>
      </trkpt>
      <trkpt lat="43.43779" lon="6.02725">
        <ele>274.60000610352</ele>
        <time>2016-05-25T13:00:19Z</time>
      </trkpt>
      <trkpt lat="43.43774" lon="6.02723">
        <ele>274.79998779297</ele>
        <time>2016-05-25T13:00:21Z</time>
      </trkpt>
      <trkpt lat="43.43769" lon="6.02718">
        <ele>274.79998779297</ele>
        <time>2016-05-25T13:00:24Z</time>
      </trkpt>
      <trkpt lat="43.43767" lon="6.02714">
        <ele>274.79998779297</ele>
        <time>2016-05-25T13:00:25Z</time>
      </trkpt>
      <trkpt lat="43.43765" lon="6.02709">
        <ele>275.20001220703</ele>
        <time>2016-05-25T13:00:27Z</time>
      </trkpt>
      <trkpt lat="43.43767" lon="6.02705">
        <ele>275.60000610352</ele>
        <time>2016-05-25T13:00:29Z</time>
      </trkpt>
      <trkpt lat="43.43767" lon="6.02705">
        <ele>275.79998779297</ele>
        <time>2016-05-25T13:00:30Z</time>
      </trkpt>
      <trkpt lat="43.4377" lon="6.02704">
        <ele>275.79998779297</ele>
        <time>2016-05-25T13:00:32Z</time>
      </trkpt>
      <trkpt lat="43.43775" lon="6.02702">
        <ele>275.60000610352</ele>
        <time>2016-05-25T13:00:35Z</time>
      </trkpt>
      <trkpt lat="43.43777" lon="6.02701">
        <ele>275.60000610352</ele>
        <time>2016-05-25T13:00:36Z</time>
      </trkpt>
      <trkpt lat="43.43782" lon="6.02692">
        <ele>275.39999389648</ele>
        <time>2016-05-25T13:00:39Z</time>
      </trkpt>
      <trkpt lat="43.43784" lon="6.02689">
        <ele>275.39999389648</ele>
        <time>2016-05-25T13:00:42Z</time>
      </trkpt>
      <trkpt lat="43.43785" lon="6.02687">
        <ele>275</ele>
        <time>2016-05-25T13:00:44Z</time>
      </trkpt>
      <trkpt lat="43.43785" lon="6.02681">
        <ele>275</ele>
        <time>2016-05-25T13:00:47Z</time>
      </trkpt>
      <trkpt lat="43.43785" lon="6.02674">
        <ele>275.60000610352</ele>
        <time>2016-05-25T13:00:51Z</time>
      </trkpt>
      <trkpt lat="43.43785" lon="6.02669">
        <ele>276</ele>
        <time>2016-05-25T13:00:54Z</time>
      </trkpt>
      <trkpt lat="43.43786" lon="6.02664">
        <ele>276</ele>
        <time>2016-05-25T13:00:55Z</time>
      </trkpt>
      <trkpt lat="43.43785" lon="6.02658">
        <ele>276.20001220703</ele>
        <time>2016-05-25T13:00:57Z</time>
      </trkpt>
      <trkpt lat="43.43784" lon="6.02653">
        <ele>276.20001220703</ele>
        <time>2016-05-25T13:00:59Z</time>
      </trkpt>
      <trkpt lat="43.43787" lon="6.02632">
        <ele>276.60000610352</ele>
        <time>2016-05-25T13:01:05Z</time>
      </trkpt>
      <trkpt lat="43.43789" lon="6.02625">
        <ele>276.60000610352</ele>
        <time>2016-05-25T13:01:07Z</time>
      </trkpt>
      <trkpt lat="43.43794" lon="6.02604">
        <ele>276.79998779297</ele>
        <time>2016-05-25T13:01:13Z</time>
      </trkpt>
      <trkpt lat="43.43794" lon="6.02596">
        <ele>276.79998779297</ele>
        <time>2016-05-25T13:01:16Z</time>
      </trkpt>
      <trkpt lat="43.4379" lon="6.0256">
        <ele>276.39999389648</ele>
        <time>2016-05-25T13:01:23Z</time>
      </trkpt>
      <trkpt lat="43.43791" lon="6.02534">
        <ele>277</ele>
        <time>2016-05-25T13:01:29Z</time>
      </trkpt>
      <trkpt lat="43.43796" lon="6.02517">
        <ele>276.39999389648</ele>
        <time>2016-05-25T13:01:35Z</time>
      </trkpt>
      <trkpt lat="43.43796" lon="6.02499">
        <ele>275.79998779297</ele>
        <time>2016-05-25T13:01:42Z</time>
      </trkpt>
      <trkpt lat="43.43796" lon="6.02494">
        <ele>275.60000610352</ele>
        <time>2016-05-25T13:01:43Z</time>
      </trkpt>
      <trkpt lat="43.43794" lon="6.02484">
        <ele>275.79998779297</ele>
        <time>2016-05-25T13:01:47Z</time>
      </trkpt>
      <trkpt lat="43.43794" lon="6.02484">
        <ele>275.79998779297</ele>
        <time>2016-05-25T13:01:48Z</time>
      </trkpt>
      <trkpt lat="43.43792" lon="6.02479">
        <ele>276.79998779297</ele>
        <time>2016-05-25T13:01:53Z</time>
      </trkpt>
      <trkpt lat="43.43792" lon="6.02479">
        <ele>277</ele>
        <time>2016-05-25T13:01:54Z</time>
      </trkpt>
      <trkpt lat="43.43792" lon="6.02479">
        <ele>277</ele>
        <time>2016-05-25T13:01:55Z</time>
      </trkpt>
      <trkpt lat="43.43792" lon="6.02479">
        <ele>277.20001220703</ele>
        <time>2016-05-25T13:01:56Z</time>
      </trkpt>
      <trkpt lat="43.43793" lon="6.02478">
        <ele>277.20001220703</ele>
        <time>2016-05-25T13:02:00Z</time>
      </trkpt>
      <trkpt lat="43.43795" lon="6.02478">
        <ele>276.79998779297</ele>
        <time>2016-05-25T13:02:03Z</time>
      </trkpt>
      <trkpt lat="43.43795" lon="6.02478">
        <ele>276.79998779297</ele>
        <time>2016-05-25T13:02:04Z</time>
      </trkpt>
      <trkpt lat="43.43797" lon="6.02484">
        <ele>276.20001220703</ele>
        <time>2016-05-25T13:02:09Z</time>
      </trkpt>
      <trkpt lat="43.43797" lon="6.02484">
        <ele>276.20001220703</ele>
        <time>2016-05-25T13:02:10Z</time>
      </trkpt>
      <trkpt lat="43.43797" lon="6.02485">
        <ele>275.79998779297</ele>
        <time>2016-05-25T13:02:12Z</time>
      </trkpt>
      <trkpt lat="43.43796" lon="6.02485">
        <ele>275.60000610352</ele>
        <time>2016-05-25T13:02:14Z</time>
      </trkpt>
      <trkpt lat="43.43796" lon="6.02485">
        <ele>275.39999389648</ele>
        <time>2016-05-25T13:02:18Z</time>
      </trkpt>
      <trkpt lat="43.43796" lon="6.02485">
        <ele>275.39999389648</ele>
        <time>2016-05-25T13:02:26Z</time>
      </trkpt>
      <trkpt lat="43.43796" lon="6.02485">
        <ele>275.39999389648</ele>
        <time>2016-05-25T13:02:31Z</time>
      </trkpt>
      <trkpt lat="43.43796" lon="6.02485">
        <ele>275.20001220703</ele>
        <time>2016-05-25T13:02:40Z</time>
      </trkpt>
      <trkpt lat="43.43796" lon="6.02485">
        <ele>275.39999389648</ele>
        <time>2016-05-25T13:02:50Z</time>
      </trkpt>
      <trkpt lat="43.43796" lon="6.02485">
        <ele>275.20001220703</ele>
        <time>2016-05-25T13:03:01Z</time>
      </trkpt>
      <trkpt lat="43.43795" lon="6.0249">
        <ele>275.60000610352</ele>
        <time>2016-05-25T13:03:12Z</time>
      </trkpt>
      <trkpt lat="43.43794" lon="6.02494">
        <ele>275.60000610352</ele>
        <time>2016-05-25T13:03:20Z</time>
      </trkpt>
      <trkpt lat="43.43794" lon="6.02494">
        <ele>275.60000610352</ele>
        <time>2016-05-25T13:03:26Z</time>
      </trkpt>
      <trkpt lat="43.43794" lon="6.02493">
        <ele>275.60000610352</ele>
        <time>2016-05-25T13:03:32Z</time>
      </trkpt>
      <trkpt lat="43.43795" lon="6.02493">
        <ele>275.60000610352</ele>
        <time>2016-05-25T13:03:36Z</time>
      </trkpt>
      <trkpt lat="43.43795" lon="6.02493">
        <ele>275.39999389648</ele>
        <time>2016-05-25T13:03:39Z</time>
      </trkpt>
      <trkpt lat="43.43796" lon="6.02489">
        <ele>275.39999389648</ele>
        <time>2016-05-25T13:03:49Z</time>
      </trkpt>
      <trkpt lat="43.43795" lon="6.02485">
        <ele>275.39999389648</ele>
        <time>2016-05-25T13:03:52Z</time>
      </trkpt>
      <trkpt lat="43.43793" lon="6.02479">
        <ele>275.39999389648</ele>
        <time>2016-05-25T13:03:55Z</time>
      </trkpt>
      <trkpt lat="43.43792" lon="6.02478">
        <ele>276.20001220703</ele>
        <time>2016-05-25T13:03:57Z</time>
      </trkpt>
      <trkpt lat="43.43789" lon="6.02479">
        <ele>277.20001220703</ele>
        <time>2016-05-25T13:04:01Z</time>
      </trkpt>
      <trkpt lat="43.43788" lon="6.0248">
        <ele>277.60000610352</ele>
        <time>2016-05-25T13:04:03Z</time>
      </trkpt>
      <trkpt lat="43.43788" lon="6.0248">
        <ele>278</ele>
        <time>2016-05-25T13:04:06Z</time>
      </trkpt>
      <trkpt lat="43.43787" lon="6.02479">
        <ele>278.20001220703</ele>
        <time>2016-05-25T13:04:15Z</time>
      </trkpt>
      <trkpt lat="43.43786" lon="6.02478">
        <ele>278</ele>
        <time>2016-05-25T13:04:27Z</time>
      </trkpt>
      <trkpt lat="43.43786" lon="6.02478">
        <ele>278.39999389648</ele>
        <time>2016-05-25T13:04:35Z</time>
      </trkpt>
      <trkpt lat="43.43786" lon="6.02478">
        <ele>278.20001220703</ele>
        <time>2016-05-25T13:04:43Z</time>
      </trkpt>
      <trkpt lat="43.43786" lon="6.02478">
        <ele>278.20001220703</ele>
        <time>2016-05-25T13:04:47Z</time>
      </trkpt>
      <trkpt lat="43.43786" lon="6.02478">
        <ele>278.20001220703</ele>
        <time>2016-05-25T13:04:53Z</time>
      </trkpt>
      <trkpt lat="43.43786" lon="6.02478">
        <ele>278.20001220703</ele>
        <time>2016-05-25T13:04:58Z</time>
      </trkpt>
      <trkpt lat="43.43786" lon="6.02478">
        <ele>278.39999389648</ele>
        <time>2016-05-25T13:05:04Z</time>
      </trkpt>
      <trkpt lat="43.43786" lon="6.02478">
        <ele>278.20001220703</ele>
        <time>2016-05-25T13:05:11Z</time>
      </trkpt>
      <trkpt lat="43.43786" lon="6.02478">
        <ele>278.20001220703</ele>
        <time>2016-05-25T13:05:20Z</time>
      </trkpt>
      <trkpt lat="43.43785" lon="6.02477">
        <ele>278</ele>
        <time>2016-05-25T13:05:27Z</time>
      </trkpt>
      <trkpt lat="43.43779" lon="6.02474">
        <ele>278</ele>
        <time>2016-05-25T13:05:36Z</time>
      </trkpt>
      <trkpt lat="43.43777" lon="6.0247">
        <ele>277.79998779297</ele>
        <time>2016-05-25T13:05:39Z</time>
      </trkpt>
      <trkpt lat="43.43778" lon="6.02467">
        <ele>277.79998779297</ele>
        <time>2016-05-25T13:05:41Z</time>
      </trkpt>
      <trkpt lat="43.43777" lon="6.02466">
        <ele>277.79998779297</ele>
        <time>2016-05-25T13:05:42Z</time>
      </trkpt>
      <trkpt lat="43.43777" lon="6.02464">
        <ele>278.20001220703</ele>
        <time>2016-05-25T13:05:44Z</time>
      </trkpt>
      <trkpt lat="43.43774" lon="6.02462">
        <ele>278.39999389648</ele>
        <time>2016-05-25T13:05:46Z</time>
      </trkpt>
      <trkpt lat="43.43773" lon="6.02459">
        <ele>279</ele>
        <time>2016-05-25T13:05:48Z</time>
      </trkpt>
      <trkpt lat="43.43773" lon="6.02459">
        <ele>279.20001220703</ele>
        <time>2016-05-25T13:05:50Z</time>
      </trkpt>
      <trkpt lat="43.43771" lon="6.02456">
        <ele>279.39999389648</ele>
        <time>2016-05-25T13:05:54Z</time>
      </trkpt>
      <trkpt lat="43.43771" lon="6.02455">
        <ele>279.39999389648</ele>
        <time>2016-05-25T13:05:57Z</time>
      </trkpt>
      <trkpt lat="43.4377" lon="6.02449">
        <ele>280.20001220703</ele>
        <time>2016-05-25T13:06:08Z</time>
      </trkpt>
      <trkpt lat="43.4377" lon="6.02449">
        <ele>280.39999389648</ele>
        <time>2016-05-25T13:06:09Z</time>
      </trkpt>
      <trkpt lat="43.43772" lon="6.02446">
        <ele>280.60000610352</ele>
        <time>2016-05-25T13:06:15Z</time>
      </trkpt>
      <trkpt lat="43.43772" lon="6.02446">
        <ele>280.39999389648</ele>
        <time>2016-05-25T13:06:16Z</time>
      </trkpt>
      <trkpt lat="43.43772" lon="6.02442">
        <ele>280.39999389648</ele>
        <time>2016-05-25T13:06:17Z</time>
      </trkpt>
      <trkpt lat="43.4377" lon="6.02436">
        <ele>280.39999389648</ele>
        <time>2016-05-25T13:06:22Z</time>
      </trkpt>
      <trkpt lat="43.43767" lon="6.02429">
        <ele>280.60000610352</ele>
        <time>2016-05-25T13:06:25Z</time>
      </trkpt>
      <trkpt lat="43.43765" lon="6.02427">
        <ele>280.60000610352</ele>
        <time>2016-05-25T13:06:27Z</time>
      </trkpt>
      <trkpt lat="43.4376" lon="6.02422">
        <ele>280.79998779297</ele>
        <time>2016-05-25T13:06:31Z</time>
      </trkpt>
      <trkpt lat="43.43759" lon="6.02417">
        <ele>280.79998779297</ele>
        <time>2016-05-25T13:06:33Z</time>
      </trkpt>
      <trkpt lat="43.43752" lon="6.02406">
        <ele>281.60000610352</ele>
        <time>2016-05-25T13:06:39Z</time>
      </trkpt>
      <trkpt lat="43.43752" lon="6.02406">
        <ele>281.79998779297</ele>
        <time>2016-05-25T13:06:40Z</time>
      </trkpt>
      <trkpt lat="43.43746" lon="6.02401">
        <ele>282.79998779297</ele>
        <time>2016-05-25T13:06:44Z</time>
      </trkpt>
      <trkpt lat="43.43743" lon="6.02397">
        <ele>283.39999389648</ele>
        <time>2016-05-25T13:06:46Z</time>
      </trkpt>
      <trkpt lat="43.43742" lon="6.02388">
        <ele>283.79998779297</ele>
        <time>2016-05-25T13:06:49Z</time>
      </trkpt>
      <trkpt lat="43.4374" lon="6.02384">
        <ele>284.20001220703</ele>
        <time>2016-05-25T13:06:52Z</time>
      </trkpt>
      <trkpt lat="43.43737" lon="6.02375">
        <ele>284.39999389648</ele>
        <time>2016-05-25T13:06:56Z</time>
      </trkpt>
      <trkpt lat="43.43736" lon="6.0237">
        <ele>284.39999389648</ele>
        <time>2016-05-25T13:06:57Z</time>
      </trkpt>
      <trkpt lat="43.43733" lon="6.02367">
        <ele>284.60000610352</ele>
        <time>2016-05-25T13:06:59Z</time>
      </trkpt>
      <trkpt lat="43.43732" lon="6.02365">
        <ele>284.60000610352</ele>
        <time>2016-05-25T13:07:00Z</time>
      </trkpt>
      <trkpt lat="43.43731" lon="6.02365">
        <ele>285</ele>
        <time>2016-05-25T13:07:02Z</time>
      </trkpt>
      <trkpt lat="43.43728" lon="6.02365">
        <ele>285.20001220703</ele>
        <time>2016-05-25T13:07:04Z</time>
      </trkpt>
      <trkpt lat="43.43724" lon="6.02365">
        <ele>285.60000610352</ele>
        <time>2016-05-25T13:07:06Z</time>
      </trkpt>
      <trkpt lat="43.43723" lon="6.02364">
        <ele>285.79998779297</ele>
        <time>2016-05-25T13:07:07Z</time>
      </trkpt>
      <trkpt lat="43.43721" lon="6.0236">
        <ele>285.79998779297</ele>
        <time>2016-05-25T13:07:09Z</time>
      </trkpt>
      <trkpt lat="43.43717" lon="6.02352">
        <ele>286</ele>
        <time>2016-05-25T13:07:14Z</time>
      </trkpt>
      <trkpt lat="43.43716" lon="6.02347">
        <ele>286</ele>
        <time>2016-05-25T13:07:15Z</time>
      </trkpt>
      <trkpt lat="43.43715" lon="6.02342">
        <ele>286</ele>
        <time>2016-05-25T13:07:17Z</time>
      </trkpt>
      <trkpt lat="43.43715" lon="6.02339">
        <ele>286</ele>
        <time>2016-05-25T13:07:18Z</time>
      </trkpt>
      <trkpt lat="43.4372" lon="6.02335">
        <ele>285.39999389648</ele>
        <time>2016-05-25T13:07:21Z</time>
      </trkpt>
      <trkpt lat="43.43723" lon="6.02331">
        <ele>284.79998779297</ele>
        <time>2016-05-25T13:07:23Z</time>
      </trkpt>
      <trkpt lat="43.43725" lon="6.02326">
        <ele>284</ele>
        <time>2016-05-25T13:07:26Z</time>
      </trkpt>
      <trkpt lat="43.43729" lon="6.02318">
        <ele>283.39999389648</ele>
        <time>2016-05-25T13:07:27Z</time>
      </trkpt>
      <trkpt lat="43.43729" lon="6.02318">
        <ele>282.79998779297</ele>
        <time>2016-05-25T13:07:28Z</time>
      </trkpt>
      <trkpt lat="43.43734" lon="6.02309">
        <ele>282.39999389648</ele>
        <time>2016-05-25T13:07:29Z</time>
      </trkpt>
      <trkpt lat="43.43739" lon="6.02302">
        <ele>281.60000610352</ele>
        <time>2016-05-25T13:07:31Z</time>
      </trkpt>
      <trkpt lat="43.43743" lon="6.02296">
        <ele>280.79998779297</ele>
        <time>2016-05-25T13:07:33Z</time>
      </trkpt>
      <trkpt lat="43.43743" lon="6.02296">
        <ele>280.39999389648</ele>
        <time>2016-05-25T13:07:34Z</time>
      </trkpt>
      <trkpt lat="43.43748" lon="6.02286">
        <ele>279.39999389648</ele>
        <time>2016-05-25T13:07:36Z</time>
      </trkpt>
      <trkpt lat="43.43751" lon="6.02283">
        <ele>279</ele>
        <time>2016-05-25T13:07:38Z</time>
      </trkpt>
      <trkpt lat="43.43754" lon="6.02279">
        <ele>278.20001220703</ele>
        <time>2016-05-25T13:07:40Z</time>
      </trkpt>
      <trkpt lat="43.43757" lon="6.02272">
        <ele>277.79998779297</ele>
        <time>2016-05-25T13:07:41Z</time>
      </trkpt>
      <trkpt lat="43.4376" lon="6.02265">
        <ele>277.39999389648</ele>
        <time>2016-05-25T13:07:43Z</time>
      </trkpt>
      <trkpt lat="43.4376" lon="6.02265">
        <ele>277</ele>
        <time>2016-05-25T13:07:44Z</time>
      </trkpt>
      <trkpt lat="43.43763" lon="6.02255">
        <ele>277</ele>
        <time>2016-05-25T13:07:45Z</time>
      </trkpt>
      <trkpt lat="43.43764" lon="6.02244">
        <ele>276.79998779297</ele>
        <time>2016-05-25T13:07:48Z</time>
      </trkpt>
      <trkpt lat="43.43765" lon="6.02212">
        <ele>277.60000610352</ele>
        <time>2016-05-25T13:07:55Z</time>
      </trkpt>
      <trkpt lat="43.43767" lon="6.02197">
        <ele>277.79998779297</ele>
        <time>2016-05-25T13:07:59Z</time>
      </trkpt>
      <trkpt lat="43.43768" lon="6.02194">
        <ele>277.79998779297</ele>
        <time>2016-05-25T13:08:00Z</time>
      </trkpt>
      <trkpt lat="43.43775" lon="6.02182">
        <ele>278.20001220703</ele>
        <time>2016-05-25T13:08:03Z</time>
      </trkpt>
      <trkpt lat="43.43775" lon="6.02182">
        <ele>278.20001220703</ele>
        <time>2016-05-25T13:08:04Z</time>
      </trkpt>
      <trkpt lat="43.43787" lon="6.02159">
        <ele>277.79998779297</ele>
        <time>2016-05-25T13:08:09Z</time>
      </trkpt>
      <trkpt lat="43.43802" lon="6.02143">
        <ele>278.20001220703</ele>
        <time>2016-05-25T13:08:16Z</time>
      </trkpt>
      <trkpt lat="43.43808" lon="6.02134">
        <ele>278.20001220703</ele>
        <time>2016-05-25T13:08:17Z</time>
      </trkpt>
      <trkpt lat="43.4381" lon="6.02125">
        <ele>278.60000610352</ele>
        <time>2016-05-25T13:08:20Z</time>
      </trkpt>
      <trkpt lat="43.43812" lon="6.02108">
        <ele>279.39999389648</ele>
        <time>2016-05-25T13:08:23Z</time>
      </trkpt>
      <trkpt lat="43.43814" lon="6.021">
        <ele>279.60000610352</ele>
        <time>2016-05-25T13:08:25Z</time>
      </trkpt>
      <trkpt lat="43.43817" lon="6.02092">
        <ele>279.79998779297</ele>
        <time>2016-05-25T13:08:27Z</time>
      </trkpt>
      <trkpt lat="43.43826" lon="6.02073">
        <ele>279.39999389648</ele>
        <time>2016-05-25T13:08:32Z</time>
      </trkpt>
      <trkpt lat="43.4383" lon="6.02065">
        <ele>279.39999389648</ele>
        <time>2016-05-25T13:08:33Z</time>
      </trkpt>
      <trkpt lat="43.43832" lon="6.02056">
        <ele>279.39999389648</ele>
        <time>2016-05-25T13:08:35Z</time>
      </trkpt>
      <trkpt lat="43.43832" lon="6.02052">
        <ele>279.39999389648</ele>
        <time>2016-05-25T13:08:36Z</time>
      </trkpt>
      <trkpt lat="43.43837" lon="6.02022">
        <ele>279.60000610352</ele>
        <time>2016-05-25T13:08:42Z</time>
      </trkpt>
      <trkpt lat="43.43839" lon="6.01992">
        <ele>279.79998779297</ele>
        <time>2016-05-25T13:08:48Z</time>
      </trkpt>
      <trkpt lat="43.43839" lon="6.01989">
        <ele>280</ele>
        <time>2016-05-25T13:08:49Z</time>
      </trkpt>
      <trkpt lat="43.43842" lon="6.0198">
        <ele>280</ele>
        <time>2016-05-25T13:08:51Z</time>
      </trkpt>
      <trkpt lat="43.43844" lon="6.01974">
        <ele>280</ele>
        <time>2016-05-25T13:08:53Z</time>
      </trkpt>
      <trkpt lat="43.43851" lon="6.01954">
        <ele>280</ele>
        <time>2016-05-25T13:09:00Z</time>
      </trkpt>
      <trkpt lat="43.4385" lon="6.01952">
        <ele>280.20001220703</ele>
        <time>2016-05-25T13:09:13Z</time>
      </trkpt>
      <trkpt lat="43.4385" lon="6.01952">
        <ele>280</ele>
        <time>2016-05-25T13:09:18Z</time>
      </trkpt>
      <trkpt lat="43.4385" lon="6.01952">
        <ele>280.39999389648</ele>
        <time>2016-05-25T13:09:32Z</time>
      </trkpt>
      <trkpt lat="43.4385" lon="6.01952">
        <ele>280.39999389648</ele>
        <time>2016-05-25T13:09:45Z</time>
      </trkpt>
      <trkpt lat="43.4385" lon="6.01952">
        <ele>280.39999389648</ele>
        <time>2016-05-25T13:09:56Z</time>
      </trkpt>
      <trkpt lat="43.4385" lon="6.01952">
        <ele>280.39999389648</ele>
        <time>2016-05-25T13:10:16Z</time>
      </trkpt>
      <trkpt lat="43.4385" lon="6.01951">
        <ele>280.60000610352</ele>
        <time>2016-05-25T13:10:24Z</time>
      </trkpt>
      <trkpt lat="43.4385" lon="6.01951">
        <ele>280.20001220703</ele>
        <time>2016-05-25T13:10:55Z</time>
      </trkpt>
      <trkpt lat="43.4385" lon="6.01951">
        <ele>280.39999389648</ele>
        <time>2016-05-25T13:11:32Z</time>
      </trkpt>
      <trkpt lat="43.4385" lon="6.01951">
        <ele>280.39999389648</ele>
        <time>2016-05-25T13:11:34Z</time>
      </trkpt>
      <trkpt lat="43.4385" lon="6.01951">
        <ele>280.39999389648</ele>
        <time>2016-05-25T13:12:08Z</time>
      </trkpt>
      <trkpt lat="43.4385" lon="6.01951">
        <ele>280.39999389648</ele>
        <time>2016-05-25T13:12:09Z</time>
      </trkpt>
      <trkpt lat="43.4385" lon="6.0195">
        <ele>280.39999389648</ele>
        <time>2016-05-25T13:12:21Z</time>
      </trkpt>
      <trkpt lat="43.4385" lon="6.0195">
        <ele>280.20001220703</ele>
        <time>2016-05-25T13:12:39Z</time>
      </trkpt>
      <trkpt lat="43.4385" lon="6.0195">
        <ele>280.39999389648</ele>
        <time>2016-05-25T13:12:42Z</time>
      </trkpt>
      <trkpt lat="43.4385" lon="6.0195">
        <ele>280.20001220703</ele>
        <time>2016-05-25T13:12:52Z</time>
      </trkpt>
      <trkpt lat="43.4385" lon="6.0195">
        <ele>280.20001220703</ele>
        <time>2016-05-25T13:12:59Z</time>
      </trkpt>
      <trkpt lat="43.4385" lon="6.0195">
        <ele>280</ele>
        <time>2016-05-25T13:13:12Z</time>
      </trkpt>
      <trkpt lat="43.4385" lon="6.0195">
        <ele>280</ele>
        <time>2016-05-25T13:13:22Z</time>
      </trkpt>
      <trkpt lat="43.4385" lon="6.0195">
        <ele>280.20001220703</ele>
        <time>2016-05-25T13:13:46Z</time>
      </trkpt>
      <trkpt lat="43.4385" lon="6.0195">
        <ele>280.20001220703</ele>
        <time>2016-05-25T13:13:47Z</time>
      </trkpt>
      <trkpt lat="43.4385" lon="6.0195">
        <ele>280</ele>
        <time>2016-05-25T13:13:56Z</time>
      </trkpt>
      <trkpt lat="43.4385" lon="6.0195">
        <ele>280.20001220703</ele>
        <time>2016-05-25T13:14:01Z</time>
      </trkpt>
      <trkpt lat="43.4385" lon="6.0195">
        <ele>279.79998779297</ele>
        <time>2016-05-25T13:14:20Z</time>
      </trkpt>
      <trkpt lat="43.4385" lon="6.0195">
        <ele>280</ele>
        <time>2016-05-25T13:14:40Z</time>
      </trkpt>
      <trkpt lat="43.4385" lon="6.0195">
        <ele>280</ele>
        <time>2016-05-25T13:14:41Z</time>
      </trkpt>
      <trkpt lat="43.4385" lon="6.01949">
        <ele>279.79998779297</ele>
        <time>2016-05-25T13:15:13Z</time>
      </trkpt>
      <trkpt lat="43.4385" lon="6.01949">
        <ele>280</ele>
        <time>2016-05-25T13:15:36Z</time>
      </trkpt>
      <trkpt lat="43.4385" lon="6.01949">
        <ele>280</ele>
        <time>2016-05-25T13:15:49Z</time>
      </trkpt>
      <trkpt lat="43.4385" lon="6.01949">
        <ele>280.20001220703</ele>
        <time>2016-05-25T13:16:09Z</time>
      </trkpt>
      <trkpt lat="43.43853" lon="6.01947">
        <ele>279.79998779297</ele>
        <time>2016-05-25T13:16:22Z</time>
      </trkpt>
      <trkpt lat="43.43859" lon="6.01939">
        <ele>279.39999389648</ele>
        <time>2016-05-25T13:16:27Z</time>
      </trkpt>
      <trkpt lat="43.43863" lon="6.01932">
        <ele>279.39999389648</ele>
        <time>2016-05-25T13:16:29Z</time>
      </trkpt>
      <trkpt lat="43.4387" lon="6.01913">
        <ele>279.79998779297</ele>
        <time>2016-05-25T13:16:35Z</time>
      </trkpt>
      <trkpt lat="43.43872" lon="6.01898">
        <ele>280.39999389648</ele>
        <time>2016-05-25T13:16:40Z</time>
      </trkpt>
      <trkpt lat="43.43875" lon="6.01886">
        <ele>280.60000610352</ele>
        <time>2016-05-25T13:16:43Z</time>
      </trkpt>
      <trkpt lat="43.43877" lon="6.01879">
        <ele>280.60000610352</ele>
        <time>2016-05-25T13:16:45Z</time>
      </trkpt>
      <trkpt lat="43.4388" lon="6.01853">
        <ele>280.79998779297</ele>
        <time>2016-05-25T13:16:51Z</time>
      </trkpt>
      <trkpt lat="43.43881" lon="6.01833">
        <ele>281.20001220703</ele>
        <time>2016-05-25T13:16:56Z</time>
      </trkpt>
      <trkpt lat="43.43881" lon="6.01829">
        <ele>281.20001220703</ele>
        <time>2016-05-25T13:16:57Z</time>
      </trkpt>
      <trkpt lat="43.43882" lon="6.01817">
        <ele>281.79998779297</ele>
        <time>2016-05-25T13:17:00Z</time>
      </trkpt>
      <trkpt lat="43.43884" lon="6.01802">
        <ele>282.39999389648</ele>
        <time>2016-05-25T13:17:04Z</time>
      </trkpt>
      <trkpt lat="43.43886" lon="6.01796">
        <ele>282.79998779297</ele>
        <time>2016-05-25T13:17:06Z</time>
      </trkpt>
      <trkpt lat="43.43889" lon="6.01787">
        <ele>283.79998779297</ele>
        <time>2016-05-25T13:17:09Z</time>
      </trkpt>
      <trkpt lat="43.43889" lon="6.01785">
        <ele>284</ele>
        <time>2016-05-25T13:17:10Z</time>
      </trkpt>
      <trkpt lat="43.4389" lon="6.01773">
        <ele>285</ele>
        <time>2016-05-25T13:17:14Z</time>
      </trkpt>
      <trkpt lat="43.4389" lon="6.0177">
        <ele>285</ele>
        <time>2016-05-25T13:17:15Z</time>
      </trkpt>
      <trkpt lat="43.43887" lon="6.0175">
        <ele>286</ele>
        <time>2016-05-25T13:17:21Z</time>
      </trkpt>
      <trkpt lat="43.43886" lon="6.01747">
        <ele>286</ele>
        <time>2016-05-25T13:17:22Z</time>
      </trkpt>
      <trkpt lat="43.43884" lon="6.0174">
        <ele>286.20001220703</ele>
        <time>2016-05-25T13:17:24Z</time>
      </trkpt>
      <trkpt lat="43.43878" lon="6.01722">
        <ele>286.60000610352</ele>
        <time>2016-05-25T13:17:30Z</time>
      </trkpt>
      <trkpt lat="43.43874" lon="6.01713">
        <ele>287.39999389648</ele>
        <time>2016-05-25T13:17:33Z</time>
      </trkpt>
      <trkpt lat="43.43872" lon="6.01699">
        <ele>287.60000610352</ele>
        <time>2016-05-25T13:17:37Z</time>
      </trkpt>
      <trkpt lat="43.43873" lon="6.01677">
        <ele>287.79998779297</ele>
        <time>2016-05-25T13:17:44Z</time>
      </trkpt>
      <trkpt lat="43.43868" lon="6.01665">
        <ele>288</ele>
        <time>2016-05-25T13:17:48Z</time>
      </trkpt>
      <trkpt lat="43.43864" lon="6.01663">
        <ele>288.20001220703</ele>
        <time>2016-05-25T13:17:50Z</time>
      </trkpt>
      <trkpt lat="43.4386" lon="6.01664">
        <ele>288.39999389648</ele>
        <time>2016-05-25T13:17:52Z</time>
      </trkpt>
      <trkpt lat="43.43854" lon="6.01669">
        <ele>288.79998779297</ele>
        <time>2016-05-25T13:17:55Z</time>
      </trkpt>
      <trkpt lat="43.43847" lon="6.01674">
        <ele>289</ele>
        <time>2016-05-25T13:17:59Z</time>
      </trkpt>
      <trkpt lat="43.43845" lon="6.01676">
        <ele>289.20001220703</ele>
        <time>2016-05-25T13:18:00Z</time>
      </trkpt>
      <trkpt lat="43.43832" lon="6.01684">
        <ele>289.60000610352</ele>
        <time>2016-05-25T13:18:06Z</time>
      </trkpt>
      <trkpt lat="43.43815" lon="6.01693">
        <ele>289.79998779297</ele>
        <time>2016-05-25T13:18:13Z</time>
      </trkpt>
      <trkpt lat="43.43797" lon="6.017">
        <ele>290.20001220703</ele>
        <time>2016-05-25T13:18:20Z</time>
      </trkpt>
      <trkpt lat="43.43791" lon="6.017">
        <ele>290.39999389648</ele>
        <time>2016-05-25T13:18:22Z</time>
      </trkpt>
      <trkpt lat="43.4378" lon="6.01699">
        <ele>290.60000610352</ele>
        <time>2016-05-25T13:18:26Z</time>
      </trkpt>
      <trkpt lat="43.43773" lon="6.01697">
        <ele>291.39999389648</ele>
        <time>2016-05-25T13:18:29Z</time>
      </trkpt>
      <trkpt lat="43.43761" lon="6.01693">
        <ele>292.39999389648</ele>
        <time>2016-05-25T13:18:34Z</time>
      </trkpt>
      <trkpt lat="43.43753" lon="6.01689">
        <ele>292.39999389648</ele>
        <time>2016-05-25T13:18:38Z</time>
      </trkpt>
      <trkpt lat="43.43747" lon="6.01686">
        <ele>292.60000610352</ele>
        <time>2016-05-25T13:18:42Z</time>
      </trkpt>
      <trkpt lat="43.43742" lon="6.01685">
        <ele>293</ele>
        <time>2016-05-25T13:18:47Z</time>
      </trkpt>
      <trkpt lat="43.43742" lon="6.01684">
        <ele>293</ele>
        <time>2016-05-25T13:18:48Z</time>
      </trkpt>
      <trkpt lat="43.43741" lon="6.01684">
        <ele>293.20001220703</ele>
        <time>2016-05-25T13:18:50Z</time>
      </trkpt>
      <trkpt lat="43.43736" lon="6.01685">
        <ele>293.39999389648</ele>
        <time>2016-05-25T13:18:54Z</time>
      </trkpt>
      <trkpt lat="43.4373" lon="6.01682">
        <ele>294</ele>
        <time>2016-05-25T13:18:58Z</time>
      </trkpt>
      <trkpt lat="43.43727" lon="6.0168">
        <ele>294.20001220703</ele>
        <time>2016-05-25T13:19:00Z</time>
      </trkpt>
      <trkpt lat="43.43722" lon="6.01677">
        <ele>294.60000610352</ele>
        <time>2016-05-25T13:19:03Z</time>
      </trkpt>
      <trkpt lat="43.43715" lon="6.01672">
        <ele>295</ele>
        <time>2016-05-25T13:19:07Z</time>
      </trkpt>
      <trkpt lat="43.43702" lon="6.01659">
        <ele>295.20001220703</ele>
        <time>2016-05-25T13:19:14Z</time>
      </trkpt>
      <trkpt lat="43.437" lon="6.01657">
        <ele>295.39999389648</ele>
        <time>2016-05-25T13:19:15Z</time>
      </trkpt>
      <trkpt lat="43.43692" lon="6.01649">
        <ele>295.79998779297</ele>
        <time>2016-05-25T13:19:19Z</time>
      </trkpt>
      <trkpt lat="43.43687" lon="6.01648">
        <ele>296</ele>
        <time>2016-05-25T13:19:21Z</time>
      </trkpt>
      <trkpt lat="43.4368" lon="6.01647">
        <ele>296.39999389648</ele>
        <time>2016-05-25T13:19:24Z</time>
      </trkpt>
      <trkpt lat="43.43673" lon="6.01644">
        <ele>297</ele>
        <time>2016-05-25T13:19:27Z</time>
      </trkpt>
      <trkpt lat="43.43662" lon="6.01641">
        <ele>297.60000610352</ele>
        <time>2016-05-25T13:19:32Z</time>
      </trkpt>
      <trkpt lat="43.43655" lon="6.01637">
        <ele>298.39999389648</ele>
        <time>2016-05-25T13:19:36Z</time>
      </trkpt>
      <trkpt lat="43.43653" lon="6.01635">
        <ele>298.60000610352</ele>
        <time>2016-05-25T13:19:37Z</time>
      </trkpt>
      <trkpt lat="43.43643" lon="6.01621">
        <ele>298.79998779297</ele>
        <time>2016-05-25T13:19:43Z</time>
      </trkpt>
      <trkpt lat="43.43636" lon="6.01607">
        <ele>298.79998779297</ele>
        <time>2016-05-25T13:19:48Z</time>
      </trkpt>
      <trkpt lat="43.43631" lon="6.01596">
        <ele>299.20001220703</ele>
        <time>2016-05-25T13:19:52Z</time>
      </trkpt>
      <trkpt lat="43.43617" lon="6.01575">
        <ele>299.39999389648</ele>
        <time>2016-05-25T13:20:01Z</time>
      </trkpt>
      <trkpt lat="43.43611" lon="6.0157">
        <ele>299.60000610352</ele>
        <time>2016-05-25T13:20:04Z</time>
      </trkpt>
      <trkpt lat="43.436" lon="6.01562">
        <ele>300</ele>
        <time>2016-05-25T13:20:09Z</time>
      </trkpt>
      <trkpt lat="43.43591" lon="6.01555">
        <ele>300.39999389648</ele>
        <time>2016-05-25T13:20:14Z</time>
      </trkpt>
      <trkpt lat="43.43587" lon="6.01554">
        <ele>300.79998779297</ele>
        <time>2016-05-25T13:20:16Z</time>
      </trkpt>
      <trkpt lat="43.43584" lon="6.01554">
        <ele>301</ele>
        <time>2016-05-25T13:20:17Z</time>
      </trkpt>
      <trkpt lat="43.43576" lon="6.0155">
        <ele>301.79998779297</ele>
        <time>2016-05-25T13:20:21Z</time>
      </trkpt>
      <trkpt lat="43.43573" lon="6.01549">
        <ele>302.20001220703</ele>
        <time>2016-05-25T13:20:23Z</time>
      </trkpt>
      <trkpt lat="43.4356" lon="6.01548">
        <ele>303.20001220703</ele>
        <time>2016-05-25T13:20:29Z</time>
      </trkpt>
      <trkpt lat="43.43544" lon="6.01545">
        <ele>304.20001220703</ele>
        <time>2016-05-25T13:20:37Z</time>
      </trkpt>
      <trkpt lat="43.43529" lon="6.0154">
        <ele>304.39999389648</ele>
        <time>2016-05-25T13:20:44Z</time>
      </trkpt>
      <trkpt lat="43.43522" lon="6.01537">
        <ele>305</ele>
        <time>2016-05-25T13:20:47Z</time>
      </trkpt>
      <trkpt lat="43.43516" lon="6.01534">
        <ele>305.39999389648</ele>
        <time>2016-05-25T13:20:50Z</time>
      </trkpt>
      <trkpt lat="43.43514" lon="6.01533">
        <ele>305.39999389648</ele>
        <time>2016-05-25T13:20:51Z</time>
      </trkpt>
      <trkpt lat="43.43504" lon="6.01531">
        <ele>305.60000610352</ele>
        <time>2016-05-25T13:20:56Z</time>
      </trkpt>
      <trkpt lat="43.43495" lon="6.01532">
        <ele>306.60000610352</ele>
        <time>2016-05-25T13:21:01Z</time>
      </trkpt>
      <trkpt lat="43.43493" lon="6.01532">
        <ele>306.79998779297</ele>
        <time>2016-05-25T13:21:02Z</time>
      </trkpt>
      <trkpt lat="43.43482" lon="6.01529">
        <ele>307.79998779297</ele>
        <time>2016-05-25T13:21:08Z</time>
      </trkpt>
      <trkpt lat="43.43471" lon="6.0153">
        <ele>308.20001220703</ele>
        <time>2016-05-25T13:21:15Z</time>
      </trkpt>
      <trkpt lat="43.4347" lon="6.01529">
        <ele>308.20001220703</ele>
        <time>2016-05-25T13:21:16Z</time>
      </trkpt>
      <trkpt lat="43.43468" lon="6.01529">
        <ele>308.39999389648</ele>
        <time>2016-05-25T13:21:19Z</time>
      </trkpt>
      <trkpt lat="43.43468" lon="6.01529">
        <ele>308.60000610352</ele>
        <time>2016-05-25T13:21:20Z</time>
      </trkpt>
      <trkpt lat="43.43468" lon="6.01529">
        <ele>308.60000610352</ele>
        <time>2016-05-25T13:21:24Z</time>
      </trkpt>
      <trkpt lat="43.43468" lon="6.01529">
        <ele>308.79998779297</ele>
        <time>2016-05-25T13:21:26Z</time>
      </trkpt>
      <trkpt lat="43.43468" lon="6.01529">
        <ele>308.79998779297</ele>
        <time>2016-05-25T13:21:29Z</time>
      </trkpt>
      <trkpt lat="43.43468" lon="6.01529">
        <ele>309</ele>
        <time>2016-05-25T13:21:34Z</time>
      </trkpt>
      <trkpt lat="43.43468" lon="6.01529">
        <ele>309.20001220703</ele>
        <time>2016-05-25T13:21:38Z</time>
      </trkpt>
      <trkpt lat="43.43468" lon="6.01529">
        <ele>309</ele>
        <time>2016-05-25T13:21:42Z</time>
      </trkpt>
      <trkpt lat="43.43468" lon="6.01529">
        <ele>309</ele>
        <time>2016-05-25T13:21:47Z</time>
      </trkpt>
      <trkpt lat="43.43468" lon="6.01529">
        <ele>308.79998779297</ele>
        <time>2016-05-25T13:21:52Z</time>
      </trkpt>
      <trkpt lat="43.43468" lon="6.01529">
        <ele>308.79998779297</ele>
        <time>2016-05-25T13:22:02Z</time>
      </trkpt>
      <trkpt lat="43.43468" lon="6.01529">
        <ele>309</ele>
        <time>2016-05-25T13:22:07Z</time>
      </trkpt>
      <trkpt lat="43.43467" lon="6.01529">
        <ele>309</ele>
        <time>2016-05-25T13:22:23Z</time>
      </trkpt>
      <trkpt lat="43.43467" lon="6.01529">
        <ele>309</ele>
        <time>2016-05-25T13:22:26Z</time>
      </trkpt>
      <trkpt lat="43.43467" lon="6.01529">
        <ele>308.79998779297</ele>
        <time>2016-05-25T13:22:29Z</time>
      </trkpt>
      <trkpt lat="43.43467" lon="6.01529">
        <ele>308.79998779297</ele>
        <time>2016-05-25T13:22:42Z</time>
      </trkpt>
      <trkpt lat="43.43467" lon="6.01529">
        <ele>308.79998779297</ele>
        <time>2016-05-25T13:22:45Z</time>
      </trkpt>
      <trkpt lat="43.43467" lon="6.01529">
        <ele>308.79998779297</ele>
        <time>2016-05-25T13:22:48Z</time>
      </trkpt>
      <trkpt lat="43.43464" lon="6.01527">
        <ele>308.79998779297</ele>
        <time>2016-05-25T13:22:55Z</time>
      </trkpt>
      <trkpt lat="43.43463" lon="6.01526">
        <ele>308.79998779297</ele>
        <time>2016-05-25T13:22:56Z</time>
      </trkpt>
      <trkpt lat="43.43456" lon="6.01525">
        <ele>309.39999389648</ele>
        <time>2016-05-25T13:23:01Z</time>
      </trkpt>
      <trkpt lat="43.43451" lon="6.01521">
        <ele>309.79998779297</ele>
        <time>2016-05-25T13:23:04Z</time>
      </trkpt>
      <trkpt lat="43.43449" lon="6.01517">
        <ele>310.20001220703</ele>
        <time>2016-05-25T13:23:06Z</time>
      </trkpt>
      <trkpt lat="43.43446" lon="6.01511">
        <ele>310.60000610352</ele>
        <time>2016-05-25T13:23:09Z</time>
      </trkpt>
      <trkpt lat="43.43443" lon="6.01504">
        <ele>310.60000610352</ele>
        <time>2016-05-25T13:23:12Z</time>
      </trkpt>
      <trkpt lat="43.4344" lon="6.01494">
        <ele>310.79998779297</ele>
        <time>2016-05-25T13:23:16Z</time>
      </trkpt>
      <trkpt lat="43.43439" lon="6.01488">
        <ele>311</ele>
        <time>2016-05-25T13:23:18Z</time>
      </trkpt>
      <trkpt lat="43.43436" lon="6.01478">
        <ele>311.60000610352</ele>
        <time>2016-05-25T13:23:22Z</time>
      </trkpt>
      <trkpt lat="43.43435" lon="6.01473">
        <ele>312</ele>
        <time>2016-05-25T13:23:24Z</time>
      </trkpt>
      <trkpt lat="43.43433" lon="6.01461">
        <ele>312.39999389648</ele>
        <time>2016-05-25T13:23:28Z</time>
      </trkpt>
      <trkpt lat="43.43433" lon="6.01452">
        <ele>312.79998779297</ele>
        <time>2016-05-25T13:23:31Z</time>
      </trkpt>
      <trkpt lat="43.43433" lon="6.01447">
        <ele>313</ele>
        <time>2016-05-25T13:23:33Z</time>
      </trkpt>
      <trkpt lat="43.43433" lon="6.01434">
        <ele>313.60000610352</ele>
        <time>2016-05-25T13:23:38Z</time>
      </trkpt>
      <trkpt lat="43.43432" lon="6.01422">
        <ele>314.20001220703</ele>
        <time>2016-05-25T13:23:43Z</time>
      </trkpt>
      <trkpt lat="43.43431" lon="6.01419">
        <ele>314.39999389648</ele>
        <time>2016-05-25T13:23:44Z</time>
      </trkpt>
      <trkpt lat="43.43431" lon="6.01415">
        <ele>314.60000610352</ele>
        <time>2016-05-25T13:23:46Z</time>
      </trkpt>
      <trkpt lat="43.4343" lon="6.01409">
        <ele>314.79998779297</ele>
        <time>2016-05-25T13:23:49Z</time>
      </trkpt>
      <trkpt lat="43.4343" lon="6.01401">
        <ele>315.20001220703</ele>
        <time>2016-05-25T13:23:52Z</time>
      </trkpt>
      <trkpt lat="43.4343" lon="6.01399">
        <ele>315.20001220703</ele>
        <time>2016-05-25T13:23:53Z</time>
      </trkpt>
      <trkpt lat="43.43429" lon="6.01393">
        <ele>315.60000610352</ele>
        <time>2016-05-25T13:23:56Z</time>
      </trkpt>
      <trkpt lat="43.43426" lon="6.01379">
        <ele>316.39999389648</ele>
        <time>2016-05-25T13:24:01Z</time>
      </trkpt>
      <trkpt lat="43.43426" lon="6.01376">
        <ele>316.60000610352</ele>
        <time>2016-05-25T13:24:02Z</time>
      </trkpt>
      <trkpt lat="43.43423" lon="6.01359">
        <ele>317</ele>
        <time>2016-05-25T13:24:09Z</time>
      </trkpt>
      <trkpt lat="43.43422" lon="6.01351">
        <ele>317.39999389648</ele>
        <time>2016-05-25T13:24:13Z</time>
      </trkpt>
      <trkpt lat="43.43422" lon="6.01342">
        <ele>318</ele>
        <time>2016-05-25T13:24:17Z</time>
      </trkpt>
      <trkpt lat="43.43424" lon="6.01336">
        <ele>318.39999389648</ele>
        <time>2016-05-25T13:24:20Z</time>
      </trkpt>
      <trkpt lat="43.43429" lon="6.01332">
        <ele>318.79998779297</ele>
        <time>2016-05-25T13:24:23Z</time>
      </trkpt>
      <trkpt lat="43.43434" lon="6.01326">
        <ele>319.39999389648</ele>
        <time>2016-05-25T13:24:27Z</time>
      </trkpt>
      <trkpt lat="43.43437" lon="6.01323">
        <ele>320.20001220703</ele>
        <time>2016-05-25T13:24:29Z</time>
      </trkpt>
      <trkpt lat="43.43438" lon="6.01322">
        <ele>320.39999389648</ele>
        <time>2016-05-25T13:24:30Z</time>
      </trkpt>
      <trkpt lat="43.4344" lon="6.01319">
        <ele>320.60000610352</ele>
        <time>2016-05-25T13:24:32Z</time>
      </trkpt>
      <trkpt lat="43.43442" lon="6.01316">
        <ele>321</ele>
        <time>2016-05-25T13:24:34Z</time>
      </trkpt>
      <trkpt lat="43.43443" lon="6.01311">
        <ele>321.60000610352</ele>
        <time>2016-05-25T13:24:36Z</time>
      </trkpt>
      <trkpt lat="43.43446" lon="6.01302">
        <ele>322.20001220703</ele>
        <time>2016-05-25T13:24:40Z</time>
      </trkpt>
      <trkpt lat="43.43447" lon="6.013">
        <ele>322.39999389648</ele>
        <time>2016-05-25T13:24:41Z</time>
      </trkpt>
      <trkpt lat="43.43449" lon="6.01297">
        <ele>322.60000610352</ele>
        <time>2016-05-25T13:24:43Z</time>
      </trkpt>
      <trkpt lat="43.43451" lon="6.01294">
        <ele>322.79998779297</ele>
        <time>2016-05-25T13:24:45Z</time>
      </trkpt>
      <trkpt lat="43.43453" lon="6.0129">
        <ele>323.60000610352</ele>
        <time>2016-05-25T13:24:48Z</time>
      </trkpt>
      <trkpt lat="43.43454" lon="6.01288">
        <ele>323.79998779297</ele>
        <time>2016-05-25T13:24:49Z</time>
      </trkpt>
      <trkpt lat="43.43455" lon="6.01278">
        <ele>324.79998779297</ele>
        <time>2016-05-25T13:24:54Z</time>
      </trkpt>
      <trkpt lat="43.43454" lon="6.01275">
        <ele>325.20001220703</ele>
        <time>2016-05-25T13:24:56Z</time>
      </trkpt>
      <trkpt lat="43.43455" lon="6.01273">
        <ele>325.20001220703</ele>
        <time>2016-05-25T13:24:57Z</time>
      </trkpt>
      <trkpt lat="43.43456" lon="6.01266">
        <ele>326</ele>
        <time>2016-05-25T13:25:01Z</time>
      </trkpt>
      <trkpt lat="43.43457" lon="6.0126">
        <ele>326.60000610352</ele>
        <time>2016-05-25T13:25:04Z</time>
      </trkpt>
      <trkpt lat="43.43458" lon="6.01259">
        <ele>326.79998779297</ele>
        <time>2016-05-25T13:25:05Z</time>
      </trkpt>
      <trkpt lat="43.43459" lon="6.01258">
        <ele>327</ele>
        <time>2016-05-25T13:25:06Z</time>
      </trkpt>
      <trkpt lat="43.43459" lon="6.01256">
        <ele>327.20001220703</ele>
        <time>2016-05-25T13:25:07Z</time>
      </trkpt>
      <trkpt lat="43.43463" lon="6.01251">
        <ele>327.20001220703</ele>
        <time>2016-05-25T13:25:11Z</time>
      </trkpt>
      <trkpt lat="43.43466" lon="6.01247">
        <ele>327.60000610352</ele>
        <time>2016-05-25T13:25:14Z</time>
      </trkpt>
      <trkpt lat="43.4347" lon="6.01243">
        <ele>328</ele>
        <time>2016-05-25T13:25:17Z</time>
      </trkpt>
      <trkpt lat="43.43475" lon="6.01234">
        <ele>328.39999389648</ele>
        <time>2016-05-25T13:25:22Z</time>
      </trkpt>
      <trkpt lat="43.43476" lon="6.01223">
        <ele>328.60000610352</ele>
        <time>2016-05-25T13:25:28Z</time>
      </trkpt>
      <trkpt lat="43.43477" lon="6.01217">
        <ele>329.20001220703</ele>
        <time>2016-05-25T13:25:31Z</time>
      </trkpt>
      <trkpt lat="43.43477" lon="6.01206">
        <ele>330</ele>
        <time>2016-05-25T13:25:36Z</time>
      </trkpt>
      <trkpt lat="43.43477" lon="6.01201">
        <ele>330.20001220703</ele>
        <time>2016-05-25T13:25:38Z</time>
      </trkpt>
      <trkpt lat="43.43477" lon="6.01189">
        <ele>330.60000610352</ele>
        <time>2016-05-25T13:25:43Z</time>
      </trkpt>
      <trkpt lat="43.43476" lon="6.01178">
        <ele>331.20001220703</ele>
        <time>2016-05-25T13:25:48Z</time>
      </trkpt>
      <trkpt lat="43.43476" lon="6.01171">
        <ele>331.60000610352</ele>
        <time>2016-05-25T13:25:51Z</time>
      </trkpt>
      <trkpt lat="43.43476" lon="6.01158">
        <ele>332.20001220703</ele>
        <time>2016-05-25T13:25:56Z</time>
      </trkpt>
      <trkpt lat="43.43476" lon="6.01153">
        <ele>332.39999389648</ele>
        <time>2016-05-25T13:25:58Z</time>
      </trkpt>
      <trkpt lat="43.43481" lon="6.01141">
        <ele>333</ele>
        <time>2016-05-25T13:26:03Z</time>
      </trkpt>
      <trkpt lat="43.43486" lon="6.01132">
        <ele>333.20001220703</ele>
        <time>2016-05-25T13:26:08Z</time>
      </trkpt>
      <trkpt lat="43.43489" lon="6.01126">
        <ele>333.60000610352</ele>
        <time>2016-05-25T13:26:11Z</time>
      </trkpt>
      <trkpt lat="43.43497" lon="6.01108">
        <ele>334.20001220703</ele>
        <time>2016-05-25T13:26:19Z</time>
      </trkpt>
      <trkpt lat="43.435" lon="6.011">
        <ele>334.60000610352</ele>
        <time>2016-05-25T13:26:22Z</time>
      </trkpt>
      <trkpt lat="43.43504" lon="6.0108">
        <ele>335.39999389648</ele>
        <time>2016-05-25T13:26:30Z</time>
      </trkpt>
      <trkpt lat="43.435" lon="6.01058">
        <ele>336.20001220703</ele>
        <time>2016-05-25T13:26:38Z</time>
      </trkpt>
      <trkpt lat="43.43499" lon="6.01056">
        <ele>336.39999389648</ele>
        <time>2016-05-25T13:26:39Z</time>
      </trkpt>
      <trkpt lat="43.43496" lon="6.01032">
        <ele>337.60000610352</ele>
        <time>2016-05-25T13:26:48Z</time>
      </trkpt>
      <trkpt lat="43.43495" lon="6.01014">
        <ele>338.39999389648</ele>
        <time>2016-05-25T13:26:55Z</time>
      </trkpt>
      <trkpt lat="43.43494" lon="6.01009">
        <ele>338.79998779297</ele>
        <time>2016-05-25T13:26:57Z</time>
      </trkpt>
      <trkpt lat="43.43497" lon="6.00996">
        <ele>339.39999389648</ele>
        <time>2016-05-25T13:27:02Z</time>
      </trkpt>
      <trkpt lat="43.43497" lon="6.00991">
        <ele>339.79998779297</ele>
        <time>2016-05-25T13:27:04Z</time>
      </trkpt>
      <trkpt lat="43.43499" lon="6.00982">
        <ele>340.60000610352</ele>
        <time>2016-05-25T13:27:08Z</time>
      </trkpt>
      <trkpt lat="43.435" lon="6.00977">
        <ele>341</ele>
        <time>2016-05-25T13:27:10Z</time>
      </trkpt>
      <trkpt lat="43.43502" lon="6.00968">
        <ele>341.79998779297</ele>
        <time>2016-05-25T13:27:14Z</time>
      </trkpt>
      <trkpt lat="43.43502" lon="6.00966">
        <ele>342.20001220703</ele>
        <time>2016-05-25T13:27:15Z</time>
      </trkpt>
      <trkpt lat="43.43503" lon="6.00962">
        <ele>342.79998779297</ele>
        <time>2016-05-25T13:27:17Z</time>
      </trkpt>
      <trkpt lat="43.43504" lon="6.00956">
        <ele>344</ele>
        <time>2016-05-25T13:27:20Z</time>
      </trkpt>
      <trkpt lat="43.43505" lon="6.00949">
        <ele>344.79998779297</ele>
        <time>2016-05-25T13:27:23Z</time>
      </trkpt>
      <trkpt lat="43.43507" lon="6.00942">
        <ele>345</ele>
        <time>2016-05-25T13:27:26Z</time>
      </trkpt>
      <trkpt lat="43.43508" lon="6.00934">
        <ele>345.60000610352</ele>
        <time>2016-05-25T13:27:30Z</time>
      </trkpt>
      <trkpt lat="43.43509" lon="6.00927">
        <ele>346</ele>
        <time>2016-05-25T13:27:34Z</time>
      </trkpt>
      <trkpt lat="43.4351" lon="6.0092">
        <ele>346.20001220703</ele>
        <time>2016-05-25T13:27:37Z</time>
      </trkpt>
      <trkpt lat="43.43511" lon="6.0091">
        <ele>347.20001220703</ele>
        <time>2016-05-25T13:27:42Z</time>
      </trkpt>
      <trkpt lat="43.43513" lon="6.009">
        <ele>347.39999389648</ele>
        <time>2016-05-25T13:27:47Z</time>
      </trkpt>
      <trkpt lat="43.43514" lon="6.00894">
        <ele>348.20001220703</ele>
        <time>2016-05-25T13:27:50Z</time>
      </trkpt>
      <trkpt lat="43.43516" lon="6.00887">
        <ele>348.79998779297</ele>
        <time>2016-05-25T13:27:54Z</time>
      </trkpt>
      <trkpt lat="43.43518" lon="6.0088">
        <ele>349.20001220703</ele>
        <time>2016-05-25T13:27:58Z</time>
      </trkpt>
      <trkpt lat="43.4352" lon="6.00873">
        <ele>349.60000610352</ele>
        <time>2016-05-25T13:28:01Z</time>
      </trkpt>
      <trkpt lat="43.43522" lon="6.00863">
        <ele>350.20001220703</ele>
        <time>2016-05-25T13:28:06Z</time>
      </trkpt>
      <trkpt lat="43.43523" lon="6.00862">
        <ele>350.60000610352</ele>
        <time>2016-05-25T13:28:07Z</time>
      </trkpt>
      <trkpt lat="43.43526" lon="6.00846">
        <ele>351.39999389648</ele>
        <time>2016-05-25T13:28:14Z</time>
      </trkpt>
      <trkpt lat="43.43528" lon="6.00838">
        <ele>351.79998779297</ele>
        <time>2016-05-25T13:28:18Z</time>
      </trkpt>
      <trkpt lat="43.43529" lon="6.00829">
        <ele>352.39999389648</ele>
        <time>2016-05-25T13:28:22Z</time>
      </trkpt>
      <trkpt lat="43.43529" lon="6.00825">
        <ele>353</ele>
        <time>2016-05-25T13:28:24Z</time>
      </trkpt>
      <trkpt lat="43.4353" lon="6.00818">
        <ele>353.60000610352</ele>
        <time>2016-05-25T13:28:29Z</time>
      </trkpt>
      <trkpt lat="43.43531" lon="6.00816">
        <ele>353.39999389648</ele>
        <time>2016-05-25T13:28:31Z</time>
      </trkpt>
      <trkpt lat="43.43531" lon="6.00816">
        <ele>353.39999389648</ele>
        <time>2016-05-25T13:28:36Z</time>
      </trkpt>
      <trkpt lat="43.43531" lon="6.00816">
        <ele>353.39999389648</ele>
        <time>2016-05-25T13:28:37Z</time>
      </trkpt>
      <trkpt lat="43.43533" lon="6.00817">
        <ele>353.60000610352</ele>
        <time>2016-05-25T13:28:42Z</time>
      </trkpt>
      <trkpt lat="43.43532" lon="6.00817">
        <ele>353.60000610352</ele>
        <time>2016-05-25T13:28:44Z</time>
      </trkpt>
      <trkpt lat="43.43533" lon="6.00817">
        <ele>353.79998779297</ele>
        <time>2016-05-25T13:28:48Z</time>
      </trkpt>
      <trkpt lat="43.43533" lon="6.00817">
        <ele>353.79998779297</ele>
        <time>2016-05-25T13:28:50Z</time>
      </trkpt>
      <trkpt lat="43.43533" lon="6.00817">
        <ele>353.79998779297</ele>
        <time>2016-05-25T13:28:52Z</time>
      </trkpt>
      <trkpt lat="43.43533" lon="6.00817">
        <ele>353.60000610352</ele>
        <time>2016-05-25T13:28:56Z</time>
      </trkpt>
      <trkpt lat="43.43533" lon="6.00817">
        <ele>353.60000610352</ele>
        <time>2016-05-25T13:28:57Z</time>
      </trkpt>
      <trkpt lat="43.43533" lon="6.00817">
        <ele>353.60000610352</ele>
        <time>2016-05-25T13:29:05Z</time>
      </trkpt>
      <trkpt lat="43.43533" lon="6.00817">
        <ele>353.60000610352</ele>
        <time>2016-05-25T13:29:07Z</time>
      </trkpt>
      <trkpt lat="43.43533" lon="6.00817">
        <ele>353.60000610352</ele>
        <time>2016-05-25T13:29:10Z</time>
      </trkpt>
      <trkpt lat="43.43533" lon="6.00817">
        <ele>353.60000610352</ele>
        <time>2016-05-25T13:29:14Z</time>
      </trkpt>
      <trkpt lat="43.43533" lon="6.00817">
        <ele>353.60000610352</ele>
        <time>2016-05-25T13:29:17Z</time>
      </trkpt>
      <trkpt lat="43.43533" lon="6.00817">
        <ele>353.79998779297</ele>
        <time>2016-05-25T13:29:26Z</time>
      </trkpt>
      <trkpt lat="43.43533" lon="6.00817">
        <ele>353.60000610352</ele>
        <time>2016-05-25T13:29:31Z</time>
      </trkpt>
      <trkpt lat="43.43533" lon="6.00817">
        <ele>353.60000610352</ele>
        <time>2016-05-25T13:29:41Z</time>
      </trkpt>
      <trkpt lat="43.43533" lon="6.00817">
        <ele>353.60000610352</ele>
        <time>2016-05-25T13:29:43Z</time>
      </trkpt>
      <trkpt lat="43.43533" lon="6.00817">
        <ele>353.79998779297</ele>
        <time>2016-05-25T13:29:47Z</time>
      </trkpt>
      <trkpt lat="43.43533" lon="6.00817">
        <ele>353.79998779297</ele>
        <time>2016-05-25T13:29:57Z</time>
      </trkpt>
      <trkpt lat="43.43533" lon="6.00817">
        <ele>353.79998779297</ele>
        <time>2016-05-25T13:29:58Z</time>
      </trkpt>
      <trkpt lat="43.43533" lon="6.00817">
        <ele>353.79998779297</ele>
        <time>2016-05-25T13:30:03Z</time>
      </trkpt>
      <trkpt lat="43.43533" lon="6.00817">
        <ele>354</ele>
        <time>2016-05-25T13:30:06Z</time>
      </trkpt>
      <trkpt lat="43.43533" lon="6.00817">
        <ele>354.20001220703</ele>
        <time>2016-05-25T13:30:14Z</time>
      </trkpt>
      <trkpt lat="43.43533" lon="6.00817">
        <ele>354.20001220703</ele>
        <time>2016-05-25T13:30:20Z</time>
      </trkpt>
      <trkpt lat="43.43533" lon="6.00817">
        <ele>354</ele>
        <time>2016-05-25T13:30:29Z</time>
      </trkpt>
      <trkpt lat="43.43533" lon="6.00817">
        <ele>353.79998779297</ele>
        <time>2016-05-25T13:30:41Z</time>
      </trkpt>
      <trkpt lat="43.43533" lon="6.00817">
        <ele>354.20001220703</ele>
        <time>2016-05-25T13:30:52Z</time>
      </trkpt>
      <trkpt lat="43.43533" lon="6.00817">
        <ele>354</ele>
        <time>2016-05-25T13:31:11Z</time>
      </trkpt>
      <trkpt lat="43.43533" lon="6.00817">
        <ele>354.20001220703</ele>
        <time>2016-05-25T13:31:22Z</time>
      </trkpt>
      <trkpt lat="43.43532" lon="6.00817">
        <ele>354.20001220703</ele>
        <time>2016-05-25T13:31:27Z</time>
      </trkpt>
      <trkpt lat="43.43532" lon="6.00817">
        <ele>354.20001220703</ele>
        <time>2016-05-25T13:31:29Z</time>
      </trkpt>
      <trkpt lat="43.43533" lon="6.00817">
        <ele>354.39999389648</ele>
        <time>2016-05-25T13:31:49Z</time>
      </trkpt>
      <trkpt lat="43.43533" lon="6.00817">
        <ele>354.79998779297</ele>
        <time>2016-05-25T13:31:56Z</time>
      </trkpt>
      <trkpt lat="43.43533" lon="6.00817">
        <ele>354.39999389648</ele>
        <time>2016-05-25T13:32:15Z</time>
      </trkpt>
      <trkpt lat="43.43533" lon="6.00817">
        <ele>354.20001220703</ele>
        <time>2016-05-25T13:32:32Z</time>
      </trkpt>
      <trkpt lat="43.43533" lon="6.00817">
        <ele>354.20001220703</ele>
        <time>2016-05-25T13:32:43Z</time>
      </trkpt>
      <trkpt lat="43.43533" lon="6.00817">
        <ele>354.39999389648</ele>
        <time>2016-05-25T13:32:56Z</time>
      </trkpt>
      <trkpt lat="43.43533" lon="6.00817">
        <ele>354.20001220703</ele>
        <time>2016-05-25T13:33:10Z</time>
      </trkpt>
      <trkpt lat="43.43533" lon="6.00817">
        <ele>354.39999389648</ele>
        <time>2016-05-25T13:33:30Z</time>
      </trkpt>
      <trkpt lat="43.43533" lon="6.00817">
        <ele>354.39999389648</ele>
        <time>2016-05-25T13:33:51Z</time>
      </trkpt>
      <trkpt lat="43.43533" lon="6.00817">
        <ele>354.39999389648</ele>
        <time>2016-05-25T13:34:05Z</time>
      </trkpt>
      <trkpt lat="43.43533" lon="6.00816">
        <ele>354.39999389648</ele>
        <time>2016-05-25T13:34:18Z</time>
      </trkpt>
      <trkpt lat="43.43536" lon="6.00813">
        <ele>354.20001220703</ele>
        <time>2016-05-25T13:34:25Z</time>
      </trkpt>
      <trkpt lat="43.43536" lon="6.00815">
        <ele>354.39999389648</ele>
        <time>2016-05-25T13:34:27Z</time>
      </trkpt>
      <trkpt lat="43.43534" lon="6.00816">
        <ele>354.60000610352</ele>
        <time>2016-05-25T13:34:30Z</time>
      </trkpt>
      <trkpt lat="43.43533" lon="6.00816">
        <ele>354.39999389648</ele>
        <time>2016-05-25T13:34:35Z</time>
      </trkpt>
      <trkpt lat="43.43532" lon="6.00816">
        <ele>354.39999389648</ele>
        <time>2016-05-25T13:34:43Z</time>
      </trkpt>
      <trkpt lat="43.43533" lon="6.00816">
        <ele>354.60000610352</ele>
        <time>2016-05-25T13:34:48Z</time>
      </trkpt>
      <trkpt lat="43.43533" lon="6.00816">
        <ele>354.60000610352</ele>
        <time>2016-05-25T13:35:06Z</time>
      </trkpt>
      <trkpt lat="43.43533" lon="6.00816">
        <ele>354.20001220703</ele>
        <time>2016-05-25T13:35:32Z</time>
      </trkpt>
      <trkpt lat="43.43533" lon="6.00816">
        <ele>354</ele>
        <time>2016-05-25T13:35:54Z</time>
      </trkpt>
      <trkpt lat="43.43533" lon="6.00816">
        <ele>354</ele>
        <time>2016-05-25T13:36:21Z</time>
      </trkpt>
      <trkpt lat="43.43533" lon="6.00816">
        <ele>354</ele>
        <time>2016-05-25T13:36:32Z</time>
      </trkpt>
      <trkpt lat="43.43533" lon="6.00816">
        <ele>354</ele>
        <time>2016-05-25T13:36:38Z</time>
      </trkpt>
      <trkpt lat="43.43533" lon="6.00816">
        <ele>354.20001220703</ele>
        <time>2016-05-25T13:37:03Z</time>
      </trkpt>
      <trkpt lat="43.43533" lon="6.00816">
        <ele>354.20001220703</ele>
        <time>2016-05-25T13:37:15Z</time>
      </trkpt>
      <trkpt lat="43.43533" lon="6.00816">
        <ele>354.39999389648</ele>
        <time>2016-05-25T13:37:22Z</time>
      </trkpt>
      <trkpt lat="43.43533" lon="6.00816">
        <ele>354.20001220703</ele>
        <time>2016-05-25T13:37:41Z</time>
      </trkpt>
      <trkpt lat="43.43533" lon="6.00816">
        <ele>354.20001220703</ele>
        <time>2016-05-25T13:37:51Z</time>
      </trkpt>
      <trkpt lat="43.43533" lon="6.00816">
        <ele>354.39999389648</ele>
        <time>2016-05-25T13:38:30Z</time>
      </trkpt>
      <trkpt lat="43.43533" lon="6.00815">
        <ele>354</ele>
        <time>2016-05-25T13:38:48Z</time>
      </trkpt>
      <trkpt lat="43.43538" lon="6.00803">
        <ele>354</ele>
        <time>2016-05-25T13:38:54Z</time>
      </trkpt>
      <trkpt lat="43.43543" lon="6.00782">
        <ele>353.79998779297</ele>
        <time>2016-05-25T13:39:00Z</time>
      </trkpt>
      <trkpt lat="43.43549" lon="6.00762">
        <ele>353.39999389648</ele>
        <time>2016-05-25T13:39:04Z</time>
      </trkpt>
      <trkpt lat="43.43551" lon="6.00757">
        <ele>353.39999389648</ele>
        <time>2016-05-25T13:39:05Z</time>
      </trkpt>
      <trkpt lat="43.43563" lon="6.00723">
        <ele>352.39999389648</ele>
        <time>2016-05-25T13:39:10Z</time>
      </trkpt>
      <trkpt lat="43.43573" lon="6.007">
        <ele>351.20001220703</ele>
        <time>2016-05-25T13:39:13Z</time>
      </trkpt>
      <trkpt lat="43.43578" lon="6.00686">
        <ele>349.39999389648</ele>
        <time>2016-05-25T13:39:15Z</time>
      </trkpt>
      <trkpt lat="43.43579" lon="6.00679">
        <ele>348.39999389648</ele>
        <time>2016-05-25T13:39:16Z</time>
      </trkpt>
      <trkpt lat="43.43579" lon="6.00672">
        <ele>347.20001220703</ele>
        <time>2016-05-25T13:39:17Z</time>
      </trkpt>
      <trkpt lat="43.43574" lon="6.00659">
        <ele>345.20001220703</ele>
        <time>2016-05-25T13:39:19Z</time>
      </trkpt>
      <trkpt lat="43.43571" lon="6.00653">
        <ele>344.39999389648</ele>
        <time>2016-05-25T13:39:20Z</time>
      </trkpt>
      <trkpt lat="43.43569" lon="6.00648">
        <ele>344.20001220703</ele>
        <time>2016-05-25T13:39:21Z</time>
      </trkpt>
      <trkpt lat="43.43558" lon="6.00634">
        <ele>343.60000610352</ele>
        <time>2016-05-25T13:39:24Z</time>
      </trkpt>
      <trkpt lat="43.43556" lon="6.00629">
        <ele>343.20001220703</ele>
        <time>2016-05-25T13:39:25Z</time>
      </trkpt>
      <trkpt lat="43.43558" lon="6.0062">
        <ele>342.20001220703</ele>
        <time>2016-05-25T13:39:27Z</time>
      </trkpt>
      <trkpt lat="43.43558" lon="6.00615">
        <ele>341.79998779297</ele>
        <time>2016-05-25T13:39:28Z</time>
      </trkpt>
      <trkpt lat="43.43559" lon="6.0061">
        <ele>341.60000610352</ele>
        <time>2016-05-25T13:39:29Z</time>
      </trkpt>
      <trkpt lat="43.43562" lon="6.00599">
        <ele>341.20001220703</ele>
        <time>2016-05-25T13:39:31Z</time>
      </trkpt>
      <trkpt lat="43.43568" lon="6.0059">
        <ele>340.39999389648</ele>
        <time>2016-05-25T13:39:33Z</time>
      </trkpt>
      <trkpt lat="43.43576" lon="6.00577">
        <ele>339.39999389648</ele>
        <time>2016-05-25T13:39:36Z</time>
      </trkpt>
      <trkpt lat="43.43582" lon="6.00565">
        <ele>338.20001220703</ele>
        <time>2016-05-25T13:39:38Z</time>
      </trkpt>
      <trkpt lat="43.43586" lon="6.00558">
        <ele>337.60000610352</ele>
        <time>2016-05-25T13:39:39Z</time>
      </trkpt>
      <trkpt lat="43.43594" lon="6.00546">
        <ele>337</ele>
        <time>2016-05-25T13:39:41Z</time>
      </trkpt>
      <trkpt lat="43.43607" lon="6.00528">
        <ele>336</ele>
        <time>2016-05-25T13:39:44Z</time>
      </trkpt>
      <trkpt lat="43.43611" lon="6.00521">
        <ele>335.79998779297</ele>
        <time>2016-05-25T13:39:45Z</time>
      </trkpt>
      <trkpt lat="43.43615" lon="6.00513">
        <ele>335.60000610352</ele>
        <time>2016-05-25T13:39:46Z</time>
      </trkpt>
      <trkpt lat="43.4362" lon="6.00498">
        <ele>334.79998779297</ele>
        <time>2016-05-25T13:39:48Z</time>
      </trkpt>
      <trkpt lat="43.43624" lon="6.00475">
        <ele>333.60000610352</ele>
        <time>2016-05-25T13:39:51Z</time>
      </trkpt>
      <trkpt lat="43.43624" lon="6.00467">
        <ele>332.79998779297</ele>
        <time>2016-05-25T13:39:52Z</time>
      </trkpt>
      <trkpt lat="43.43624" lon="6.0046">
        <ele>332.39999389648</ele>
        <time>2016-05-25T13:39:53Z</time>
      </trkpt>
      <trkpt lat="43.43623" lon="6.00444">
        <ele>331.79998779297</ele>
        <time>2016-05-25T13:39:55Z</time>
      </trkpt>
      <trkpt lat="43.43616" lon="6.00421">
        <ele>331.60000610352</ele>
        <time>2016-05-25T13:39:58Z</time>
      </trkpt>
      <trkpt lat="43.43613" lon="6.00413">
        <ele>331</ele>
        <time>2016-05-25T13:39:59Z</time>
      </trkpt>
      <trkpt lat="43.43611" lon="6.00404">
        <ele>330</ele>
        <time>2016-05-25T13:40:00Z</time>
      </trkpt>
      <trkpt lat="43.4361" lon="6.00386">
        <ele>328.60000610352</ele>
        <time>2016-05-25T13:40:02Z</time>
      </trkpt>
      <trkpt lat="43.43615" lon="6.00361">
        <ele>327.60000610352</ele>
        <time>2016-05-25T13:40:05Z</time>
      </trkpt>
      <trkpt lat="43.43621" lon="6.00348">
        <ele>327.20001220703</ele>
        <time>2016-05-25T13:40:07Z</time>
      </trkpt>
      <trkpt lat="43.43632" lon="6.00329">
        <ele>326.79998779297</ele>
        <time>2016-05-25T13:40:10Z</time>
      </trkpt>
      <trkpt lat="43.43636" lon="6.00323">
        <ele>326.20001220703</ele>
        <time>2016-05-25T13:40:11Z</time>
      </trkpt>
      <trkpt lat="43.43641" lon="6.00316">
        <ele>325.60000610352</ele>
        <time>2016-05-25T13:40:12Z</time>
      </trkpt>
      <trkpt lat="43.43646" lon="6.0031">
        <ele>325.20001220703</ele>
        <time>2016-05-25T13:40:13Z</time>
      </trkpt>
      <trkpt lat="43.43655" lon="6.00298">
        <ele>324.79998779297</ele>
        <time>2016-05-25T13:40:15Z</time>
      </trkpt>
      <trkpt lat="43.43658" lon="6.00291">
        <ele>324.60000610352</ele>
        <time>2016-05-25T13:40:16Z</time>
      </trkpt>
      <trkpt lat="43.43668" lon="6.00275">
        <ele>324.20001220703</ele>
        <time>2016-05-25T13:40:19Z</time>
      </trkpt>
      <trkpt lat="43.43675" lon="6.00265">
        <ele>323.20001220703</ele>
        <time>2016-05-25T13:40:21Z</time>
      </trkpt>
      <trkpt lat="43.43689" lon="6.00263">
        <ele>322.60000610352</ele>
        <time>2016-05-25T13:40:24Z</time>
      </trkpt>
      <trkpt lat="43.43693" lon="6.00266">
        <ele>322.60000610352</ele>
        <time>2016-05-25T13:40:25Z</time>
      </trkpt>
      <trkpt lat="43.43697" lon="6.00268">
        <ele>322.60000610352</ele>
        <time>2016-05-25T13:40:26Z</time>
      </trkpt>
      <trkpt lat="43.4371" lon="6.00271">
        <ele>322.39999389648</ele>
        <time>2016-05-25T13:40:29Z</time>
      </trkpt>
      <trkpt lat="43.43714" lon="6.00271">
        <ele>322.39999389648</ele>
        <time>2016-05-25T13:40:30Z</time>
      </trkpt>
      <trkpt lat="43.43718" lon="6.0027">
        <ele>322</ele>
        <time>2016-05-25T13:40:31Z</time>
      </trkpt>
      <trkpt lat="43.43733" lon="6.00266">
        <ele>321.60000610352</ele>
        <time>2016-05-25T13:40:35Z</time>
      </trkpt>
      <trkpt lat="43.43737" lon="6.00264">
        <ele>321.60000610352</ele>
        <time>2016-05-25T13:40:37Z</time>
      </trkpt>
      <trkpt lat="43.43737" lon="6.00264">
        <ele>321.60000610352</ele>
        <time>2016-05-25T13:40:38Z</time>
      </trkpt>
      <trkpt lat="43.43737" lon="6.00263">
        <ele>321.79998779297</ele>
        <time>2016-05-25T13:40:49Z</time>
      </trkpt>
      <trkpt lat="43.43737" lon="6.00262">
        <ele>321.60000610352</ele>
        <time>2016-05-25T13:41:15Z</time>
      </trkpt>
      <trkpt lat="43.43737" lon="6.00263">
        <ele>322</ele>
        <time>2016-05-25T13:41:54Z</time>
      </trkpt>
      <trkpt lat="43.43737" lon="6.00263">
        <ele>321.79998779297</ele>
        <time>2016-05-25T13:41:55Z</time>
      </trkpt>
      <trkpt lat="43.43737" lon="6.00262">
        <ele>321.60000610352</ele>
        <time>2016-05-25T13:42:25Z</time>
      </trkpt>
      <trkpt lat="43.43737" lon="6.00262">
        <ele>321.79998779297</ele>
        <time>2016-05-25T13:42:43Z</time>
      </trkpt>
      <trkpt lat="43.43737" lon="6.00262">
        <ele>322.20001220703</ele>
        <time>2016-05-25T13:43:12Z</time>
      </trkpt>
      <trkpt lat="43.43737" lon="6.00262">
        <ele>322.39999389648</ele>
        <time>2016-05-25T13:43:16Z</time>
      </trkpt>
      <trkpt lat="43.43737" lon="6.00262">
        <ele>322.20001220703</ele>
        <time>2016-05-25T13:43:22Z</time>
      </trkpt>
      <trkpt lat="43.43737" lon="6.00262">
        <ele>322.20001220703</ele>
        <time>2016-05-25T13:43:34Z</time>
      </trkpt>
      <trkpt lat="43.43737" lon="6.00262">
        <ele>322.20001220703</ele>
        <time>2016-05-25T13:43:35Z</time>
      </trkpt>
      <trkpt lat="43.43737" lon="6.00262">
        <ele>322</ele>
        <time>2016-05-25T13:43:48Z</time>
      </trkpt>
      <trkpt lat="43.43738" lon="6.00262">
        <ele>322.39999389648</ele>
        <time>2016-05-25T13:44:06Z</time>
      </trkpt>
      <trkpt lat="43.4374" lon="6.00263">
        <ele>321.79998779297</ele>
        <time>2016-05-25T13:44:20Z</time>
      </trkpt>
      <trkpt lat="43.43746" lon="6.00271">
        <ele>321.60000610352</ele>
        <time>2016-05-25T13:44:24Z</time>
      </trkpt>
      <trkpt lat="43.4375" lon="6.00294">
        <ele>321.39999389648</ele>
        <time>2016-05-25T13:44:29Z</time>
      </trkpt>
      <trkpt lat="43.43753" lon="6.00331">
        <ele>321</ele>
        <time>2016-05-25T13:44:36Z</time>
      </trkpt>
      <trkpt lat="43.43753" lon="6.00335">
        <ele>320.79998779297</ele>
        <time>2016-05-25T13:44:37Z</time>
      </trkpt>
      <trkpt lat="43.43751" lon="6.00348">
        <ele>320.20001220703</ele>
        <time>2016-05-25T13:44:40Z</time>
      </trkpt>
      <trkpt lat="43.43749" lon="6.00359">
        <ele>319.60000610352</ele>
        <time>2016-05-25T13:44:42Z</time>
      </trkpt>
      <trkpt lat="43.43749" lon="6.00378">
        <ele>319.39999389648</ele>
        <time>2016-05-25T13:44:45Z</time>
      </trkpt>
      <trkpt lat="43.4375" lon="6.00385">
        <ele>319.20001220703</ele>
        <time>2016-05-25T13:44:46Z</time>
      </trkpt>
      <trkpt lat="43.43754" lon="6.00403">
        <ele>319</ele>
        <time>2016-05-25T13:44:49Z</time>
      </trkpt>
      <trkpt lat="43.43755" lon="6.00418">
        <ele>318.60000610352</ele>
        <time>2016-05-25T13:44:51Z</time>
      </trkpt>
      <trkpt lat="43.43755" lon="6.00425">
        <ele>318.39999389648</ele>
        <time>2016-05-25T13:44:52Z</time>
      </trkpt>
      <trkpt lat="43.43757" lon="6.00439">
        <ele>317.60000610352</ele>
        <time>2016-05-25T13:44:54Z</time>
      </trkpt>
      <trkpt lat="43.43761" lon="6.00452">
        <ele>317.20001220703</ele>
        <time>2016-05-25T13:44:56Z</time>
      </trkpt>
      <trkpt lat="43.4377" lon="6.00479">
        <ele>317</ele>
        <time>2016-05-25T13:45:00Z</time>
      </trkpt>
      <trkpt lat="43.43774" lon="6.00495">
        <ele>316.60000610352</ele>
        <time>2016-05-25T13:45:02Z</time>
      </trkpt>
      <trkpt lat="43.43776" lon="6.00502">
        <ele>316.39999389648</ele>
        <time>2016-05-25T13:45:03Z</time>
      </trkpt>
      <trkpt lat="43.43778" lon="6.00509">
        <ele>316.20001220703</ele>
        <time>2016-05-25T13:45:04Z</time>
      </trkpt>
      <trkpt lat="43.43789" lon="6.00518">
        <ele>315.60000610352</ele>
        <time>2016-05-25T13:45:07Z</time>
      </trkpt>
      <trkpt lat="43.43793" lon="6.00521">
        <ele>315.60000610352</ele>
        <time>2016-05-25T13:45:08Z</time>
      </trkpt>
      <trkpt lat="43.43801" lon="6.00528">
        <ele>315.20001220703</ele>
        <time>2016-05-25T13:45:10Z</time>
      </trkpt>
      <trkpt lat="43.43808" lon="6.00537">
        <ele>314.60000610352</ele>
        <time>2016-05-25T13:45:12Z</time>
      </trkpt>
      <trkpt lat="43.4381" lon="6.00543">
        <ele>314</ele>
        <time>2016-05-25T13:45:13Z</time>
      </trkpt>
      <trkpt lat="43.43812" lon="6.00555">
        <ele>313.39999389648</ele>
        <time>2016-05-25T13:45:15Z</time>
      </trkpt>
      <trkpt lat="43.43813" lon="6.00562">
        <ele>313.39999389648</ele>
        <time>2016-05-25T13:45:16Z</time>
      </trkpt>
      <trkpt lat="43.43815" lon="6.00573">
        <ele>313.20001220703</ele>
        <time>2016-05-25T13:45:18Z</time>
      </trkpt>
      <trkpt lat="43.43822" lon="6.00591">
        <ele>313.20001220703</ele>
        <time>2016-05-25T13:45:21Z</time>
      </trkpt>
      <trkpt lat="43.43832" lon="6.00611">
        <ele>312.79998779297</ele>
        <time>2016-05-25T13:45:25Z</time>
      </trkpt>
      <trkpt lat="43.43839" lon="6.0062">
        <ele>312.79998779297</ele>
        <time>2016-05-25T13:45:27Z</time>
      </trkpt>
      <trkpt lat="43.43841" lon="6.00633">
        <ele>313.20001220703</ele>
        <time>2016-05-25T13:45:30Z</time>
      </trkpt>
      <trkpt lat="43.43839" lon="6.00639">
        <ele>313.20001220703</ele>
        <time>2016-05-25T13:45:33Z</time>
      </trkpt>
      <trkpt lat="43.43837" lon="6.00643">
        <ele>313.20001220703</ele>
        <time>2016-05-25T13:45:35Z</time>
      </trkpt>
      <trkpt lat="43.43837" lon="6.00645">
        <ele>313.20001220703</ele>
        <time>2016-05-25T13:45:36Z</time>
      </trkpt>
      <trkpt lat="43.43836" lon="6.00655">
        <ele>314.60000610352</ele>
        <time>2016-05-25T13:45:40Z</time>
      </trkpt>
      <trkpt lat="43.43836" lon="6.0066">
        <ele>315.20001220703</ele>
        <time>2016-05-25T13:45:42Z</time>
      </trkpt>
      <trkpt lat="43.43835" lon="6.00663">
        <ele>315.60000610352</ele>
        <time>2016-05-25T13:45:43Z</time>
      </trkpt>
      <trkpt lat="43.43834" lon="6.00669">
        <ele>315.60000610352</ele>
        <time>2016-05-25T13:45:45Z</time>
      </trkpt>
      <trkpt lat="43.43831" lon="6.00675">
        <ele>315.79998779297</ele>
        <time>2016-05-25T13:45:48Z</time>
      </trkpt>
      <trkpt lat="43.43829" lon="6.00696">
        <ele>315.60000610352</ele>
        <time>2016-05-25T13:45:53Z</time>
      </trkpt>
      <trkpt lat="43.43829" lon="6.00717">
        <ele>314.39999389648</ele>
        <time>2016-05-25T13:45:56Z</time>
      </trkpt>
      <trkpt lat="43.43829" lon="6.00733">
        <ele>313.60000610352</ele>
        <time>2016-05-25T13:45:58Z</time>
      </trkpt>
      <trkpt lat="43.43829" lon="6.00742">
        <ele>313.20001220703</ele>
        <time>2016-05-25T13:45:59Z</time>
      </trkpt>
      <trkpt lat="43.43829" lon="6.00769">
        <ele>312</ele>
        <time>2016-05-25T13:46:02Z</time>
      </trkpt>
      <trkpt lat="43.43829" lon="6.00789">
        <ele>311.60000610352</ele>
        <time>2016-05-25T13:46:04Z</time>
      </trkpt>
      <trkpt lat="43.43827" lon="6.00799">
        <ele>311.20001220703</ele>
        <time>2016-05-25T13:46:05Z</time>
      </trkpt>
      <trkpt lat="43.43825" lon="6.00809">
        <ele>310.39999389648</ele>
        <time>2016-05-25T13:46:06Z</time>
      </trkpt>
      <trkpt lat="43.43822" lon="6.00817">
        <ele>310</ele>
        <time>2016-05-25T13:46:07Z</time>
      </trkpt>
      <trkpt lat="43.43818" lon="6.00832">
        <ele>309.60000610352</ele>
        <time>2016-05-25T13:46:09Z</time>
      </trkpt>
      <trkpt lat="43.43814" lon="6.00845">
        <ele>309.60000610352</ele>
        <time>2016-05-25T13:46:11Z</time>
      </trkpt>
      <trkpt lat="43.43811" lon="6.00861">
        <ele>310</ele>
        <time>2016-05-25T13:46:14Z</time>
      </trkpt>
      <trkpt lat="43.43811" lon="6.00873">
        <ele>310.39999389648</ele>
        <time>2016-05-25T13:46:16Z</time>
      </trkpt>
      <trkpt lat="43.43811" lon="6.00879">
        <ele>310.39999389648</ele>
        <time>2016-05-25T13:46:17Z</time>
      </trkpt>
      <trkpt lat="43.43811" lon="6.00899">
        <ele>310</ele>
        <time>2016-05-25T13:46:20Z</time>
      </trkpt>
      <trkpt lat="43.43814" lon="6.00916">
        <ele>309.79998779297</ele>
        <time>2016-05-25T13:46:22Z</time>
      </trkpt>
      <trkpt lat="43.43818" lon="6.00933">
        <ele>309.20001220703</ele>
        <time>2016-05-25T13:46:24Z</time>
      </trkpt>
      <trkpt lat="43.43821" lon="6.00942">
        <ele>308.20001220703</ele>
        <time>2016-05-25T13:46:25Z</time>
      </trkpt>
      <trkpt lat="43.43825" lon="6.00961">
        <ele>306.79998779297</ele>
        <time>2016-05-25T13:46:27Z</time>
      </trkpt>
      <trkpt lat="43.43826" lon="6.00971">
        <ele>306.20001220703</ele>
        <time>2016-05-25T13:46:28Z</time>
      </trkpt>
      <trkpt lat="43.43827" lon="6.00982">
        <ele>306</ele>
        <time>2016-05-25T13:46:29Z</time>
      </trkpt>
      <trkpt lat="43.43827" lon="6.00993">
        <ele>305.39999389648</ele>
        <time>2016-05-25T13:46:30Z</time>
      </trkpt>
      <trkpt lat="43.43823" lon="6.01014">
        <ele>304.20001220703</ele>
        <time>2016-05-25T13:46:32Z</time>
      </trkpt>
      <trkpt lat="43.43821" lon="6.01023">
        <ele>303.60000610352</ele>
        <time>2016-05-25T13:46:33Z</time>
      </trkpt>
      <trkpt lat="43.43816" lon="6.01039">
        <ele>303.20001220703</ele>
        <time>2016-05-25T13:46:35Z</time>
      </trkpt>
      <trkpt lat="43.43811" lon="6.01053">
        <ele>303.39999389648</ele>
        <time>2016-05-25T13:46:37Z</time>
      </trkpt>
      <trkpt lat="43.43795" lon="6.01097">
        <ele>304</ele>
        <time>2016-05-25T13:46:44Z</time>
      </trkpt>
      <trkpt lat="43.43778" lon="6.01143">
        <ele>303.79998779297</ele>
        <time>2016-05-25T13:46:52Z</time>
      </trkpt>
      <trkpt lat="43.43774" lon="6.01156">
        <ele>304.20001220703</ele>
        <time>2016-05-25T13:46:54Z</time>
      </trkpt>
      <trkpt lat="43.43765" lon="6.01188">
        <ele>303.39999389648</ele>
        <time>2016-05-25T13:46:59Z</time>
      </trkpt>
      <trkpt lat="43.43764" lon="6.01195">
        <ele>303.20001220703</ele>
        <time>2016-05-25T13:47:00Z</time>
      </trkpt>
      <trkpt lat="43.43766" lon="6.0123">
        <ele>302</ele>
        <time>2016-05-25T13:47:04Z</time>
      </trkpt>
      <trkpt lat="43.43767" lon="6.01251">
        <ele>301</ele>
        <time>2016-05-25T13:47:06Z</time>
      </trkpt>
      <trkpt lat="43.43768" lon="6.01261">
        <ele>300.60000610352</ele>
        <time>2016-05-25T13:47:07Z</time>
      </trkpt>
      <trkpt lat="43.43773" lon="6.01281">
        <ele>300</ele>
        <time>2016-05-25T13:47:09Z</time>
      </trkpt>
      <trkpt lat="43.43775" lon="6.01292">
        <ele>299.60000610352</ele>
        <time>2016-05-25T13:47:10Z</time>
      </trkpt>
      <trkpt lat="43.43777" lon="6.01314">
        <ele>298.60000610352</ele>
        <time>2016-05-25T13:47:12Z</time>
      </trkpt>
      <trkpt lat="43.43781" lon="6.01335">
        <ele>297.39999389648</ele>
        <time>2016-05-25T13:47:14Z</time>
      </trkpt>
      <trkpt lat="43.43782" lon="6.01345">
        <ele>297</ele>
        <time>2016-05-25T13:47:15Z</time>
      </trkpt>
      <trkpt lat="43.43783" lon="6.01362">
        <ele>296.20001220703</ele>
        <time>2016-05-25T13:47:17Z</time>
      </trkpt>
      <trkpt lat="43.43784" lon="6.01389">
        <ele>296.39999389648</ele>
        <time>2016-05-25T13:47:20Z</time>
      </trkpt>
      <trkpt lat="43.43787" lon="6.01446">
        <ele>295.79998779297</ele>
        <time>2016-05-25T13:47:27Z</time>
      </trkpt>
      <trkpt lat="43.43787" lon="6.015">
        <ele>295.79998779297</ele>
        <time>2016-05-25T13:47:34Z</time>
      </trkpt>
      <trkpt lat="43.43784" lon="6.01518">
        <ele>295</ele>
        <time>2016-05-25T13:47:36Z</time>
      </trkpt>
      <trkpt lat="43.43778" lon="6.0155">
        <ele>294.20001220703</ele>
        <time>2016-05-25T13:47:40Z</time>
      </trkpt>
      <trkpt lat="43.43771" lon="6.01575">
        <ele>294.79998779297</ele>
        <time>2016-05-25T13:47:44Z</time>
      </trkpt>
      <trkpt lat="43.43769" lon="6.01588">
        <ele>295</ele>
        <time>2016-05-25T13:47:46Z</time>
      </trkpt>
      <trkpt lat="43.43765" lon="6.01601">
        <ele>295</ele>
        <time>2016-05-25T13:47:48Z</time>
      </trkpt>
      <trkpt lat="43.43755" lon="6.01638">
        <ele>295.20001220703</ele>
        <time>2016-05-25T13:47:54Z</time>
      </trkpt>
      <trkpt lat="43.4375" lon="6.01654">
        <ele>295.39999389648</ele>
        <time>2016-05-25T13:47:57Z</time>
      </trkpt>
      <trkpt lat="43.43745" lon="6.01673">
        <ele>295.60000610352</ele>
        <time>2016-05-25T13:48:01Z</time>
      </trkpt>
      <trkpt lat="43.43745" lon="6.01684">
        <ele>295.39999389648</ele>
        <time>2016-05-25T13:48:05Z</time>
      </trkpt>
      <trkpt lat="43.43745" lon="6.01685">
        <ele>295.39999389648</ele>
        <time>2016-05-25T13:48:06Z</time>
      </trkpt>
      <trkpt lat="43.43745" lon="6.01686">
        <ele>295.60000610352</ele>
        <time>2016-05-25T13:48:13Z</time>
      </trkpt>
      <trkpt lat="43.43745" lon="6.01686">
        <ele>295.60000610352</ele>
        <time>2016-05-25T13:48:20Z</time>
      </trkpt>
      <trkpt lat="43.43745" lon="6.01686">
        <ele>295.60000610352</ele>
        <time>2016-05-25T13:48:24Z</time>
      </trkpt>
      <trkpt lat="43.43745" lon="6.01686">
        <ele>295.60000610352</ele>
        <time>2016-05-25T13:48:34Z</time>
      </trkpt>
      <trkpt lat="43.43745" lon="6.01686">
        <ele>295.39999389648</ele>
        <time>2016-05-25T13:48:38Z</time>
      </trkpt>
      <trkpt lat="43.43745" lon="6.01686">
        <ele>295.39999389648</ele>
        <time>2016-05-25T13:48:44Z</time>
      </trkpt>
      <trkpt lat="43.43745" lon="6.01686">
        <ele>295.60000610352</ele>
        <time>2016-05-25T13:48:49Z</time>
      </trkpt>
      <trkpt lat="43.43745" lon="6.01685">
        <ele>295.60000610352</ele>
        <time>2016-05-25T13:48:57Z</time>
      </trkpt>
      <trkpt lat="43.43745" lon="6.01685">
        <ele>295.60000610352</ele>
        <time>2016-05-25T13:49:02Z</time>
      </trkpt>
      <trkpt lat="43.43745" lon="6.01685">
        <ele>295.20001220703</ele>
        <time>2016-05-25T13:49:12Z</time>
      </trkpt>
      <trkpt lat="43.43745" lon="6.01685">
        <ele>295.60000610352</ele>
        <time>2016-05-25T13:49:20Z</time>
      </trkpt>
      <trkpt lat="43.43745" lon="6.01685">
        <ele>295.39999389648</ele>
        <time>2016-05-25T13:49:28Z</time>
      </trkpt>
      <trkpt lat="43.43745" lon="6.01685">
        <ele>295.20001220703</ele>
        <time>2016-05-25T13:49:40Z</time>
      </trkpt>
      <trkpt lat="43.43745" lon="6.01685">
        <ele>295.20001220703</ele>
        <time>2016-05-25T13:49:56Z</time>
      </trkpt>
      <trkpt lat="43.43746" lon="6.01686">
        <ele>295.39999389648</ele>
        <time>2016-05-25T13:50:04Z</time>
      </trkpt>
      <trkpt lat="43.4375" lon="6.01689">
        <ele>295.39999389648</ele>
        <time>2016-05-25T13:50:06Z</time>
      </trkpt>
      <trkpt lat="43.43768" lon="6.01698">
        <ele>294.79998779297</ele>
        <time>2016-05-25T13:50:12Z</time>
      </trkpt>
      <trkpt lat="43.43787" lon="6.01702">
        <ele>293.79998779297</ele>
        <time>2016-05-25T13:50:17Z</time>
      </trkpt>
      <trkpt lat="43.43798" lon="6.01702">
        <ele>293.20001220703</ele>
        <time>2016-05-25T13:50:20Z</time>
      </trkpt>
      <trkpt lat="43.43807" lon="6.01699">
        <ele>292.60000610352</ele>
        <time>2016-05-25T13:50:22Z</time>
      </trkpt>
      <trkpt lat="43.43836" lon="6.01686">
        <ele>291.60000610352</ele>
        <time>2016-05-25T13:50:29Z</time>
      </trkpt>
      <trkpt lat="43.4384" lon="6.01684">
        <ele>291.60000610352</ele>
        <time>2016-05-25T13:50:30Z</time>
      </trkpt>
      <trkpt lat="43.43843" lon="6.0168">
        <ele>291.60000610352</ele>
        <time>2016-05-25T13:50:31Z</time>
      </trkpt>
      <trkpt lat="43.43856" lon="6.01666">
        <ele>291.39999389648</ele>
        <time>2016-05-25T13:50:35Z</time>
      </trkpt>
      <trkpt lat="43.43864" lon="6.01661">
        <ele>290.60000610352</ele>
        <time>2016-05-25T13:50:38Z</time>
      </trkpt>
      <trkpt lat="43.43867" lon="6.01663">
        <ele>290.39999389648</ele>
        <time>2016-05-25T13:50:39Z</time>
      </trkpt>
      <trkpt lat="43.43869" lon="6.01674">
        <ele>290.20001220703</ele>
        <time>2016-05-25T13:50:42Z</time>
      </trkpt>
      <trkpt lat="43.43867" lon="6.01694">
        <ele>290</ele>
        <time>2016-05-25T13:50:46Z</time>
      </trkpt>
      <trkpt lat="43.43867" lon="6.017">
        <ele>290</ele>
        <time>2016-05-25T13:50:47Z</time>
      </trkpt>
      <trkpt lat="43.43868" lon="6.01706">
        <ele>290</ele>
        <time>2016-05-25T13:50:48Z</time>
      </trkpt>
      <trkpt lat="43.43872" lon="6.01718">
        <ele>289.60000610352</ele>
        <time>2016-05-25T13:50:50Z</time>
      </trkpt>
      <trkpt lat="43.43878" lon="6.01737">
        <ele>288.39999389648</ele>
        <time>2016-05-25T13:50:53Z</time>
      </trkpt>
      <trkpt lat="43.4388" lon="6.01743">
        <ele>288.20001220703</ele>
        <time>2016-05-25T13:50:54Z</time>
      </trkpt>
      <trkpt lat="43.43879" lon="6.01767">
        <ele>287.39999389648</ele>
        <time>2016-05-25T13:50:57Z</time>
      </trkpt>
      <trkpt lat="43.43876" lon="6.01782">
        <ele>286.79998779297</ele>
        <time>2016-05-25T13:50:59Z</time>
      </trkpt>
      <trkpt lat="43.43871" lon="6.018">
        <ele>286.20001220703</ele>
        <time>2016-05-25T13:51:01Z</time>
      </trkpt>
      <trkpt lat="43.4387" lon="6.01811">
        <ele>286</ele>
        <time>2016-05-25T13:51:02Z</time>
      </trkpt>
      <trkpt lat="43.43869" lon="6.01833">
        <ele>285.20001220703</ele>
        <time>2016-05-25T13:51:04Z</time>
      </trkpt>
      <trkpt lat="43.43867" lon="6.01854">
        <ele>283.79998779297</ele>
        <time>2016-05-25T13:51:06Z</time>
      </trkpt>
      <trkpt lat="43.43864" lon="6.01864">
        <ele>283.39999389648</ele>
        <time>2016-05-25T13:51:07Z</time>
      </trkpt>
      <trkpt lat="43.43858" lon="6.01892">
        <ele>282.79998779297</ele>
        <time>2016-05-25T13:51:10Z</time>
      </trkpt>
      <trkpt lat="43.43856" lon="6.01901">
        <ele>282.60000610352</ele>
        <time>2016-05-25T13:51:11Z</time>
      </trkpt>
      <trkpt lat="43.43852" lon="6.01919">
        <ele>282</ele>
        <time>2016-05-25T13:51:13Z</time>
      </trkpt>
      <trkpt lat="43.43844" lon="6.01935">
        <ele>281.79998779297</ele>
        <time>2016-05-25T13:51:15Z</time>
      </trkpt>
      <trkpt lat="43.43835" lon="6.01951">
        <ele>281.39999389648</ele>
        <time>2016-05-25T13:51:17Z</time>
      </trkpt>
      <trkpt lat="43.4383" lon="6.01968">
        <ele>281.39999389648</ele>
        <time>2016-05-25T13:51:19Z</time>
      </trkpt>
      <trkpt lat="43.43829" lon="6.01985">
        <ele>281.60000610352</ele>
        <time>2016-05-25T13:51:21Z</time>
      </trkpt>
      <trkpt lat="43.43827" lon="6.02004">
        <ele>281.60000610352</ele>
        <time>2016-05-25T13:51:23Z</time>
      </trkpt>
      <trkpt lat="43.43825" lon="6.02023">
        <ele>281.60000610352</ele>
        <time>2016-05-25T13:51:25Z</time>
      </trkpt>
      <trkpt lat="43.43822" lon="6.02041">
        <ele>281.20001220703</ele>
        <time>2016-05-25T13:51:27Z</time>
      </trkpt>
      <trkpt lat="43.4382" lon="6.02048">
        <ele>281</ele>
        <time>2016-05-25T13:51:28Z</time>
      </trkpt>
      <trkpt lat="43.43809" lon="6.02073">
        <ele>280.79998779297</ele>
        <time>2016-05-25T13:51:32Z</time>
      </trkpt>
      <trkpt lat="43.43807" lon="6.0208">
        <ele>280.79998779297</ele>
        <time>2016-05-25T13:51:33Z</time>
      </trkpt>
      <trkpt lat="43.43806" lon="6.02087">
        <ele>281.20001220703</ele>
        <time>2016-05-25T13:51:34Z</time>
      </trkpt>
      <trkpt lat="43.43805" lon="6.02102">
        <ele>281.39999389648</ele>
        <time>2016-05-25T13:51:36Z</time>
      </trkpt>
      <trkpt lat="43.43803" lon="6.02109">
        <ele>281.60000610352</ele>
        <time>2016-05-25T13:51:37Z</time>
      </trkpt>
      <trkpt lat="43.43799" lon="6.02115">
        <ele>281.39999389648</ele>
        <time>2016-05-25T13:51:38Z</time>
      </trkpt>
      <trkpt lat="43.43795" lon="6.02118">
        <ele>281</ele>
        <time>2016-05-25T13:51:39Z</time>
      </trkpt>
      <trkpt lat="43.4379" lon="6.02122">
        <ele>280.79998779297</ele>
        <time>2016-05-25T13:51:40Z</time>
      </trkpt>
      <trkpt lat="43.43784" lon="6.02127">
        <ele>280.39999389648</ele>
        <time>2016-05-25T13:51:41Z</time>
      </trkpt>
      <trkpt lat="43.4378" lon="6.02132">
        <ele>280</ele>
        <time>2016-05-25T13:51:42Z</time>
      </trkpt>
      <trkpt lat="43.43777" lon="6.02138">
        <ele>279.79998779297</ele>
        <time>2016-05-25T13:51:43Z</time>
      </trkpt>
      <trkpt lat="43.43775" lon="6.02144">
        <ele>279.60000610352</ele>
        <time>2016-05-25T13:51:44Z</time>
      </trkpt>
      <trkpt lat="43.43765" lon="6.02166">
        <ele>279.79998779297</ele>
        <time>2016-05-25T13:51:48Z</time>
      </trkpt>
      <trkpt lat="43.43766" lon="6.02181">
        <ele>280</ele>
        <time>2016-05-25T13:51:50Z</time>
      </trkpt>
      <trkpt lat="43.43766" lon="6.02188">
        <ele>280</ele>
        <time>2016-05-25T13:51:51Z</time>
      </trkpt>
      <trkpt lat="43.43766" lon="6.02195">
        <ele>280</ele>
        <time>2016-05-25T13:51:52Z</time>
      </trkpt>
      <trkpt lat="43.43766" lon="6.02208">
        <ele>279.60000610352</ele>
        <time>2016-05-25T13:51:54Z</time>
      </trkpt>
      <trkpt lat="43.43766" lon="6.02214">
        <ele>279.39999389648</ele>
        <time>2016-05-25T13:51:55Z</time>
      </trkpt>
      <trkpt lat="43.43764" lon="6.0222">
        <ele>279</ele>
        <time>2016-05-25T13:51:57Z</time>
      </trkpt>
      <trkpt lat="43.43762" lon="6.02226">
        <ele>279</ele>
        <time>2016-05-25T13:51:59Z</time>
      </trkpt>
      <trkpt lat="43.43761" lon="6.02229">
        <ele>279.20001220703</ele>
        <time>2016-05-25T13:52:00Z</time>
      </trkpt>
      <trkpt lat="43.43758" lon="6.02238">
        <ele>279.79998779297</ele>
        <time>2016-05-25T13:52:04Z</time>
      </trkpt>
      <trkpt lat="43.43756" lon="6.0224">
        <ele>280.20001220703</ele>
        <time>2016-05-25T13:52:05Z</time>
      </trkpt>
      <trkpt lat="43.43755" lon="6.02245">
        <ele>280.60000610352</ele>
        <time>2016-05-25T13:52:07Z</time>
      </trkpt>
      <trkpt lat="43.43751" lon="6.02254">
        <ele>281.39999389648</ele>
        <time>2016-05-25T13:52:11Z</time>
      </trkpt>
      <trkpt lat="43.43749" lon="6.02259">
        <ele>282</ele>
        <time>2016-05-25T13:52:13Z</time>
      </trkpt>
      <trkpt lat="43.43748" lon="6.02261">
        <ele>282.20001220703</ele>
        <time>2016-05-25T13:52:14Z</time>
      </trkpt>
      <trkpt lat="43.43744" lon="6.02267">
        <ele>282.60000610352</ele>
        <time>2016-05-25T13:52:17Z</time>
      </trkpt>
      <trkpt lat="43.43743" lon="6.02269">
        <ele>282.79998779297</ele>
        <time>2016-05-25T13:52:18Z</time>
      </trkpt>
      <trkpt lat="43.43736" lon="6.02285">
        <ele>284</ele>
        <time>2016-05-25T13:52:24Z</time>
      </trkpt>
      <trkpt lat="43.43735" lon="6.02287">
        <ele>284.60000610352</ele>
        <time>2016-05-25T13:52:25Z</time>
      </trkpt>
      <trkpt lat="43.43733" lon="6.02289">
        <ele>284.79998779297</ele>
        <time>2016-05-25T13:52:26Z</time>
      </trkpt>
      <trkpt lat="43.4373" lon="6.02293">
        <ele>285.20001220703</ele>
        <time>2016-05-25T13:52:28Z</time>
      </trkpt>
      <trkpt lat="43.43729" lon="6.02295">
        <ele>285.39999389648</ele>
        <time>2016-05-25T13:52:29Z</time>
      </trkpt>
      <trkpt lat="43.43727" lon="6.02296">
        <ele>285.60000610352</ele>
        <time>2016-05-25T13:52:30Z</time>
      </trkpt>
      <trkpt lat="43.43725" lon="6.02299">
        <ele>286.20001220703</ele>
        <time>2016-05-25T13:52:33Z</time>
      </trkpt>
      <trkpt lat="43.43724" lon="6.023">
        <ele>286.39999389648</ele>
        <time>2016-05-25T13:52:34Z</time>
      </trkpt>
      <trkpt lat="43.43724" lon="6.02303">
        <ele>286.39999389648</ele>
        <time>2016-05-25T13:52:35Z</time>
      </trkpt>
      <trkpt lat="43.43722" lon="6.02306">
        <ele>286.60000610352</ele>
        <time>2016-05-25T13:52:37Z</time>
      </trkpt>
      <trkpt lat="43.43721" lon="6.02309">
        <ele>287</ele>
        <time>2016-05-25T13:52:38Z</time>
      </trkpt>
      <trkpt lat="43.43719" lon="6.02314">
        <ele>287.39999389648</ele>
        <time>2016-05-25T13:52:41Z</time>
      </trkpt>
      <trkpt lat="43.43718" lon="6.02317">
        <ele>287.60000610352</ele>
        <time>2016-05-25T13:52:42Z</time>
      </trkpt>
      <trkpt lat="43.43718" lon="6.02319">
        <ele>287.60000610352</ele>
        <time>2016-05-25T13:52:43Z</time>
      </trkpt>
      <trkpt lat="43.43718" lon="6.02325">
        <ele>287.79998779297</ele>
        <time>2016-05-25T13:52:46Z</time>
      </trkpt>
      <trkpt lat="43.43721" lon="6.02334">
        <ele>288.20001220703</ele>
        <time>2016-05-25T13:52:49Z</time>
      </trkpt>
      <trkpt lat="43.43722" lon="6.02343">
        <ele>288.20001220703</ele>
        <time>2016-05-25T13:52:53Z</time>
      </trkpt>
      <trkpt lat="43.43724" lon="6.02345">
        <ele>288</ele>
        <time>2016-05-25T13:52:55Z</time>
      </trkpt>
      <trkpt lat="43.43728" lon="6.02345">
        <ele>288</ele>
        <time>2016-05-25T13:52:57Z</time>
      </trkpt>
      <trkpt lat="43.43734" lon="6.02348">
        <ele>287.79998779297</ele>
        <time>2016-05-25T13:52:59Z</time>
      </trkpt>
      <trkpt lat="43.43738" lon="6.02359">
        <ele>287.20001220703</ele>
        <time>2016-05-25T13:53:03Z</time>
      </trkpt>
      <trkpt lat="43.43738" lon="6.02362">
        <ele>287.20001220703</ele>
        <time>2016-05-25T13:53:04Z</time>
      </trkpt>
      <trkpt lat="43.43742" lon="6.02375">
        <ele>286.79998779297</ele>
        <time>2016-05-25T13:53:08Z</time>
      </trkpt>
      <trkpt lat="43.43744" lon="6.02378">
        <ele>286.79998779297</ele>
        <time>2016-05-25T13:53:09Z</time>
      </trkpt>
      <trkpt lat="43.4375" lon="6.02385">
        <ele>285.79998779297</ele>
        <time>2016-05-25T13:53:12Z</time>
      </trkpt>
      <trkpt lat="43.43753" lon="6.02388">
        <ele>285.60000610352</ele>
        <time>2016-05-25T13:53:13Z</time>
      </trkpt>
      <trkpt lat="43.43755" lon="6.02391">
        <ele>285.39999389648</ele>
        <time>2016-05-25T13:53:14Z</time>
      </trkpt>
      <trkpt lat="43.43756" lon="6.02398">
        <ele>284.79998779297</ele>
        <time>2016-05-25T13:53:16Z</time>
      </trkpt>
      <trkpt lat="43.4376" lon="6.02404">
        <ele>284.20001220703</ele>
        <time>2016-05-25T13:53:18Z</time>
      </trkpt>
      <trkpt lat="43.43764" lon="6.02409">
        <ele>283.60000610352</ele>
        <time>2016-05-25T13:53:20Z</time>
      </trkpt>
      <trkpt lat="43.43765" lon="6.02416">
        <ele>283.39999389648</ele>
        <time>2016-05-25T13:53:23Z</time>
      </trkpt>
      <trkpt lat="43.43767" lon="6.02422">
        <ele>283</ele>
        <time>2016-05-25T13:53:25Z</time>
      </trkpt>
      <trkpt lat="43.43766" lon="6.02432">
        <ele>282.60000610352</ele>
        <time>2016-05-25T13:53:29Z</time>
      </trkpt>
      <trkpt lat="43.43769" lon="6.02439">
        <ele>282</ele>
        <time>2016-05-25T13:53:33Z</time>
      </trkpt>
      <trkpt lat="43.43771" lon="6.02441">
        <ele>281.60000610352</ele>
        <time>2016-05-25T13:53:35Z</time>
      </trkpt>
      <trkpt lat="43.4377" lon="6.02448">
        <ele>280.60000610352</ele>
        <time>2016-05-25T13:53:38Z</time>
      </trkpt>
      <trkpt lat="43.4377" lon="6.02451">
        <ele>280.60000610352</ele>
        <time>2016-05-25T13:53:39Z</time>
      </trkpt>
      <trkpt lat="43.43776" lon="6.02458">
        <ele>280.39999389648</ele>
        <time>2016-05-25T13:53:42Z</time>
      </trkpt>
      <trkpt lat="43.43781" lon="6.02464">
        <ele>280.79998779297</ele>
        <time>2016-05-25T13:53:46Z</time>
      </trkpt>
      <trkpt lat="43.43784" lon="6.02468">
        <ele>280.79998779297</ele>
        <time>2016-05-25T13:53:48Z</time>
      </trkpt>
      <trkpt lat="43.4379" lon="6.02477">
        <ele>279</ele>
        <time>2016-05-25T13:53:53Z</time>
      </trkpt>
      <trkpt lat="43.43793" lon="6.02482">
        <ele>278</ele>
        <time>2016-05-25T13:53:58Z</time>
      </trkpt>
      <trkpt lat="43.43793" lon="6.02482">
        <ele>278</ele>
        <time>2016-05-25T13:54:00Z</time>
      </trkpt>
      <trkpt lat="43.43793" lon="6.02482">
        <ele>277.60000610352</ele>
        <time>2016-05-25T13:54:05Z</time>
      </trkpt>
      <trkpt lat="43.43793" lon="6.02489">
        <ele>278.39999389648</ele>
        <time>2016-05-25T13:54:12Z</time>
      </trkpt>
      <trkpt lat="43.43792" lon="6.02505">
        <ele>278.60000610352</ele>
        <time>2016-05-25T13:54:18Z</time>
      </trkpt>
      <trkpt lat="43.43791" lon="6.02508">
        <ele>278.60000610352</ele>
        <time>2016-05-25T13:54:19Z</time>
      </trkpt>
      <trkpt lat="43.43789" lon="6.02513">
        <ele>278.79998779297</ele>
        <time>2016-05-25T13:54:21Z</time>
      </trkpt>
      <trkpt lat="43.43785" lon="6.02523">
        <ele>279.20001220703</ele>
        <time>2016-05-25T13:54:25Z</time>
      </trkpt>
      <trkpt lat="43.43785" lon="6.02525">
        <ele>279.39999389648</ele>
        <time>2016-05-25T13:54:26Z</time>
      </trkpt>
      <trkpt lat="43.43782" lon="6.02545">
        <ele>279.79998779297</ele>
        <time>2016-05-25T13:54:31Z</time>
      </trkpt>
      <trkpt lat="43.43784" lon="6.02563">
        <ele>279.39999389648</ele>
        <time>2016-05-25T13:54:35Z</time>
      </trkpt>
      <trkpt lat="43.43784" lon="6.02592">
        <ele>279</ele>
        <time>2016-05-25T13:54:41Z</time>
      </trkpt>
      <trkpt lat="43.43778" lon="6.02625">
        <ele>279</ele>
        <time>2016-05-25T13:54:48Z</time>
      </trkpt>
      <trkpt lat="43.43778" lon="6.02652">
        <ele>279</ele>
        <time>2016-05-25T13:54:53Z</time>
      </trkpt>
      <trkpt lat="43.43779" lon="6.0267">
        <ele>278.79998779297</ele>
        <time>2016-05-25T13:54:57Z</time>
      </trkpt>
      <trkpt lat="43.43776" lon="6.02677">
        <ele>278.39999389648</ele>
        <time>2016-05-25T13:55:00Z</time>
      </trkpt>
      <trkpt lat="43.43774" lon="6.02683">
        <ele>278.20001220703</ele>
        <time>2016-05-25T13:55:02Z</time>
      </trkpt>
      <trkpt lat="43.43769" lon="6.0269">
        <ele>278.39999389648</ele>
        <time>2016-05-25T13:55:04Z</time>
      </trkpt>
      <trkpt lat="43.43767" lon="6.02691">
        <ele>278.60000610352</ele>
        <time>2016-05-25T13:55:07Z</time>
      </trkpt>
      <trkpt lat="43.43765" lon="6.02693">
        <ele>278.60000610352</ele>
        <time>2016-05-25T13:55:15Z</time>
      </trkpt>
      <trkpt lat="43.43764" lon="6.02693">
        <ele>278.60000610352</ele>
        <time>2016-05-25T13:55:16Z</time>
      </trkpt>
      <trkpt lat="43.43763" lon="6.02699">
        <ele>278.60000610352</ele>
        <time>2016-05-25T13:55:19Z</time>
      </trkpt>
      <trkpt lat="43.43769" lon="6.02709">
        <ele>278.20001220703</ele>
        <time>2016-05-25T13:55:23Z</time>
      </trkpt>
      <trkpt lat="43.43773" lon="6.02711">
        <ele>278</ele>
        <time>2016-05-25T13:55:24Z</time>
      </trkpt>
      <trkpt lat="43.43776" lon="6.02713">
        <ele>277.60000610352</ele>
        <time>2016-05-25T13:55:25Z</time>
      </trkpt>
      <trkpt lat="43.43781" lon="6.02715">
        <ele>277.20001220703</ele>
        <time>2016-05-25T13:55:27Z</time>
      </trkpt>
      <trkpt lat="43.43783" lon="6.02727">
        <ele>276.79998779297</ele>
        <time>2016-05-25T13:55:30Z</time>
      </trkpt>
      <trkpt lat="43.43782" lon="6.02745">
        <ele>276.60000610352</ele>
        <time>2016-05-25T13:55:34Z</time>
      </trkpt>
      <trkpt lat="43.43781" lon="6.02748">
        <ele>276.60000610352</ele>
        <time>2016-05-25T13:55:35Z</time>
      </trkpt>
      <trkpt lat="43.4378" lon="6.02752">
        <ele>276.60000610352</ele>
        <time>2016-05-25T13:55:36Z</time>
      </trkpt>
      <trkpt lat="43.4378" lon="6.02765">
        <ele>276.79998779297</ele>
        <time>2016-05-25T13:55:39Z</time>
      </trkpt>
      <trkpt lat="43.43785" lon="6.02779">
        <ele>277.20001220703</ele>
        <time>2016-05-25T13:55:43Z</time>
      </trkpt>
      <trkpt lat="43.43788" lon="6.02786">
        <ele>277</ele>
        <time>2016-05-25T13:55:45Z</time>
      </trkpt>
      <trkpt lat="43.43792" lon="6.02792">
        <ele>277</ele>
        <time>2016-05-25T13:55:47Z</time>
      </trkpt>
      <trkpt lat="43.43801" lon="6.02805">
        <ele>276</ele>
        <time>2016-05-25T13:55:51Z</time>
      </trkpt>
      <trkpt lat="43.43803" lon="6.02809">
        <ele>275.60000610352</ele>
        <time>2016-05-25T13:55:52Z</time>
      </trkpt>
      <trkpt lat="43.43804" lon="6.02826">
        <ele>275</ele>
        <time>2016-05-25T13:55:55Z</time>
      </trkpt>
      <trkpt lat="43.43802" lon="6.02831">
        <ele>274.79998779297</ele>
        <time>2016-05-25T13:55:56Z</time>
      </trkpt>
      <trkpt lat="43.43798" lon="6.02842">
        <ele>274</ele>
        <time>2016-05-25T13:55:59Z</time>
      </trkpt>
      <trkpt lat="43.43796" lon="6.02851">
        <ele>274</ele>
        <time>2016-05-25T13:56:01Z</time>
      </trkpt>
      <trkpt lat="43.43791" lon="6.02864">
        <ele>274</ele>
        <time>2016-05-25T13:56:04Z</time>
      </trkpt>
      <trkpt lat="43.43788" lon="6.02885">
        <ele>273.60000610352</ele>
        <time>2016-05-25T13:56:08Z</time>
      </trkpt>
      <trkpt lat="43.43787" lon="6.02891">
        <ele>273.60000610352</ele>
        <time>2016-05-25T13:56:09Z</time>
      </trkpt>
      <trkpt lat="43.43788" lon="6.02913">
        <ele>273.79998779297</ele>
        <time>2016-05-25T13:56:13Z</time>
      </trkpt>
      <trkpt lat="43.43782" lon="6.02936">
        <ele>272.79998779297</ele>
        <time>2016-05-25T13:56:17Z</time>
      </trkpt>
      <trkpt lat="43.43781" lon="6.02942">
        <ele>272.60000610352</ele>
        <time>2016-05-25T13:56:18Z</time>
      </trkpt>
      <trkpt lat="43.4378" lon="6.02947">
        <ele>272.60000610352</ele>
        <time>2016-05-25T13:56:19Z</time>
      </trkpt>
      <trkpt lat="43.43779" lon="6.02957">
        <ele>272.39999389648</ele>
        <time>2016-05-25T13:56:21Z</time>
      </trkpt>
      <trkpt lat="43.43775" lon="6.02983">
        <ele>271.79998779297</ele>
        <time>2016-05-25T13:56:26Z</time>
      </trkpt>
      <trkpt lat="43.43766" lon="6.02997">
        <ele>271.79998779297</ele>
        <time>2016-05-25T13:56:29Z</time>
      </trkpt>
      <trkpt lat="43.43762" lon="6.03006">
        <ele>271.60000610352</ele>
        <time>2016-05-25T13:56:31Z</time>
      </trkpt>
      <trkpt lat="43.4376" lon="6.03012">
        <ele>271.60000610352</ele>
        <time>2016-05-25T13:56:32Z</time>
      </trkpt>
      <trkpt lat="43.43758" lon="6.03017">
        <ele>271.79998779297</ele>
        <time>2016-05-25T13:56:33Z</time>
      </trkpt>
      <trkpt lat="43.43752" lon="6.03023">
        <ele>272</ele>
        <time>2016-05-25T13:56:35Z</time>
      </trkpt>
      <trkpt lat="43.4374" lon="6.03029">
        <ele>272.20001220703</ele>
        <time>2016-05-25T13:56:38Z</time>
      </trkpt>
      <trkpt lat="43.43734" lon="6.03032">
        <ele>273</ele>
        <time>2016-05-25T13:56:40Z</time>
      </trkpt>
      <trkpt lat="43.43724" lon="6.03041">
        <ele>273.79998779297</ele>
        <time>2016-05-25T13:56:43Z</time>
      </trkpt>
      <trkpt lat="43.43721" lon="6.03043">
        <ele>274</ele>
        <time>2016-05-25T13:56:44Z</time>
      </trkpt>
      <trkpt lat="43.43715" lon="6.03049">
        <ele>274</ele>
        <time>2016-05-25T13:56:46Z</time>
      </trkpt>
      <trkpt lat="43.43708" lon="6.03056">
        <ele>274.60000610352</ele>
        <time>2016-05-25T13:56:48Z</time>
      </trkpt>
      <trkpt lat="43.43702" lon="6.03064">
        <ele>275</ele>
        <time>2016-05-25T13:56:50Z</time>
      </trkpt>
      <trkpt lat="43.437" lon="6.0307">
        <ele>275</ele>
        <time>2016-05-25T13:56:51Z</time>
      </trkpt>
      <trkpt lat="43.43698" lon="6.03081">
        <ele>275.20001220703</ele>
        <time>2016-05-25T13:56:53Z</time>
      </trkpt>
      <trkpt lat="43.43693" lon="6.03098">
        <ele>275.20001220703</ele>
        <time>2016-05-25T13:56:56Z</time>
      </trkpt>
      <trkpt lat="43.43691" lon="6.03116">
        <ele>275.39999389648</ele>
        <time>2016-05-25T13:56:59Z</time>
      </trkpt>
      <trkpt lat="43.43692" lon="6.03132">
        <ele>275.20001220703</ele>
        <time>2016-05-25T13:57:02Z</time>
      </trkpt>
      <trkpt lat="43.43692" lon="6.03137">
        <ele>275.20001220703</ele>
        <time>2016-05-25T13:57:03Z</time>
      </trkpt>
      <trkpt lat="43.43692" lon="6.0315">
        <ele>275.20001220703</ele>
        <time>2016-05-25T13:57:05Z</time>
      </trkpt>
      <trkpt lat="43.43692" lon="6.0318">
        <ele>275</ele>
        <time>2016-05-25T13:57:10Z</time>
      </trkpt>
      <trkpt lat="43.43689" lon="6.0319">
        <ele>275</ele>
        <time>2016-05-25T13:57:12Z</time>
      </trkpt>
      <trkpt lat="43.43687" lon="6.03195">
        <ele>275</ele>
        <time>2016-05-25T13:57:13Z</time>
      </trkpt>
      <trkpt lat="43.43685" lon="6.03201">
        <ele>275</ele>
        <time>2016-05-25T13:57:14Z</time>
      </trkpt>
      <trkpt lat="43.43686" lon="6.03223">
        <ele>274.39999389648</ele>
        <time>2016-05-25T13:57:18Z</time>
      </trkpt>
      <trkpt lat="43.43686" lon="6.03228">
        <ele>274.60000610352</ele>
        <time>2016-05-25T13:57:19Z</time>
      </trkpt>
      <trkpt lat="43.43686" lon="6.03243">
        <ele>274.20001220703</ele>
        <time>2016-05-25T13:57:22Z</time>
      </trkpt>
      <trkpt lat="43.43686" lon="6.03249">
        <ele>274</ele>
        <time>2016-05-25T13:57:23Z</time>
      </trkpt>
      <trkpt lat="43.43684" lon="6.03255">
        <ele>274</ele>
        <time>2016-05-25T13:57:24Z</time>
      </trkpt>
      <trkpt lat="43.43678" lon="6.03277">
        <ele>273.79998779297</ele>
        <time>2016-05-25T13:57:28Z</time>
      </trkpt>
      <trkpt lat="43.43675" lon="6.03281">
        <ele>273.20001220703</ele>
        <time>2016-05-25T13:57:29Z</time>
      </trkpt>
      <trkpt lat="43.43665" lon="6.03293">
        <ele>272.79998779297</ele>
        <time>2016-05-25T13:57:32Z</time>
      </trkpt>
      <trkpt lat="43.43663" lon="6.03296">
        <ele>272.60000610352</ele>
        <time>2016-05-25T13:57:33Z</time>
      </trkpt>
      <trkpt lat="43.43662" lon="6.03298">
        <ele>272.60000610352</ele>
        <time>2016-05-25T13:57:34Z</time>
      </trkpt>
      <trkpt lat="43.43661" lon="6.03301">
        <ele>272.60000610352</ele>
        <time>2016-05-25T13:57:35Z</time>
      </trkpt>
      <trkpt lat="43.43662" lon="6.03306">
        <ele>272.60000610352</ele>
        <time>2016-05-25T13:57:37Z</time>
      </trkpt>
      <trkpt lat="43.43657" lon="6.03322">
        <ele>272.79998779297</ele>
        <time>2016-05-25T13:57:42Z</time>
      </trkpt>
      <trkpt lat="43.43649" lon="6.03335">
        <ele>273.60000610352</ele>
        <time>2016-05-25T13:57:47Z</time>
      </trkpt>
      <trkpt lat="43.4364" lon="6.03354">
        <ele>274</ele>
        <time>2016-05-25T13:57:51Z</time>
      </trkpt>
      <trkpt lat="43.43636" lon="6.03365">
        <ele>274</ele>
        <time>2016-05-25T13:57:53Z</time>
      </trkpt>
      <trkpt lat="43.43633" lon="6.0337">
        <ele>274</ele>
        <time>2016-05-25T13:57:54Z</time>
      </trkpt>
      <trkpt lat="43.43627" lon="6.03384">
        <ele>273.60000610352</ele>
        <time>2016-05-25T13:57:57Z</time>
      </trkpt>
      <trkpt lat="43.43627" lon="6.03395">
        <ele>273.79998779297</ele>
        <time>2016-05-25T13:57:59Z</time>
      </trkpt>
      <trkpt lat="43.43627" lon="6.03416">
        <ele>274.60000610352</ele>
        <time>2016-05-25T13:58:03Z</time>
      </trkpt>
      <trkpt lat="43.43624" lon="6.03442">
        <ele>274.20001220703</ele>
        <time>2016-05-25T13:58:07Z</time>
      </trkpt>
      <trkpt lat="43.43621" lon="6.03448">
        <ele>274</ele>
        <time>2016-05-25T13:58:08Z</time>
      </trkpt>
      <trkpt lat="43.43616" lon="6.03459">
        <ele>273.39999389648</ele>
        <time>2016-05-25T13:58:10Z</time>
      </trkpt>
      <trkpt lat="43.43612" lon="6.03471">
        <ele>272.60000610352</ele>
        <time>2016-05-25T13:58:12Z</time>
      </trkpt>
      <trkpt lat="43.43611" lon="6.03478">
        <ele>272.39999389648</ele>
        <time>2016-05-25T13:58:13Z</time>
      </trkpt>
      <trkpt lat="43.4361" lon="6.03485">
        <ele>272.39999389648</ele>
        <time>2016-05-25T13:58:14Z</time>
      </trkpt>
      <trkpt lat="43.43608" lon="6.03498">
        <ele>272.20001220703</ele>
        <time>2016-05-25T13:58:16Z</time>
      </trkpt>
      <trkpt lat="43.43607" lon="6.03505">
        <ele>272</ele>
        <time>2016-05-25T13:58:17Z</time>
      </trkpt>
      <trkpt lat="43.43604" lon="6.03511">
        <ele>272</ele>
        <time>2016-05-25T13:58:18Z</time>
      </trkpt>
      <trkpt lat="43.43599" lon="6.03531">
        <ele>271.79998779297</ele>
        <time>2016-05-25T13:58:21Z</time>
      </trkpt>
      <trkpt lat="43.43593" lon="6.03542">
        <ele>271.79998779297</ele>
        <time>2016-05-25T13:58:23Z</time>
      </trkpt>
      <trkpt lat="43.43585" lon="6.03559">
        <ele>271.60000610352</ele>
        <time>2016-05-25T13:58:26Z</time>
      </trkpt>
      <trkpt lat="43.43581" lon="6.03572">
        <ele>271.60000610352</ele>
        <time>2016-05-25T13:58:28Z</time>
      </trkpt>
      <trkpt lat="43.43581" lon="6.03578">
        <ele>271.60000610352</ele>
        <time>2016-05-25T13:58:29Z</time>
      </trkpt>
      <trkpt lat="43.4358" lon="6.03598">
        <ele>271.39999389648</ele>
        <time>2016-05-25T13:58:32Z</time>
      </trkpt>
      <trkpt lat="43.43581" lon="6.03604">
        <ele>271.39999389648</ele>
        <time>2016-05-25T13:58:33Z</time>
      </trkpt>
      <trkpt lat="43.43581" lon="6.03622">
        <ele>271.60000610352</ele>
        <time>2016-05-25T13:58:36Z</time>
      </trkpt>
      <trkpt lat="43.43579" lon="6.03635">
        <ele>271.60000610352</ele>
        <time>2016-05-25T13:58:38Z</time>
      </trkpt>
      <trkpt lat="43.43578" lon="6.03641">
        <ele>271.60000610352</ele>
        <time>2016-05-25T13:58:39Z</time>
      </trkpt>
      <trkpt lat="43.43576" lon="6.03661">
        <ele>271.39999389648</ele>
        <time>2016-05-25T13:58:42Z</time>
      </trkpt>
      <trkpt lat="43.43571" lon="6.03681">
        <ele>271.39999389648</ele>
        <time>2016-05-25T13:58:45Z</time>
      </trkpt>
      <trkpt lat="43.43569" lon="6.03695">
        <ele>271.79998779297</ele>
        <time>2016-05-25T13:58:47Z</time>
      </trkpt>
      <trkpt lat="43.43568" lon="6.03723">
        <ele>272.20001220703</ele>
        <time>2016-05-25T13:58:52Z</time>
      </trkpt>
      <trkpt lat="43.43568" lon="6.03745">
        <ele>272.39999389648</ele>
        <time>2016-05-25T13:58:57Z</time>
      </trkpt>
      <trkpt lat="43.43568" lon="6.03747">
        <ele>272.60000610352</ele>
        <time>2016-05-25T13:58:58Z</time>
      </trkpt>
      <trkpt lat="43.43568" lon="6.03756">
        <ele>273.20001220703</ele>
        <time>2016-05-25T13:59:03Z</time>
      </trkpt>
      <trkpt lat="43.43568" lon="6.03758">
        <ele>273.20001220703</ele>
        <time>2016-05-25T13:59:04Z</time>
      </trkpt>
      <trkpt lat="43.43569" lon="6.03766">
        <ele>273.79998779297</ele>
        <time>2016-05-25T13:59:09Z</time>
      </trkpt>
      <trkpt lat="43.43571" lon="6.03767">
        <ele>273.79998779297</ele>
        <time>2016-05-25T13:59:17Z</time>
      </trkpt>
      <trkpt lat="43.43571" lon="6.03767">
        <ele>273.79998779297</ele>
        <time>2016-05-25T13:59:18Z</time>
      </trkpt>
      <trkpt lat="43.43571" lon="6.03767">
        <ele>273.79998779297</ele>
        <time>2016-05-25T13:59:25Z</time>
      </trkpt>
      <trkpt lat="43.43572" lon="6.03767">
        <ele>273.79998779297</ele>
        <time>2016-05-25T13:59:30Z</time>
      </trkpt>
      <trkpt lat="43.43572" lon="6.03768">
        <ele>273.60000610352</ele>
        <time>2016-05-25T13:59:34Z</time>
      </trkpt>
      <trkpt lat="43.43572" lon="6.03767">
        <ele>273.79998779297</ele>
        <time>2016-05-25T13:59:45Z</time>
      </trkpt>
      <trkpt lat="43.43572" lon="6.03768">
        <ele>273.79998779297</ele>
        <time>2016-05-25T13:59:51Z</time>
      </trkpt>
      <trkpt lat="43.43572" lon="6.03768">
        <ele>273.79998779297</ele>
        <time>2016-05-25T13:59:55Z</time>
      </trkpt>
      <trkpt lat="43.43572" lon="6.03768">
        <ele>274</ele>
        <time>2016-05-25T13:59:56Z</time>
      </trkpt>
      <trkpt lat="43.43572" lon="6.03768">
        <ele>274</ele>
        <time>2016-05-25T14:00:05Z</time>
      </trkpt>
      <trkpt lat="43.43573" lon="6.03768">
        <ele>274</ele>
        <time>2016-05-25T14:00:22Z</time>
      </trkpt>
      <trkpt lat="43.43573" lon="6.03768">
        <ele>274</ele>
        <time>2016-05-25T14:00:35Z</time>
      </trkpt>
      <trkpt lat="43.43572" lon="6.03768">
        <ele>274.20001220703</ele>
        <time>2016-05-25T14:00:44Z</time>
      </trkpt>
      <trkpt lat="43.43572" lon="6.03769">
        <ele>274</ele>
        <time>2016-05-25T14:00:59Z</time>
      </trkpt>
      <trkpt lat="43.43573" lon="6.03768">
        <ele>274.39999389648</ele>
        <time>2016-05-25T14:01:10Z</time>
      </trkpt>
      <trkpt lat="43.43573" lon="6.03768">
        <ele>274.39999389648</ele>
        <time>2016-05-25T14:01:17Z</time>
      </trkpt>
      <trkpt lat="43.43573" lon="6.03768">
        <ele>274.60000610352</ele>
        <time>2016-05-25T14:01:24Z</time>
      </trkpt>
      <trkpt lat="43.43573" lon="6.03768">
        <ele>274.60000610352</ele>
        <time>2016-05-25T14:01:39Z</time>
      </trkpt>
      <trkpt lat="43.43574" lon="6.03768">
        <ele>274.60000610352</ele>
        <time>2016-05-25T14:01:57Z</time>
      </trkpt>
      <trkpt lat="43.43574" lon="6.03768">
        <ele>274.79998779297</ele>
        <time>2016-05-25T14:02:11Z</time>
      </trkpt>
      <trkpt lat="43.43574" lon="6.03768">
        <ele>274.60000610352</ele>
        <time>2016-05-25T14:02:23Z</time>
      </trkpt>
      <trkpt lat="43.43574" lon="6.03768">
        <ele>274.79998779297</ele>
        <time>2016-05-25T14:02:33Z</time>
      </trkpt>
      <trkpt lat="43.43575" lon="6.03767">
        <ele>274.60000610352</ele>
        <time>2016-05-25T14:02:45Z</time>
      </trkpt>
      <trkpt lat="43.43575" lon="6.03767">
        <ele>274.60000610352</ele>
        <time>2016-05-25T14:02:55Z</time>
      </trkpt>
      <trkpt lat="43.43575" lon="6.03767">
        <ele>274.60000610352</ele>
        <time>2016-05-25T14:03:06Z</time>
      </trkpt>
      <trkpt lat="43.43574" lon="6.03767">
        <ele>274.39999389648</ele>
        <time>2016-05-25T14:03:17Z</time>
      </trkpt>
      <trkpt lat="43.43575" lon="6.03767">
        <ele>274.60000610352</ele>
        <time>2016-05-25T14:03:26Z</time>
      </trkpt>
      <trkpt lat="43.43575" lon="6.03768">
        <ele>274.60000610352</ele>
        <time>2016-05-25T14:03:35Z</time>
      </trkpt>
      <trkpt lat="43.43573" lon="6.03776">
        <ele>274.60000610352</ele>
        <time>2016-05-25T14:03:40Z</time>
      </trkpt>
      <trkpt lat="43.43573" lon="6.03789">
        <ele>274.60000610352</ele>
        <time>2016-05-25T14:03:45Z</time>
      </trkpt>
      <trkpt lat="43.43574" lon="6.03793">
        <ele>274.60000610352</ele>
        <time>2016-05-25T14:03:46Z</time>
      </trkpt>
      <trkpt lat="43.43583" lon="6.03817">
        <ele>274.39999389648</ele>
        <time>2016-05-25T14:03:51Z</time>
      </trkpt>
      <trkpt lat="43.43587" lon="6.03842">
        <ele>274</ele>
        <time>2016-05-25T14:03:55Z</time>
      </trkpt>
      <trkpt lat="43.43587" lon="6.03854">
        <ele>273.60000610352</ele>
        <time>2016-05-25T14:03:57Z</time>
      </trkpt>
      <trkpt lat="43.43587" lon="6.03866">
        <ele>273</ele>
        <time>2016-05-25T14:03:59Z</time>
      </trkpt>
      <trkpt lat="43.43587" lon="6.03878">
        <ele>272.20001220703</ele>
        <time>2016-05-25T14:04:02Z</time>
      </trkpt>
      <trkpt lat="43.43587" lon="6.03882">
        <ele>272</ele>
        <time>2016-05-25T14:04:03Z</time>
      </trkpt>
      <trkpt lat="43.43586" lon="6.03891">
        <ele>271.60000610352</ele>
        <time>2016-05-25T14:04:05Z</time>
      </trkpt>
      <trkpt lat="43.4359" lon="6.03905">
        <ele>271.20001220703</ele>
        <time>2016-05-25T14:04:08Z</time>
      </trkpt>
      <trkpt lat="43.43593" lon="6.03916">
        <ele>270.79998779297</ele>
        <time>2016-05-25T14:04:10Z</time>
      </trkpt>
      <trkpt lat="43.43598" lon="6.03934">
        <ele>270</ele>
        <time>2016-05-25T14:04:13Z</time>
      </trkpt>
      <trkpt lat="43.436" lon="6.03947">
        <ele>269.79998779297</ele>
        <time>2016-05-25T14:04:15Z</time>
      </trkpt>
      <trkpt lat="43.43601" lon="6.03953">
        <ele>269.79998779297</ele>
        <time>2016-05-25T14:04:16Z</time>
      </trkpt>
      <trkpt lat="43.43601" lon="6.03968">
        <ele>270.20001220703</ele>
        <time>2016-05-25T14:04:19Z</time>
      </trkpt>
      <trkpt lat="43.436" lon="6.03977">
        <ele>271.39999389648</ele>
        <time>2016-05-25T14:04:22Z</time>
      </trkpt>
      <trkpt lat="43.43599" lon="6.03979">
        <ele>271.60000610352</ele>
        <time>2016-05-25T14:04:23Z</time>
      </trkpt>
      <trkpt lat="43.43597" lon="6.03982">
        <ele>271.79998779297</ele>
        <time>2016-05-25T14:04:24Z</time>
      </trkpt>
      <trkpt lat="43.43597" lon="6.03984">
        <ele>272</ele>
        <time>2016-05-25T14:04:25Z</time>
      </trkpt>
      <trkpt lat="43.43596" lon="6.03987">
        <ele>272.20001220703</ele>
        <time>2016-05-25T14:04:26Z</time>
      </trkpt>
      <trkpt lat="43.43595" lon="6.03996">
        <ele>272.60000610352</ele>
        <time>2016-05-25T14:04:29Z</time>
      </trkpt>
      <trkpt lat="43.43594" lon="6.04">
        <ele>272.79998779297</ele>
        <time>2016-05-25T14:04:30Z</time>
      </trkpt>
      <trkpt lat="43.43588" lon="6.04017">
        <ele>272.79998779297</ele>
        <time>2016-05-25T14:04:33Z</time>
      </trkpt>
      <trkpt lat="43.43582" lon="6.04027">
        <ele>272.20001220703</ele>
        <time>2016-05-25T14:04:35Z</time>
      </trkpt>
      <trkpt lat="43.43576" lon="6.04038">
        <ele>271.60000610352</ele>
        <time>2016-05-25T14:04:37Z</time>
      </trkpt>
      <trkpt lat="43.4357" lon="6.04051">
        <ele>271.20001220703</ele>
        <time>2016-05-25T14:04:39Z</time>
      </trkpt>
      <trkpt lat="43.43566" lon="6.04058">
        <ele>270.60000610352</ele>
        <time>2016-05-25T14:04:40Z</time>
      </trkpt>
      <trkpt lat="43.43563" lon="6.04064">
        <ele>270.20001220703</ele>
        <time>2016-05-25T14:04:41Z</time>
      </trkpt>
      <trkpt lat="43.43558" lon="6.04079">
        <ele>269.60000610352</ele>
        <time>2016-05-25T14:04:43Z</time>
      </trkpt>
      <trkpt lat="43.43556" lon="6.04087">
        <ele>269.39999389648</ele>
        <time>2016-05-25T14:04:44Z</time>
      </trkpt>
      <trkpt lat="43.43552" lon="6.04102">
        <ele>269.20001220703</ele>
        <time>2016-05-25T14:04:46Z</time>
      </trkpt>
      <trkpt lat="43.43547" lon="6.04115">
        <ele>269</ele>
        <time>2016-05-25T14:04:48Z</time>
      </trkpt>
      <trkpt lat="43.43541" lon="6.04131">
        <ele>269.20001220703</ele>
        <time>2016-05-25T14:04:51Z</time>
      </trkpt>
      <trkpt lat="43.43535" lon="6.04142">
        <ele>269.39999389648</ele>
        <time>2016-05-25T14:04:53Z</time>
      </trkpt>
      <trkpt lat="43.43533" lon="6.0417">
        <ele>269.20001220703</ele>
        <time>2016-05-25T14:04:57Z</time>
      </trkpt>
      <trkpt lat="43.43538" lon="6.04186">
        <ele>269</ele>
        <time>2016-05-25T14:04:59Z</time>
      </trkpt>
      <trkpt lat="43.43539" lon="6.04195">
        <ele>268.79998779297</ele>
        <time>2016-05-25T14:05:00Z</time>
      </trkpt>
      <trkpt lat="43.43539" lon="6.04203">
        <ele>268.39999389648</ele>
        <time>2016-05-25T14:05:01Z</time>
      </trkpt>
      <trkpt lat="43.43538" lon="6.04212">
        <ele>268.20001220703</ele>
        <time>2016-05-25T14:05:02Z</time>
      </trkpt>
      <trkpt lat="43.43534" lon="6.04218">
        <ele>267.39999389648</ele>
        <time>2016-05-25T14:05:03Z</time>
      </trkpt>
      <trkpt lat="43.43531" lon="6.04224">
        <ele>266.79998779297</ele>
        <time>2016-05-25T14:05:04Z</time>
      </trkpt>
      <trkpt lat="43.43524" lon="6.04234">
        <ele>267</ele>
        <time>2016-05-25T14:05:06Z</time>
      </trkpt>
      <trkpt lat="43.43517" lon="6.04242">
        <ele>266.79998779297</ele>
        <time>2016-05-25T14:05:08Z</time>
      </trkpt>
      <trkpt lat="43.43507" lon="6.04254">
        <ele>267</ele>
        <time>2016-05-25T14:05:11Z</time>
      </trkpt>
      <trkpt lat="43.43505" lon="6.04259">
        <ele>267</ele>
        <time>2016-05-25T14:05:12Z</time>
      </trkpt>
      <trkpt lat="43.43503" lon="6.04264">
        <ele>267</ele>
        <time>2016-05-25T14:05:13Z</time>
      </trkpt>
      <trkpt lat="43.43501" lon="6.0427">
        <ele>267</ele>
        <time>2016-05-25T14:05:14Z</time>
      </trkpt>
      <trkpt lat="43.43497" lon="6.04281">
        <ele>267</ele>
        <time>2016-05-25T14:05:16Z</time>
      </trkpt>
      <trkpt lat="43.43496" lon="6.04287">
        <ele>267</ele>
        <time>2016-05-25T14:05:17Z</time>
      </trkpt>
      <trkpt lat="43.43496" lon="6.04293">
        <ele>267</ele>
        <time>2016-05-25T14:05:18Z</time>
      </trkpt>
      <trkpt lat="43.43494" lon="6.04305">
        <ele>267</ele>
        <time>2016-05-25T14:05:20Z</time>
      </trkpt>
      <trkpt lat="43.43492" lon="6.04322">
        <ele>267.60000610352</ele>
        <time>2016-05-25T14:05:23Z</time>
      </trkpt>
      <trkpt lat="43.43489" lon="6.04368">
        <ele>268.20001220703</ele>
        <time>2016-05-25T14:05:31Z</time>
      </trkpt>
      <trkpt lat="43.43488" lon="6.04387">
        <ele>268.39999389648</ele>
        <time>2016-05-25T14:05:34Z</time>
      </trkpt>
      <trkpt lat="43.43488" lon="6.044">
        <ele>268.39999389648</ele>
        <time>2016-05-25T14:05:36Z</time>
      </trkpt>
      <trkpt lat="43.43491" lon="6.04437">
        <ele>267.60000610352</ele>
        <time>2016-05-25T14:05:41Z</time>
      </trkpt>
      <trkpt lat="43.4349" lon="6.04451">
        <ele>267.60000610352</ele>
        <time>2016-05-25T14:05:43Z</time>
      </trkpt>
      <trkpt lat="43.43491" lon="6.04466">
        <ele>267.60000610352</ele>
        <time>2016-05-25T14:05:45Z</time>
      </trkpt>
      <trkpt lat="43.43491" lon="6.04473">
        <ele>267.39999389648</ele>
        <time>2016-05-25T14:05:46Z</time>
      </trkpt>
      <trkpt lat="43.43489" lon="6.04494">
        <ele>267</ele>
        <time>2016-05-25T14:05:49Z</time>
      </trkpt>
      <trkpt lat="43.43489" lon="6.04501">
        <ele>267</ele>
        <time>2016-05-25T14:05:50Z</time>
      </trkpt>
      <trkpt lat="43.43486" lon="6.04513">
        <ele>267</ele>
        <time>2016-05-25T14:05:52Z</time>
      </trkpt>
      <trkpt lat="43.43481" lon="6.04525">
        <ele>267.20001220703</ele>
        <time>2016-05-25T14:05:54Z</time>
      </trkpt>
      <trkpt lat="43.4347" lon="6.04553">
        <ele>267.60000610352</ele>
        <time>2016-05-25T14:05:59Z</time>
      </trkpt>
      <trkpt lat="43.43467" lon="6.04566">
        <ele>267.60000610352</ele>
        <time>2016-05-25T14:06:01Z</time>
      </trkpt>
      <trkpt lat="43.43459" lon="6.04605">
        <ele>267.60000610352</ele>
        <time>2016-05-25T14:06:07Z</time>
      </trkpt>
      <trkpt lat="43.43457" lon="6.0462">
        <ele>267.39999389648</ele>
        <time>2016-05-25T14:06:09Z</time>
      </trkpt>
      <trkpt lat="43.43455" lon="6.04627">
        <ele>267.39999389648</ele>
        <time>2016-05-25T14:06:10Z</time>
      </trkpt>
      <trkpt lat="43.43452" lon="6.04641">
        <ele>266.79998779297</ele>
        <time>2016-05-25T14:06:12Z</time>
      </trkpt>
      <trkpt lat="43.43448" lon="6.04655">
        <ele>266.60000610352</ele>
        <time>2016-05-25T14:06:14Z</time>
      </trkpt>
      <trkpt lat="43.43446" lon="6.04662">
        <ele>266.39999389648</ele>
        <time>2016-05-25T14:06:15Z</time>
      </trkpt>
      <trkpt lat="43.43444" lon="6.0467">
        <ele>266.39999389648</ele>
        <time>2016-05-25T14:06:16Z</time>
      </trkpt>
      <trkpt lat="43.43441" lon="6.04684">
        <ele>266.20001220703</ele>
        <time>2016-05-25T14:06:18Z</time>
      </trkpt>
      <trkpt lat="43.43438" lon="6.04699">
        <ele>266</ele>
        <time>2016-05-25T14:06:20Z</time>
      </trkpt>
      <trkpt lat="43.43435" lon="6.04721">
        <ele>266</ele>
        <time>2016-05-25T14:06:23Z</time>
      </trkpt>
      <trkpt lat="43.43435" lon="6.04736">
        <ele>266</ele>
        <time>2016-05-25T14:06:25Z</time>
      </trkpt>
      <trkpt lat="43.43433" lon="6.04743">
        <ele>266</ele>
        <time>2016-05-25T14:06:26Z</time>
      </trkpt>
      <trkpt lat="43.43431" lon="6.04767">
        <ele>265.39999389648</ele>
        <time>2016-05-25T14:06:29Z</time>
      </trkpt>
      <trkpt lat="43.4343" lon="6.04775">
        <ele>265.39999389648</ele>
        <time>2016-05-25T14:06:30Z</time>
      </trkpt>
      <trkpt lat="43.4343" lon="6.04784">
        <ele>265.20001220703</ele>
        <time>2016-05-25T14:06:31Z</time>
      </trkpt>
      <trkpt lat="43.43428" lon="6.04815">
        <ele>264.39999389648</ele>
        <time>2016-05-25T14:06:35Z</time>
      </trkpt>
      <trkpt lat="43.43428" lon="6.04823">
        <ele>264.20001220703</ele>
        <time>2016-05-25T14:06:36Z</time>
      </trkpt>
      <trkpt lat="43.43428" lon="6.0483">
        <ele>264.20001220703</ele>
        <time>2016-05-25T14:06:37Z</time>
      </trkpt>
      <trkpt lat="43.43426" lon="6.04883">
        <ele>263.60000610352</ele>
        <time>2016-05-25T14:06:44Z</time>
      </trkpt>
      <trkpt lat="43.43423" lon="6.04926">
        <ele>263.20001220703</ele>
        <time>2016-05-25T14:06:49Z</time>
      </trkpt>
      <trkpt lat="43.43422" lon="6.04935">
        <ele>263.20001220703</ele>
        <time>2016-05-25T14:06:50Z</time>
      </trkpt>
      <trkpt lat="43.43415" lon="6.04983">
        <ele>263.20001220703</ele>
        <time>2016-05-25T14:06:56Z</time>
      </trkpt>
      <trkpt lat="43.4341" lon="6.05011">
        <ele>263.39999389648</ele>
        <time>2016-05-25T14:07:00Z</time>
      </trkpt>
      <trkpt lat="43.4341" lon="6.05017">
        <ele>263.39999389648</ele>
        <time>2016-05-25T14:07:01Z</time>
      </trkpt>
      <trkpt lat="43.4341" lon="6.05023">
        <ele>263.60000610352</ele>
        <time>2016-05-25T14:07:02Z</time>
      </trkpt>
      <trkpt lat="43.43406" lon="6.05039">
        <ele>264.20001220703</ele>
        <time>2016-05-25T14:07:05Z</time>
      </trkpt>
      <trkpt lat="43.43405" lon="6.05048">
        <ele>264.79998779297</ele>
        <time>2016-05-25T14:07:07Z</time>
      </trkpt>
      <trkpt lat="43.43404" lon="6.05056">
        <ele>265.39999389648</ele>
        <time>2016-05-25T14:07:09Z</time>
      </trkpt>
      <trkpt lat="43.43402" lon="6.05071">
        <ele>266.60000610352</ele>
        <time>2016-05-25T14:07:13Z</time>
      </trkpt>
      <trkpt lat="43.43401" lon="6.05074">
        <ele>267</ele>
        <time>2016-05-25T14:07:14Z</time>
      </trkpt>
      <trkpt lat="43.43397" lon="6.05097">
        <ele>267.20001220703</ele>
        <time>2016-05-25T14:07:20Z</time>
      </trkpt>
      <trkpt lat="43.43395" lon="6.05106">
        <ele>267.20001220703</ele>
        <time>2016-05-25T14:07:24Z</time>
      </trkpt>
      <trkpt lat="43.43396" lon="6.05107">
        <ele>267.20001220703</ele>
        <time>2016-05-25T14:07:25Z</time>
      </trkpt>
      <trkpt lat="43.43397" lon="6.05108">
        <ele>267</ele>
        <time>2016-05-25T14:07:32Z</time>
      </trkpt>
      <trkpt lat="43.43397" lon="6.05108">
        <ele>267</ele>
        <time>2016-05-25T14:07:38Z</time>
      </trkpt>
      <trkpt lat="43.43397" lon="6.05108">
        <ele>267.20001220703</ele>
        <time>2016-05-25T14:07:43Z</time>
      </trkpt>
      <trkpt lat="43.43397" lon="6.05108">
        <ele>267.39999389648</ele>
        <time>2016-05-25T14:07:46Z</time>
      </trkpt>
      <trkpt lat="43.43397" lon="6.05108">
        <ele>267.20001220703</ele>
        <time>2016-05-25T14:07:50Z</time>
      </trkpt>
      <trkpt lat="43.43397" lon="6.05108">
        <ele>267</ele>
        <time>2016-05-25T14:08:01Z</time>
      </trkpt>
      <trkpt lat="43.43397" lon="6.05108">
        <ele>267.20001220703</ele>
        <time>2016-05-25T14:08:03Z</time>
      </trkpt>
      <trkpt lat="43.43397" lon="6.05108">
        <ele>267.20001220703</ele>
        <time>2016-05-25T14:08:10Z</time>
      </trkpt>
      <trkpt lat="43.43397" lon="6.05109">
        <ele>267.39999389648</ele>
        <time>2016-05-25T14:08:21Z</time>
      </trkpt>
      <trkpt lat="43.43397" lon="6.05109">
        <ele>267.20001220703</ele>
        <time>2016-05-25T14:08:24Z</time>
      </trkpt>
      <trkpt lat="43.43397" lon="6.05109">
        <ele>267</ele>
        <time>2016-05-25T14:08:39Z</time>
      </trkpt>
      <trkpt lat="43.43397" lon="6.05109">
        <ele>267</ele>
        <time>2016-05-25T14:08:53Z</time>
      </trkpt>
      <trkpt lat="43.43397" lon="6.05109">
        <ele>267</ele>
        <time>2016-05-25T14:09:01Z</time>
      </trkpt>
      <trkpt lat="43.43397" lon="6.05109">
        <ele>267.20001220703</ele>
        <time>2016-05-25T14:09:04Z</time>
      </trkpt>
      <trkpt lat="43.43397" lon="6.05109">
        <ele>267</ele>
        <time>2016-05-25T14:09:34Z</time>
      </trkpt>
      <trkpt lat="43.43397" lon="6.05109">
        <ele>267</ele>
        <time>2016-05-25T14:09:38Z</time>
      </trkpt>
      <trkpt lat="43.43396" lon="6.05111">
        <ele>266.79998779297</ele>
        <time>2016-05-25T14:10:02Z</time>
      </trkpt>
      <trkpt lat="43.43394" lon="6.05119">
        <ele>267</ele>
        <time>2016-05-25T14:10:05Z</time>
      </trkpt>
      <trkpt lat="43.43393" lon="6.05122">
        <ele>267</ele>
        <time>2016-05-25T14:10:06Z</time>
      </trkpt>
      <trkpt lat="43.4339" lon="6.05131">
        <ele>266.60000610352</ele>
        <time>2016-05-25T14:10:08Z</time>
      </trkpt>
      <trkpt lat="43.43389" lon="6.05136">
        <ele>266.39999389648</ele>
        <time>2016-05-25T14:10:09Z</time>
      </trkpt>
      <trkpt lat="43.43387" lon="6.05141">
        <ele>266.20001220703</ele>
        <time>2016-05-25T14:10:10Z</time>
      </trkpt>
      <trkpt lat="43.43385" lon="6.05147">
        <ele>266</ele>
        <time>2016-05-25T14:10:11Z</time>
      </trkpt>
      <trkpt lat="43.43379" lon="6.05165">
        <ele>265.60000610352</ele>
        <time>2016-05-25T14:10:14Z</time>
      </trkpt>
      <trkpt lat="43.43374" lon="6.05178">
        <ele>264.39999389648</ele>
        <time>2016-05-25T14:10:16Z</time>
      </trkpt>
      <trkpt lat="43.43366" lon="6.05199">
        <ele>264</ele>
        <time>2016-05-25T14:10:19Z</time>
      </trkpt>
      <trkpt lat="43.43358" lon="6.05223">
        <ele>264</ele>
        <time>2016-05-25T14:10:22Z</time>
      </trkpt>
      <trkpt lat="43.43355" lon="6.0523">
        <ele>263.60000610352</ele>
        <time>2016-05-25T14:10:23Z</time>
      </trkpt>
      <trkpt lat="43.43352" lon="6.05237">
        <ele>263.39999389648</ele>
        <time>2016-05-25T14:10:24Z</time>
      </trkpt>
      <trkpt lat="43.43347" lon="6.0525">
        <ele>263.39999389648</ele>
        <time>2016-05-25T14:10:26Z</time>
      </trkpt>
      <trkpt lat="43.4334" lon="6.0527">
        <ele>264</ele>
        <time>2016-05-25T14:10:29Z</time>
      </trkpt>
      <trkpt lat="43.43337" lon="6.05277">
        <ele>264.20001220703</ele>
        <time>2016-05-25T14:10:30Z</time>
      </trkpt>
      <trkpt lat="43.43331" lon="6.05295">
        <ele>264.60000610352</ele>
        <time>2016-05-25T14:10:33Z</time>
      </trkpt>
      <trkpt lat="43.43329" lon="6.053">
        <ele>264.60000610352</ele>
        <time>2016-05-25T14:10:34Z</time>
      </trkpt>
      <trkpt lat="43.43327" lon="6.05305">
        <ele>264.79998779297</ele>
        <time>2016-05-25T14:10:35Z</time>
      </trkpt>
      <trkpt lat="43.43325" lon="6.05309">
        <ele>265</ele>
        <time>2016-05-25T14:10:36Z</time>
      </trkpt>
      <trkpt lat="43.43324" lon="6.05312">
        <ele>264.79998779297</ele>
        <time>2016-05-25T14:10:37Z</time>
      </trkpt>
      <trkpt lat="43.43325" lon="6.05313">
        <ele>264.79998779297</ele>
        <time>2016-05-25T14:10:38Z</time>
      </trkpt>
      <trkpt lat="43.43325" lon="6.05314">
        <ele>264.60000610352</ele>
        <time>2016-05-25T14:10:40Z</time>
      </trkpt>
      <trkpt lat="43.43324" lon="6.05311">
        <ele>264.60000610352</ele>
        <time>2016-05-25T14:10:43Z</time>
      </trkpt>
      <trkpt lat="43.43326" lon="6.05309">
        <ele>264.79998779297</ele>
        <time>2016-05-25T14:10:47Z</time>
      </trkpt>
      <trkpt lat="43.43328" lon="6.05309">
        <ele>264.20001220703</ele>
        <time>2016-05-25T14:10:52Z</time>
      </trkpt>
      <trkpt lat="43.43328" lon="6.05309">
        <ele>264</ele>
        <time>2016-05-25T14:10:55Z</time>
      </trkpt>
      <trkpt lat="43.43328" lon="6.05309">
        <ele>263.79998779297</ele>
        <time>2016-05-25T14:10:59Z</time>
      </trkpt>
      <trkpt lat="43.43328" lon="6.05309">
        <ele>263.60000610352</ele>
        <time>2016-05-25T14:11:23Z</time>
      </trkpt>
      <trkpt lat="43.43328" lon="6.05309">
        <ele>263.39999389648</ele>
        <time>2016-05-25T14:11:33Z</time>
      </trkpt>
      <trkpt lat="43.43328" lon="6.05309">
        <ele>263.39999389648</ele>
        <time>2016-05-25T14:11:39Z</time>
      </trkpt>
      <trkpt lat="43.43329" lon="6.05309">
        <ele>264.20001220703</ele>
        <time>2016-05-25T14:11:47Z</time>
      </trkpt>
      <trkpt lat="43.43328" lon="6.05309">
        <ele>264.39999389648</ele>
        <time>2016-05-25T14:11:52Z</time>
      </trkpt>
      <trkpt lat="43.43328" lon="6.0531">
        <ele>264.60000610352</ele>
        <time>2016-05-25T14:11:53Z</time>
      </trkpt>
      <trkpt lat="43.43327" lon="6.05311">
        <ele>264.60000610352</ele>
        <time>2016-05-25T14:11:55Z</time>
      </trkpt>
      <trkpt lat="43.43327" lon="6.05312">
        <ele>264.60000610352</ele>
        <time>2016-05-25T14:12:01Z</time>
      </trkpt>
      <trkpt lat="43.43326" lon="6.05314">
        <ele>264.60000610352</ele>
        <time>2016-05-25T14:12:02Z</time>
      </trkpt>
      <trkpt lat="43.4332" lon="6.05326">
        <ele>264.79998779297</ele>
        <time>2016-05-25T14:12:09Z</time>
      </trkpt>
      <trkpt lat="43.43308" lon="6.05351">
        <ele>264.60000610352</ele>
        <time>2016-05-25T14:12:16Z</time>
      </trkpt>
      <trkpt lat="43.43298" lon="6.0537">
        <ele>264.39999389648</ele>
        <time>2016-05-25T14:12:20Z</time>
      </trkpt>
      <trkpt lat="43.43296" lon="6.05376">
        <ele>264.39999389648</ele>
        <time>2016-05-25T14:12:21Z</time>
      </trkpt>
      <trkpt lat="43.43286" lon="6.054">
        <ele>264.20001220703</ele>
        <time>2016-05-25T14:12:25Z</time>
      </trkpt>
      <trkpt lat="43.43282" lon="6.05411">
        <ele>264.39999389648</ele>
        <time>2016-05-25T14:12:27Z</time>
      </trkpt>
      <trkpt lat="43.43273" lon="6.05438">
        <ele>264.79998779297</ele>
        <time>2016-05-25T14:12:32Z</time>
      </trkpt>
      <trkpt lat="43.43271" lon="6.05443">
        <ele>264.79998779297</ele>
        <time>2016-05-25T14:12:33Z</time>
      </trkpt>
      <trkpt lat="43.43265" lon="6.05456">
        <ele>265.39999389648</ele>
        <time>2016-05-25T14:12:36Z</time>
      </trkpt>
      <trkpt lat="43.43263" lon="6.0546">
        <ele>265.60000610352</ele>
        <time>2016-05-25T14:12:37Z</time>
      </trkpt>
      <trkpt lat="43.43259" lon="6.05467">
        <ele>266.20001220703</ele>
        <time>2016-05-25T14:12:39Z</time>
      </trkpt>
      <trkpt lat="43.43257" lon="6.05473">
        <ele>266.60000610352</ele>
        <time>2016-05-25T14:12:41Z</time>
      </trkpt>
      <trkpt lat="43.43256" lon="6.05477">
        <ele>266.79998779297</ele>
        <time>2016-05-25T14:12:42Z</time>
      </trkpt>
      <trkpt lat="43.43251" lon="6.0549">
        <ele>267.79998779297</ele>
        <time>2016-05-25T14:12:46Z</time>
      </trkpt>
      <trkpt lat="43.43251" lon="6.05492">
        <ele>268</ele>
        <time>2016-05-25T14:12:47Z</time>
      </trkpt>
      <trkpt lat="43.4325" lon="6.05497">
        <ele>268.39999389648</ele>
        <time>2016-05-25T14:12:49Z</time>
      </trkpt>
      <trkpt lat="43.43248" lon="6.05501">
        <ele>269</ele>
        <time>2016-05-25T14:12:51Z</time>
      </trkpt>
      <trkpt lat="43.43246" lon="6.05507">
        <ele>269.20001220703</ele>
        <time>2016-05-25T14:12:53Z</time>
      </trkpt>
      <trkpt lat="43.43241" lon="6.05523">
        <ele>269.79998779297</ele>
        <time>2016-05-25T14:12:59Z</time>
      </trkpt>
      <trkpt lat="43.43238" lon="6.05533">
        <ele>270.20001220703</ele>
        <time>2016-05-25T14:13:02Z</time>
      </trkpt>
      <trkpt lat="43.43235" lon="6.05543">
        <ele>270.60000610352</ele>
        <time>2016-05-25T14:13:05Z</time>
      </trkpt>
      <trkpt lat="43.43233" lon="6.05554">
        <ele>270.60000610352</ele>
        <time>2016-05-25T14:13:08Z</time>
      </trkpt>
      <trkpt lat="43.4323" lon="6.05569">
        <ele>270.79998779297</ele>
        <time>2016-05-25T14:13:12Z</time>
      </trkpt>
      <trkpt lat="43.43227" lon="6.05605">
        <ele>270.79998779297</ele>
        <time>2016-05-25T14:13:20Z</time>
      </trkpt>
      <trkpt lat="43.43223" lon="6.05636">
        <ele>271.39999389648</ele>
        <time>2016-05-25T14:13:27Z</time>
      </trkpt>
      <trkpt lat="43.43222" lon="6.05641">
        <ele>271.60000610352</ele>
        <time>2016-05-25T14:13:28Z</time>
      </trkpt>
      <trkpt lat="43.43218" lon="6.05686">
        <ele>272.20001220703</ele>
        <time>2016-05-25T14:13:37Z</time>
      </trkpt>
      <trkpt lat="43.43214" lon="6.05721">
        <ele>272.20001220703</ele>
        <time>2016-05-25T14:13:44Z</time>
      </trkpt>
      <trkpt lat="43.43213" lon="6.05742">
        <ele>272.20001220703</ele>
        <time>2016-05-25T14:13:48Z</time>
      </trkpt>
      <trkpt lat="43.43212" lon="6.05765">
        <ele>272.39999389648</ele>
        <time>2016-05-25T14:13:52Z</time>
      </trkpt>
      <trkpt lat="43.43208" lon="6.05795">
        <ele>272.39999389648</ele>
        <time>2016-05-25T14:13:57Z</time>
      </trkpt>
      <trkpt lat="43.43206" lon="6.05808">
        <ele>272</ele>
        <time>2016-05-25T14:13:59Z</time>
      </trkpt>
      <trkpt lat="43.43201" lon="6.05843">
        <ele>271.20001220703</ele>
        <time>2016-05-25T14:14:04Z</time>
      </trkpt>
      <trkpt lat="43.43199" lon="6.05849">
        <ele>271</ele>
        <time>2016-05-25T14:14:05Z</time>
      </trkpt>
      <trkpt lat="43.43198" lon="6.05856">
        <ele>270.79998779297</ele>
        <time>2016-05-25T14:14:06Z</time>
      </trkpt>
      <trkpt lat="43.43193" lon="6.05888">
        <ele>270.79998779297</ele>
        <time>2016-05-25T14:14:11Z</time>
      </trkpt>
      <trkpt lat="43.43189" lon="6.059">
        <ele>270.60000610352</ele>
        <time>2016-05-25T14:14:13Z</time>
      </trkpt>
      <trkpt lat="43.43179" lon="6.05933">
        <ele>270.79998779297</ele>
        <time>2016-05-25T14:14:19Z</time>
      </trkpt>
      <trkpt lat="43.43172" lon="6.05965">
        <ele>271.20001220703</ele>
        <time>2016-05-25T14:14:25Z</time>
      </trkpt>
      <trkpt lat="43.43161" lon="6.06005">
        <ele>270.79998779297</ele>
        <time>2016-05-25T14:14:32Z</time>
      </trkpt>
      <trkpt lat="43.4316" lon="6.06011">
        <ele>270.79998779297</ele>
        <time>2016-05-25T14:14:33Z</time>
      </trkpt>
      <trkpt lat="43.43154" lon="6.0605">
        <ele>271.39999389648</ele>
        <time>2016-05-25T14:14:40Z</time>
      </trkpt>
      <trkpt lat="43.43147" lon="6.06085">
        <ele>272.20001220703</ele>
        <time>2016-05-25T14:14:47Z</time>
      </trkpt>
      <trkpt lat="43.43145" lon="6.0609">
        <ele>272.20001220703</ele>
        <time>2016-05-25T14:14:48Z</time>
      </trkpt>
      <trkpt lat="43.43138" lon="6.06132">
        <ele>271.60000610352</ele>
        <time>2016-05-25T14:14:55Z</time>
      </trkpt>
      <trkpt lat="43.43131" lon="6.06167">
        <ele>271</ele>
        <time>2016-05-25T14:15:00Z</time>
      </trkpt>
      <trkpt lat="43.43128" lon="6.06186">
        <ele>270.79998779297</ele>
        <time>2016-05-25T14:15:03Z</time>
      </trkpt>
      <trkpt lat="43.43127" lon="6.06193">
        <ele>270.60000610352</ele>
        <time>2016-05-25T14:15:04Z</time>
      </trkpt>
      <trkpt lat="43.43126" lon="6.06217">
        <ele>270.60000610352</ele>
        <time>2016-05-25T14:15:08Z</time>
      </trkpt>
      <trkpt lat="43.43126" lon="6.06223">
        <ele>270.60000610352</ele>
        <time>2016-05-25T14:15:09Z</time>
      </trkpt>
      <trkpt lat="43.43125" lon="6.0623">
        <ele>270.60000610352</ele>
        <time>2016-05-25T14:15:10Z</time>
      </trkpt>
      <trkpt lat="43.43127" lon="6.06254">
        <ele>269.79998779297</ele>
        <time>2016-05-25T14:15:13Z</time>
      </trkpt>
      <trkpt lat="43.43127" lon="6.06285">
        <ele>268.60000610352</ele>
        <time>2016-05-25T14:15:17Z</time>
      </trkpt>
      <trkpt lat="43.43127" lon="6.06292">
        <ele>268.60000610352</ele>
        <time>2016-05-25T14:15:18Z</time>
      </trkpt>
      <trkpt lat="43.43127" lon="6.06313">
        <ele>268.20001220703</ele>
        <time>2016-05-25T14:15:21Z</time>
      </trkpt>
      <trkpt lat="43.43128" lon="6.06333">
        <ele>268</ele>
        <time>2016-05-25T14:15:24Z</time>
      </trkpt>
      <trkpt lat="43.43129" lon="6.06341">
        <ele>267.60000610352</ele>
        <time>2016-05-25T14:15:25Z</time>
      </trkpt>
      <trkpt lat="43.43132" lon="6.06374">
        <ele>266</ele>
        <time>2016-05-25T14:15:29Z</time>
      </trkpt>
      <trkpt lat="43.43133" lon="6.06381">
        <ele>265.39999389648</ele>
        <time>2016-05-25T14:15:30Z</time>
      </trkpt>
      <trkpt lat="43.43134" lon="6.06389">
        <ele>265</ele>
        <time>2016-05-25T14:15:31Z</time>
      </trkpt>
      <trkpt lat="43.43135" lon="6.06397">
        <ele>264.79998779297</ele>
        <time>2016-05-25T14:15:32Z</time>
      </trkpt>
      <trkpt lat="43.43138" lon="6.06419">
        <ele>264.39999389648</ele>
        <time>2016-05-25T14:15:35Z</time>
      </trkpt>
      <trkpt lat="43.4314" lon="6.06434">
        <ele>263.39999389648</ele>
        <time>2016-05-25T14:15:37Z</time>
      </trkpt>
      <trkpt lat="43.43143" lon="6.06455">
        <ele>262.79998779297</ele>
        <time>2016-05-25T14:15:40Z</time>
      </trkpt>
      <trkpt lat="43.43148" lon="6.0647">
        <ele>262.60000610352</ele>
        <time>2016-05-25T14:15:44Z</time>
      </trkpt>
      <trkpt lat="43.43148" lon="6.06472">
        <ele>262.60000610352</ele>
        <time>2016-05-25T14:15:45Z</time>
      </trkpt>
      <trkpt lat="43.4315" lon="6.06474">
        <ele>262.79998779297</ele>
        <time>2016-05-25T14:15:51Z</time>
      </trkpt>
      <trkpt lat="43.4315" lon="6.06474">
        <ele>262.79998779297</ele>
        <time>2016-05-25T14:15:54Z</time>
      </trkpt>
      <trkpt lat="43.4315" lon="6.06474">
        <ele>262.79998779297</ele>
        <time>2016-05-25T14:16:05Z</time>
      </trkpt>
      <trkpt lat="43.4315" lon="6.06474">
        <ele>262.60000610352</ele>
        <time>2016-05-25T14:16:20Z</time>
      </trkpt>
      <trkpt lat="43.4315" lon="6.06474">
        <ele>262.60000610352</ele>
        <time>2016-05-25T14:16:28Z</time>
      </trkpt>
      <trkpt lat="43.4315" lon="6.06474">
        <ele>262.60000610352</ele>
        <time>2016-05-25T14:16:32Z</time>
      </trkpt>
      <trkpt lat="43.4315" lon="6.06474">
        <ele>262.79998779297</ele>
        <time>2016-05-25T14:16:42Z</time>
      </trkpt>
      <trkpt lat="43.43149" lon="6.06475">
        <ele>262.60000610352</ele>
        <time>2016-05-25T14:16:52Z</time>
      </trkpt>
      <trkpt lat="43.43148" lon="6.06475">
        <ele>262.60000610352</ele>
        <time>2016-05-25T14:17:05Z</time>
      </trkpt>
      <trkpt lat="43.43148" lon="6.06475">
        <ele>262.60000610352</ele>
        <time>2016-05-25T14:17:19Z</time>
      </trkpt>
      <trkpt lat="43.43147" lon="6.06476">
        <ele>262.60000610352</ele>
        <time>2016-05-25T14:17:21Z</time>
      </trkpt>
      <trkpt lat="43.43146" lon="6.06476">
        <ele>262.60000610352</ele>
        <time>2016-05-25T14:17:22Z</time>
      </trkpt>
      <trkpt lat="43.43142" lon="6.06476">
        <ele>262.79998779297</ele>
        <time>2016-05-25T14:17:25Z</time>
      </trkpt>
      <trkpt lat="43.43137" lon="6.06475">
        <ele>263.39999389648</ele>
        <time>2016-05-25T14:17:29Z</time>
      </trkpt>
      <trkpt lat="43.43136" lon="6.06475">
        <ele>263.79998779297</ele>
        <time>2016-05-25T14:17:30Z</time>
      </trkpt>
      <trkpt lat="43.43133" lon="6.06475">
        <ele>264.79998779297</ele>
        <time>2016-05-25T14:17:33Z</time>
      </trkpt>
      <trkpt lat="43.4313" lon="6.06474">
        <ele>265.20001220703</ele>
        <time>2016-05-25T14:17:35Z</time>
      </trkpt>
      <trkpt lat="43.43129" lon="6.06474">
        <ele>265.20001220703</ele>
        <time>2016-05-25T14:17:36Z</time>
      </trkpt>
      <trkpt lat="43.43127" lon="6.06474">
        <ele>265.20001220703</ele>
        <time>2016-05-25T14:17:38Z</time>
      </trkpt>
      <trkpt lat="43.43124" lon="6.06474">
        <ele>265.39999389648</ele>
        <time>2016-05-25T14:17:40Z</time>
      </trkpt>
      <trkpt lat="43.43122" lon="6.06474">
        <ele>266</ele>
        <time>2016-05-25T14:17:42Z</time>
      </trkpt>
      <trkpt lat="43.43119" lon="6.06474">
        <ele>266.79998779297</ele>
        <time>2016-05-25T14:17:44Z</time>
      </trkpt>
      <trkpt lat="43.43118" lon="6.06474">
        <ele>267</ele>
        <time>2016-05-25T14:17:45Z</time>
      </trkpt>
      <trkpt lat="43.43116" lon="6.06473">
        <ele>267.20001220703</ele>
        <time>2016-05-25T14:17:46Z</time>
      </trkpt>
      <trkpt lat="43.43114" lon="6.06469">
        <ele>268</ele>
        <time>2016-05-25T14:17:50Z</time>
      </trkpt>
      <trkpt lat="43.43113" lon="6.06467">
        <ele>268.39999389648</ele>
        <time>2016-05-25T14:17:51Z</time>
      </trkpt>
      <trkpt lat="43.43113" lon="6.06465">
        <ele>268.60000610352</ele>
        <time>2016-05-25T14:17:53Z</time>
      </trkpt>
      <trkpt lat="43.43113" lon="6.06464">
        <ele>269</ele>
        <time>2016-05-25T14:17:54Z</time>
      </trkpt>
      <trkpt lat="43.43113" lon="6.06463">
        <ele>269.39999389648</ele>
        <time>2016-05-25T14:17:55Z</time>
      </trkpt>
      <trkpt lat="43.43113" lon="6.06462">
        <ele>269.60000610352</ele>
        <time>2016-05-25T14:17:56Z</time>
      </trkpt>
      <trkpt lat="43.43114" lon="6.06459">
        <ele>270</ele>
        <time>2016-05-25T14:17:59Z</time>
      </trkpt>
      <trkpt lat="43.43113" lon="6.06457">
        <ele>270.20001220703</ele>
        <time>2016-05-25T14:18:01Z</time>
      </trkpt>
      <trkpt lat="43.43112" lon="6.06454">
        <ele>270.39999389648</ele>
        <time>2016-05-25T14:18:03Z</time>
      </trkpt>
      <trkpt lat="43.43109" lon="6.06449">
        <ele>270.39999389648</ele>
        <time>2016-05-25T14:18:06Z</time>
      </trkpt>
      <trkpt lat="43.43107" lon="6.06445">
        <ele>270.60000610352</ele>
        <time>2016-05-25T14:18:08Z</time>
      </trkpt>
      <trkpt lat="43.43106" lon="6.06443">
        <ele>270.79998779297</ele>
        <time>2016-05-25T14:18:09Z</time>
      </trkpt>
      <trkpt lat="43.43101" lon="6.06434">
        <ele>271.39999389648</ele>
        <time>2016-05-25T14:18:14Z</time>
      </trkpt>
      <trkpt lat="43.431" lon="6.06432">
        <ele>271.39999389648</ele>
        <time>2016-05-25T14:18:15Z</time>
      </trkpt>
      <trkpt lat="43.43097" lon="6.06424">
        <ele>271.79998779297</ele>
        <time>2016-05-25T14:18:19Z</time>
      </trkpt>
      <trkpt lat="43.43095" lon="6.0642">
        <ele>272.20001220703</ele>
        <time>2016-05-25T14:18:21Z</time>
      </trkpt>
      <trkpt lat="43.43094" lon="6.0641">
        <ele>272.60000610352</ele>
        <time>2016-05-25T14:18:26Z</time>
      </trkpt>
      <trkpt lat="43.43094" lon="6.06406">
        <ele>272.79998779297</ele>
        <time>2016-05-25T14:18:28Z</time>
      </trkpt>
      <trkpt lat="43.43094" lon="6.06402">
        <ele>273</ele>
        <time>2016-05-25T14:18:30Z</time>
      </trkpt>
      <trkpt lat="43.43093" lon="6.06396">
        <ele>273.20001220703</ele>
        <time>2016-05-25T14:18:33Z</time>
      </trkpt>
      <trkpt lat="43.43092" lon="6.06382">
        <ele>273.60000610352</ele>
        <time>2016-05-25T14:18:39Z</time>
      </trkpt>
      <trkpt lat="43.43091" lon="6.06377">
        <ele>273.79998779297</ele>
        <time>2016-05-25T14:18:41Z</time>
      </trkpt>
      <trkpt lat="43.43087" lon="6.06366">
        <ele>273.79998779297</ele>
        <time>2016-05-25T14:18:45Z</time>
      </trkpt>
      <trkpt lat="43.43082" lon="6.06357">
        <ele>273.79998779297</ele>
        <time>2016-05-25T14:18:49Z</time>
      </trkpt>
      <trkpt lat="43.43079" lon="6.06353">
        <ele>273.79998779297</ele>
        <time>2016-05-25T14:18:51Z</time>
      </trkpt>
      <trkpt lat="43.43074" lon="6.06349">
        <ele>274</ele>
        <time>2016-05-25T14:18:54Z</time>
      </trkpt>
      <trkpt lat="43.4307" lon="6.06348">
        <ele>274.20001220703</ele>
        <time>2016-05-25T14:18:56Z</time>
      </trkpt>
      <trkpt lat="43.43062" lon="6.06344">
        <ele>274.39999389648</ele>
        <time>2016-05-25T14:19:00Z</time>
      </trkpt>
      <trkpt lat="43.43057" lon="6.06341">
        <ele>275</ele>
        <time>2016-05-25T14:19:03Z</time>
      </trkpt>
      <trkpt lat="43.43049" lon="6.06338">
        <ele>275.60000610352</ele>
        <time>2016-05-25T14:19:07Z</time>
      </trkpt>
      <trkpt lat="43.43044" lon="6.06328">
        <ele>275.39999389648</ele>
        <time>2016-05-25T14:19:12Z</time>
      </trkpt>
      <trkpt lat="43.4304" lon="6.06316">
        <ele>275.39999389648</ele>
        <time>2016-05-25T14:19:17Z</time>
      </trkpt>
      <trkpt lat="43.43029" lon="6.06308">
        <ele>276</ele>
        <time>2016-05-25T14:19:22Z</time>
      </trkpt>
      <trkpt lat="43.43027" lon="6.06308">
        <ele>276.20001220703</ele>
        <time>2016-05-25T14:19:23Z</time>
      </trkpt>
      <trkpt lat="43.43013" lon="6.06306">
        <ele>276.79998779297</ele>
        <time>2016-05-25T14:19:30Z</time>
      </trkpt>
      <trkpt lat="43.43005" lon="6.06307">
        <ele>277.20001220703</ele>
        <time>2016-05-25T14:19:34Z</time>
      </trkpt>
      <trkpt lat="43.43003" lon="6.06307">
        <ele>277.20001220703</ele>
        <time>2016-05-25T14:19:35Z</time>
      </trkpt>
      <trkpt lat="43.43001" lon="6.06306">
        <ele>277.39999389648</ele>
        <time>2016-05-25T14:19:36Z</time>
      </trkpt>
      <trkpt lat="43.42992" lon="6.06303">
        <ele>277.60000610352</ele>
        <time>2016-05-25T14:19:41Z</time>
      </trkpt>
      <trkpt lat="43.4299" lon="6.06302">
        <ele>277.79998779297</ele>
        <time>2016-05-25T14:19:42Z</time>
      </trkpt>
      <trkpt lat="43.42979" lon="6.063">
        <ele>278.39999389648</ele>
        <time>2016-05-25T14:19:48Z</time>
      </trkpt>
      <trkpt lat="43.42978" lon="6.06301">
        <ele>278.60000610352</ele>
        <time>2016-05-25T14:19:49Z</time>
      </trkpt>
      <trkpt lat="43.42967" lon="6.063">
        <ele>279.39999389648</ele>
        <time>2016-05-25T14:19:55Z</time>
      </trkpt>
      <trkpt lat="43.42966" lon="6.06299">
        <ele>279.60000610352</ele>
        <time>2016-05-25T14:19:56Z</time>
      </trkpt>
      <trkpt lat="43.4296" lon="6.06293">
        <ele>279.79998779297</ele>
        <time>2016-05-25T14:20:00Z</time>
      </trkpt>
      <trkpt lat="43.42952" lon="6.06281">
        <ele>280.39999389648</ele>
        <time>2016-05-25T14:20:07Z</time>
      </trkpt>
      <trkpt lat="43.4295" lon="6.0628">
        <ele>280.60000610352</ele>
        <time>2016-05-25T14:20:09Z</time>
      </trkpt>
      <trkpt lat="43.42949" lon="6.06279">
        <ele>280.60000610352</ele>
        <time>2016-05-25T14:20:10Z</time>
      </trkpt>
      <trkpt lat="43.42944" lon="6.06278">
        <ele>281.20001220703</ele>
        <time>2016-05-25T14:20:13Z</time>
      </trkpt>
      <trkpt lat="43.42938" lon="6.06279">
        <ele>281.79998779297</ele>
        <time>2016-05-25T14:20:17Z</time>
      </trkpt>
      <trkpt lat="43.42937" lon="6.06279">
        <ele>282</ele>
        <time>2016-05-25T14:20:18Z</time>
      </trkpt>
      <trkpt lat="43.42934" lon="6.0628">
        <ele>283</ele>
        <time>2016-05-25T14:20:21Z</time>
      </trkpt>
      <trkpt lat="43.4293" lon="6.06281">
        <ele>283.39999389648</ele>
        <time>2016-05-25T14:20:25Z</time>
      </trkpt>
      <trkpt lat="43.42929" lon="6.0628">
        <ele>284</ele>
        <time>2016-05-25T14:20:35Z</time>
      </trkpt>
      <trkpt lat="43.42929" lon="6.0628">
        <ele>284</ele>
        <time>2016-05-25T14:20:38Z</time>
      </trkpt>
      <trkpt lat="43.42929" lon="6.0628">
        <ele>283.60000610352</ele>
        <time>2016-05-25T14:20:42Z</time>
      </trkpt>
      <trkpt lat="43.42929" lon="6.0628">
        <ele>283.60000610352</ele>
        <time>2016-05-25T14:20:47Z</time>
      </trkpt>
      <trkpt lat="43.42929" lon="6.0628">
        <ele>283.39999389648</ele>
        <time>2016-05-25T14:20:50Z</time>
      </trkpt>
      <trkpt lat="43.42929" lon="6.0628">
        <ele>283.39999389648</ele>
        <time>2016-05-25T14:20:54Z</time>
      </trkpt>
      <trkpt lat="43.42929" lon="6.0628">
        <ele>283.60000610352</ele>
        <time>2016-05-25T14:21:00Z</time>
      </trkpt>
      <trkpt lat="43.42929" lon="6.0628">
        <ele>283.39999389648</ele>
        <time>2016-05-25T14:21:02Z</time>
      </trkpt>
      <trkpt lat="43.42929" lon="6.0628">
        <ele>283</ele>
        <time>2016-05-25T14:21:07Z</time>
      </trkpt>
      <trkpt lat="43.42929" lon="6.06281">
        <ele>283.20001220703</ele>
        <time>2016-05-25T14:21:14Z</time>
      </trkpt>
      <trkpt lat="43.42928" lon="6.06281">
        <ele>283.39999389648</ele>
        <time>2016-05-25T14:21:27Z</time>
      </trkpt>
      <trkpt lat="43.42928" lon="6.06281">
        <ele>283.39999389648</ele>
        <time>2016-05-25T14:21:37Z</time>
      </trkpt>
      <trkpt lat="43.42928" lon="6.06281">
        <ele>283</ele>
        <time>2016-05-25T14:21:42Z</time>
      </trkpt>
      <trkpt lat="43.42928" lon="6.06281">
        <ele>283.20001220703</ele>
        <time>2016-05-25T14:21:52Z</time>
      </trkpt>
      <trkpt lat="43.42928" lon="6.06281">
        <ele>283.20001220703</ele>
        <time>2016-05-25T14:21:58Z</time>
      </trkpt>
      <trkpt lat="43.42925" lon="6.0628">
        <ele>284</ele>
        <time>2016-05-25T14:22:10Z</time>
      </trkpt>
      <trkpt lat="43.42923" lon="6.06278">
        <ele>284.20001220703</ele>
        <time>2016-05-25T14:22:12Z</time>
      </trkpt>
      <trkpt lat="43.4292" lon="6.06275">
        <ele>284.79998779297</ele>
        <time>2016-05-25T14:22:15Z</time>
      </trkpt>
      <trkpt lat="43.42918" lon="6.06273">
        <ele>285</ele>
        <time>2016-05-25T14:22:16Z</time>
      </trkpt>
      <trkpt lat="43.42917" lon="6.06272">
        <ele>285.20001220703</ele>
        <time>2016-05-25T14:22:17Z</time>
      </trkpt>
      <trkpt lat="43.42914" lon="6.06271">
        <ele>285.39999389648</ele>
        <time>2016-05-25T14:22:19Z</time>
      </trkpt>
      <trkpt lat="43.42913" lon="6.0627">
        <ele>286</ele>
        <time>2016-05-25T14:22:21Z</time>
      </trkpt>
      <trkpt lat="43.42913" lon="6.06269">
        <ele>286.39999389648</ele>
        <time>2016-05-25T14:22:23Z</time>
      </trkpt>
      <trkpt lat="43.4291" lon="6.0627">
        <ele>287</ele>
        <time>2016-05-25T14:22:30Z</time>
      </trkpt>
      <trkpt lat="43.4291" lon="6.0627">
        <ele>287.20001220703</ele>
        <time>2016-05-25T14:22:31Z</time>
      </trkpt>
      <trkpt lat="43.42909" lon="6.06271">
        <ele>287.39999389648</ele>
        <time>2016-05-25T14:22:38Z</time>
      </trkpt>
      <trkpt lat="43.42909" lon="6.06271">
        <ele>287.39999389648</ele>
        <time>2016-05-25T14:22:39Z</time>
      </trkpt>
      <trkpt lat="43.42907" lon="6.06271">
        <ele>287.60000610352</ele>
        <time>2016-05-25T14:22:45Z</time>
      </trkpt>
      <trkpt lat="43.42905" lon="6.06272">
        <ele>287.79998779297</ele>
        <time>2016-05-25T14:22:48Z</time>
      </trkpt>
      <trkpt lat="43.42905" lon="6.06271">
        <ele>288.20001220703</ele>
        <time>2016-05-25T14:22:50Z</time>
      </trkpt>
      <trkpt lat="43.42903" lon="6.06271">
        <ele>288.79998779297</ele>
        <time>2016-05-25T14:22:56Z</time>
      </trkpt>
      <trkpt lat="43.429" lon="6.06271">
        <ele>289.20001220703</ele>
        <time>2016-05-25T14:23:02Z</time>
      </trkpt>
      <trkpt lat="43.42899" lon="6.0627">
        <ele>289.79998779297</ele>
        <time>2016-05-25T14:23:05Z</time>
      </trkpt>
      <trkpt lat="43.42899" lon="6.06271">
        <ele>290.39999389648</ele>
        <time>2016-05-25T14:23:12Z</time>
      </trkpt>
      <trkpt lat="43.42899" lon="6.06271">
        <ele>290.60000610352</ele>
        <time>2016-05-25T14:23:15Z</time>
      </trkpt>
      <trkpt lat="43.42897" lon="6.06269">
        <ele>290.20001220703</ele>
        <time>2016-05-25T14:23:27Z</time>
      </trkpt>
      <trkpt lat="43.42894" lon="6.06267">
        <ele>290.79998779297</ele>
        <time>2016-05-25T14:23:30Z</time>
      </trkpt>
      <trkpt lat="43.42892" lon="6.06264">
        <ele>291.39999389648</ele>
        <time>2016-05-25T14:23:33Z</time>
      </trkpt>
      <trkpt lat="43.42892" lon="6.06264">
        <ele>291.79998779297</ele>
        <time>2016-05-25T14:23:35Z</time>
      </trkpt>
      <trkpt lat="43.42891" lon="6.06263">
        <ele>292</ele>
        <time>2016-05-25T14:23:37Z</time>
      </trkpt>
      <trkpt lat="43.42891" lon="6.06263">
        <ele>292</ele>
        <time>2016-05-25T14:23:38Z</time>
      </trkpt>
      <trkpt lat="43.42891" lon="6.06263">
        <ele>292.20001220703</ele>
        <time>2016-05-25T14:23:39Z</time>
      </trkpt>
      <trkpt lat="43.42892" lon="6.06263">
        <ele>292.60000610352</ele>
        <time>2016-05-25T14:23:42Z</time>
      </trkpt>
      <trkpt lat="43.42891" lon="6.06262">
        <ele>293</ele>
        <time>2016-05-25T14:23:47Z</time>
      </trkpt>
      <trkpt lat="43.42889" lon="6.06261">
        <ele>293.60000610352</ele>
        <time>2016-05-25T14:23:50Z</time>
      </trkpt>
      <trkpt lat="43.42888" lon="6.0626">
        <ele>293.79998779297</ele>
        <time>2016-05-25T14:23:51Z</time>
      </trkpt>
      <trkpt lat="43.42888" lon="6.06261">
        <ele>294</ele>
        <time>2016-05-25T14:23:56Z</time>
      </trkpt>
      <trkpt lat="43.42886" lon="6.0626">
        <ele>293.79998779297</ele>
        <time>2016-05-25T14:24:04Z</time>
      </trkpt>
      <trkpt lat="43.42886" lon="6.0626">
        <ele>293.60000610352</ele>
        <time>2016-05-25T14:24:13Z</time>
      </trkpt>
      <trkpt lat="43.42886" lon="6.0626">
        <ele>293.79998779297</ele>
        <time>2016-05-25T14:24:17Z</time>
      </trkpt>
      <trkpt lat="43.42886" lon="6.06259">
        <ele>293.79998779297</ele>
        <time>2016-05-25T14:24:22Z</time>
      </trkpt>
      <trkpt lat="43.42884" lon="6.06258">
        <ele>294</ele>
        <time>2016-05-25T14:24:24Z</time>
      </trkpt>
      <trkpt lat="43.42879" lon="6.06255">
        <ele>294.60000610352</ele>
        <time>2016-05-25T14:24:28Z</time>
      </trkpt>
      <trkpt lat="43.42876" lon="6.06255">
        <ele>295</ele>
        <time>2016-05-25T14:24:31Z</time>
      </trkpt>
      <trkpt lat="43.42875" lon="6.06254">
        <ele>295.60000610352</ele>
        <time>2016-05-25T14:24:33Z</time>
      </trkpt>
      <trkpt lat="43.42871" lon="6.06252">
        <ele>296.20001220703</ele>
        <time>2016-05-25T14:24:36Z</time>
      </trkpt>
      <trkpt lat="43.4287" lon="6.06251">
        <ele>296.60000610352</ele>
        <time>2016-05-25T14:24:37Z</time>
      </trkpt>
      <trkpt lat="43.42869" lon="6.0625">
        <ele>296.79998779297</ele>
        <time>2016-05-25T14:24:38Z</time>
      </trkpt>
      <trkpt lat="43.42869" lon="6.06249">
        <ele>297</ele>
        <time>2016-05-25T14:24:39Z</time>
      </trkpt>
      <trkpt lat="43.42868" lon="6.06244">
        <ele>297.79998779297</ele>
        <time>2016-05-25T14:24:42Z</time>
      </trkpt>
      <trkpt lat="43.42867" lon="6.06243">
        <ele>298.20001220703</ele>
        <time>2016-05-25T14:24:43Z</time>
      </trkpt>
      <trkpt lat="43.42866" lon="6.06244">
        <ele>298.60000610352</ele>
        <time>2016-05-25T14:24:45Z</time>
      </trkpt>
      <trkpt lat="43.42865" lon="6.06244">
        <ele>298.79998779297</ele>
        <time>2016-05-25T14:24:46Z</time>
      </trkpt>
      <trkpt lat="43.42865" lon="6.06243">
        <ele>298.79998779297</ele>
        <time>2016-05-25T14:24:47Z</time>
      </trkpt>
      <trkpt lat="43.42864" lon="6.06244">
        <ele>299</ele>
        <time>2016-05-25T14:24:48Z</time>
      </trkpt>
      <trkpt lat="43.42864" lon="6.06244">
        <ele>299</ele>
        <time>2016-05-25T14:24:49Z</time>
      </trkpt>
      <trkpt lat="43.42863" lon="6.06242">
        <ele>299</ele>
        <time>2016-05-25T14:24:51Z</time>
      </trkpt>
      <trkpt lat="43.42861" lon="6.0624">
        <ele>299.60000610352</ele>
        <time>2016-05-25T14:24:55Z</time>
      </trkpt>
      <trkpt lat="43.4286" lon="6.06238">
        <ele>299.79998779297</ele>
        <time>2016-05-25T14:24:58Z</time>
      </trkpt>
      <trkpt lat="43.42859" lon="6.06236">
        <ele>300</ele>
        <time>2016-05-25T14:25:01Z</time>
      </trkpt>
      <trkpt lat="43.42859" lon="6.06235">
        <ele>300.39999389648</ele>
        <time>2016-05-25T14:25:05Z</time>
      </trkpt>
      <trkpt lat="43.42859" lon="6.06235">
        <ele>300.39999389648</ele>
        <time>2016-05-25T14:25:08Z</time>
      </trkpt>
      <trkpt lat="43.42859" lon="6.06235">
        <ele>300.39999389648</ele>
        <time>2016-05-25T14:25:18Z</time>
      </trkpt>
      <trkpt lat="43.42859" lon="6.06235">
        <ele>300.20001220703</ele>
        <time>2016-05-25T14:25:21Z</time>
      </trkpt>
      <trkpt lat="43.42859" lon="6.06235">
        <ele>300.20001220703</ele>
        <time>2016-05-25T14:25:24Z</time>
      </trkpt>
      <trkpt lat="43.42859" lon="6.06235">
        <ele>300.39999389648</ele>
        <time>2016-05-25T14:25:27Z</time>
      </trkpt>
      <trkpt lat="43.42859" lon="6.06235">
        <ele>300.20001220703</ele>
        <time>2016-05-25T14:25:31Z</time>
      </trkpt>
      <trkpt lat="43.42859" lon="6.06235">
        <ele>300.39999389648</ele>
        <time>2016-05-25T14:25:36Z</time>
      </trkpt>
      <trkpt lat="43.42859" lon="6.06235">
        <ele>300.39999389648</ele>
        <time>2016-05-25T14:25:42Z</time>
      </trkpt>
      <trkpt lat="43.42859" lon="6.06235">
        <ele>300.39999389648</ele>
        <time>2016-05-25T14:25:50Z</time>
      </trkpt>
      <trkpt lat="43.42859" lon="6.06235">
        <ele>300.39999389648</ele>
        <time>2016-05-25T14:25:51Z</time>
      </trkpt>
      <trkpt lat="43.42859" lon="6.06235">
        <ele>300.20001220703</ele>
        <time>2016-05-25T14:25:58Z</time>
      </trkpt>
      <trkpt lat="43.42859" lon="6.06235">
        <ele>300.39999389648</ele>
        <time>2016-05-25T14:26:03Z</time>
      </trkpt>
      <trkpt lat="43.42859" lon="6.06235">
        <ele>300.39999389648</ele>
        <time>2016-05-25T14:26:08Z</time>
      </trkpt>
      <trkpt lat="43.42858" lon="6.06233">
        <ele>300.60000610352</ele>
        <time>2016-05-25T14:26:18Z</time>
      </trkpt>
      <trkpt lat="43.42858" lon="6.06232">
        <ele>300.60000610352</ele>
        <time>2016-05-25T14:26:21Z</time>
      </trkpt>
      <trkpt lat="43.42854" lon="6.06227">
        <ele>300.60000610352</ele>
        <time>2016-05-25T14:26:25Z</time>
      </trkpt>
      <trkpt lat="43.42844" lon="6.06225">
        <ele>299.60000610352</ele>
        <time>2016-05-25T14:26:30Z</time>
      </trkpt>
      <trkpt lat="43.42842" lon="6.06226">
        <ele>299.20001220703</ele>
        <time>2016-05-25T14:26:31Z</time>
      </trkpt>
      <trkpt lat="43.42841" lon="6.06227">
        <ele>298.79998779297</ele>
        <time>2016-05-25T14:26:32Z</time>
      </trkpt>
      <trkpt lat="43.42838" lon="6.0623">
        <ele>298.20001220703</ele>
        <time>2016-05-25T14:26:34Z</time>
      </trkpt>
      <trkpt lat="43.42835" lon="6.06232">
        <ele>297.79998779297</ele>
        <time>2016-05-25T14:26:36Z</time>
      </trkpt>
      <trkpt lat="43.42832" lon="6.06235">
        <ele>297</ele>
        <time>2016-05-25T14:26:38Z</time>
      </trkpt>
      <trkpt lat="43.42831" lon="6.06237">
        <ele>296.79998779297</ele>
        <time>2016-05-25T14:26:39Z</time>
      </trkpt>
      <trkpt lat="43.42831" lon="6.06239">
        <ele>296.60000610352</ele>
        <time>2016-05-25T14:26:40Z</time>
      </trkpt>
      <trkpt lat="43.4283" lon="6.06247">
        <ele>296</ele>
        <time>2016-05-25T14:26:43Z</time>
      </trkpt>
      <trkpt lat="43.4283" lon="6.06252">
        <ele>295.79998779297</ele>
        <time>2016-05-25T14:26:45Z</time>
      </trkpt>
      <trkpt lat="43.4283" lon="6.06256">
        <ele>295.60000610352</ele>
        <time>2016-05-25T14:26:47Z</time>
      </trkpt>
      <trkpt lat="43.4283" lon="6.06264">
        <ele>295.39999389648</ele>
        <time>2016-05-25T14:26:51Z</time>
      </trkpt>
      <trkpt lat="43.4283" lon="6.06265">
        <ele>295.39999389648</ele>
        <time>2016-05-25T14:26:52Z</time>
      </trkpt>
      <trkpt lat="43.42829" lon="6.06273">
        <ele>295.20001220703</ele>
        <time>2016-05-25T14:26:56Z</time>
      </trkpt>
      <trkpt lat="43.42828" lon="6.06282">
        <ele>294.20001220703</ele>
        <time>2016-05-25T14:27:01Z</time>
      </trkpt>
      <trkpt lat="43.42828" lon="6.06284">
        <ele>294</ele>
        <time>2016-05-25T14:27:02Z</time>
      </trkpt>
      <trkpt lat="43.42828" lon="6.06288">
        <ele>293.20001220703</ele>
        <time>2016-05-25T14:27:04Z</time>
      </trkpt>
      <trkpt lat="43.42828" lon="6.0629">
        <ele>293</ele>
        <time>2016-05-25T14:27:05Z</time>
      </trkpt>
      <trkpt lat="43.42826" lon="6.0629">
        <ele>292.79998779297</ele>
        <time>2016-05-25T14:27:07Z</time>
      </trkpt>
      <trkpt lat="43.42822" lon="6.06289">
        <ele>292.20001220703</ele>
        <time>2016-05-25T14:27:10Z</time>
      </trkpt>
      <trkpt lat="43.42819" lon="6.06293">
        <ele>291.79998779297</ele>
        <time>2016-05-25T14:27:13Z</time>
      </trkpt>
      <trkpt lat="43.42817" lon="6.06296">
        <ele>291.60000610352</ele>
        <time>2016-05-25T14:27:15Z</time>
      </trkpt>
      <trkpt lat="43.42814" lon="6.06299">
        <ele>291.20001220703</ele>
        <time>2016-05-25T14:27:18Z</time>
      </trkpt>
      <trkpt lat="43.42813" lon="6.06299">
        <ele>291</ele>
        <time>2016-05-25T14:27:19Z</time>
      </trkpt>
      <trkpt lat="43.42812" lon="6.06301">
        <ele>290</ele>
        <time>2016-05-25T14:27:22Z</time>
      </trkpt>
      <trkpt lat="43.42812" lon="6.06301">
        <ele>289.79998779297</ele>
        <time>2016-05-25T14:27:24Z</time>
      </trkpt>
      <trkpt lat="43.42811" lon="6.06304">
        <ele>289.60000610352</ele>
        <time>2016-05-25T14:27:37Z</time>
      </trkpt>
      <trkpt lat="43.4281" lon="6.06305">
        <ele>289.39999389648</ele>
        <time>2016-05-25T14:27:50Z</time>
      </trkpt>
      <trkpt lat="43.42804" lon="6.06306">
        <ele>289</ele>
        <time>2016-05-25T14:27:53Z</time>
      </trkpt>
      <trkpt lat="43.42802" lon="6.06305">
        <ele>288.79998779297</ele>
        <time>2016-05-25T14:27:54Z</time>
      </trkpt>
      <trkpt lat="43.428" lon="6.06304">
        <ele>288.60000610352</ele>
        <time>2016-05-25T14:27:55Z</time>
      </trkpt>
      <trkpt lat="43.42796" lon="6.063">
        <ele>287.79998779297</ele>
        <time>2016-05-25T14:27:57Z</time>
      </trkpt>
      <trkpt lat="43.42786" lon="6.06297">
        <ele>286.79998779297</ele>
        <time>2016-05-25T14:28:00Z</time>
      </trkpt>
      <trkpt lat="43.42776" lon="6.06289">
        <ele>286.39999389648</ele>
        <time>2016-05-25T14:28:04Z</time>
      </trkpt>
      <trkpt lat="43.42767" lon="6.06291">
        <ele>286.39999389648</ele>
        <time>2016-05-25T14:28:07Z</time>
      </trkpt>
      <trkpt lat="43.42763" lon="6.06292">
        <ele>286.20001220703</ele>
        <time>2016-05-25T14:28:08Z</time>
      </trkpt>
      <trkpt lat="43.42755" lon="6.06293">
        <ele>285.60000610352</ele>
        <time>2016-05-25T14:28:10Z</time>
      </trkpt>
      <trkpt lat="43.42748" lon="6.06295">
        <ele>285</ele>
        <time>2016-05-25T14:28:12Z</time>
      </trkpt>
      <trkpt lat="43.42742" lon="6.06297">
        <ele>284.39999389648</ele>
        <time>2016-05-25T14:28:14Z</time>
      </trkpt>
      <trkpt lat="43.42729" lon="6.06302">
        <ele>283.79998779297</ele>
        <time>2016-05-25T14:28:18Z</time>
      </trkpt>
      <trkpt lat="43.42725" lon="6.06307">
        <ele>283.39999389648</ele>
        <time>2016-05-25T14:28:20Z</time>
      </trkpt>
      <trkpt lat="43.42716" lon="6.06317">
        <ele>283</ele>
        <time>2016-05-25T14:28:25Z</time>
      </trkpt>
      <trkpt lat="43.42714" lon="6.06317">
        <ele>282.79998779297</ele>
        <time>2016-05-25T14:28:26Z</time>
      </trkpt>
      <trkpt lat="43.42708" lon="6.06317">
        <ele>282.39999389648</ele>
        <time>2016-05-25T14:28:29Z</time>
      </trkpt>
      <trkpt lat="43.42705" lon="6.06317">
        <ele>282.39999389648</ele>
        <time>2016-05-25T14:28:30Z</time>
      </trkpt>
      <trkpt lat="43.42691" lon="6.06316">
        <ele>283</ele>
        <time>2016-05-25T14:28:37Z</time>
      </trkpt>
      <trkpt lat="43.42686" lon="6.06316">
        <ele>283.20001220703</ele>
        <time>2016-05-25T14:28:42Z</time>
      </trkpt>
      <trkpt lat="43.42685" lon="6.06316">
        <ele>282.79998779297</ele>
        <time>2016-05-25T14:28:54Z</time>
      </trkpt>
      <trkpt lat="43.42682" lon="6.06313">
        <ele>282.60000610352</ele>
        <time>2016-05-25T14:29:06Z</time>
      </trkpt>
      <trkpt lat="43.4267" lon="6.0631">
        <ele>282</ele>
        <time>2016-05-25T14:29:09Z</time>
      </trkpt>
      <trkpt lat="43.42656" lon="6.06308">
        <ele>281.39999389648</ele>
        <time>2016-05-25T14:29:12Z</time>
      </trkpt>
      <trkpt lat="43.42646" lon="6.06305">
        <ele>280.79998779297</ele>
        <time>2016-05-25T14:29:14Z</time>
      </trkpt>
      <trkpt lat="43.42641" lon="6.06304">
        <ele>280.20001220703</ele>
        <time>2016-05-25T14:29:15Z</time>
      </trkpt>
      <trkpt lat="43.42626" lon="6.06295">
        <ele>279.20001220703</ele>
        <time>2016-05-25T14:29:18Z</time>
      </trkpt>
      <trkpt lat="43.4262" lon="6.06293">
        <ele>279</ele>
        <time>2016-05-25T14:29:19Z</time>
      </trkpt>
      <trkpt lat="43.42605" lon="6.06295">
        <ele>278.39999389648</ele>
        <time>2016-05-25T14:29:22Z</time>
      </trkpt>
      <trkpt lat="43.42601" lon="6.06297">
        <ele>278.20001220703</ele>
        <time>2016-05-25T14:29:23Z</time>
      </trkpt>
      <trkpt lat="43.42588" lon="6.06309">
        <ele>277.60000610352</ele>
        <time>2016-05-25T14:29:26Z</time>
      </trkpt>
      <trkpt lat="43.42571" lon="6.06325">
        <ele>277</ele>
        <time>2016-05-25T14:29:30Z</time>
      </trkpt>
      <trkpt lat="43.42566" lon="6.06328">
        <ele>276.60000610352</ele>
        <time>2016-05-25T14:29:31Z</time>
      </trkpt>
      <trkpt lat="43.42561" lon="6.06333">
        <ele>276.39999389648</ele>
        <time>2016-05-25T14:29:32Z</time>
      </trkpt>
      <trkpt lat="43.42545" lon="6.06345">
        <ele>275.20001220703</ele>
        <time>2016-05-25T14:29:35Z</time>
      </trkpt>
      <trkpt lat="43.4254" lon="6.06348">
        <ele>274.79998779297</ele>
        <time>2016-05-25T14:29:36Z</time>
      </trkpt>
      <trkpt lat="43.42529" lon="6.06352">
        <ele>274.39999389648</ele>
        <time>2016-05-25T14:29:38Z</time>
      </trkpt>
      <trkpt lat="43.42523" lon="6.06354">
        <ele>274</ele>
        <time>2016-05-25T14:29:39Z</time>
      </trkpt>
      <trkpt lat="43.42517" lon="6.06356">
        <ele>273.60000610352</ele>
        <time>2016-05-25T14:29:40Z</time>
      </trkpt>
      <trkpt lat="43.42504" lon="6.06362">
        <ele>272.60000610352</ele>
        <time>2016-05-25T14:29:42Z</time>
      </trkpt>
      <trkpt lat="43.42498" lon="6.06364">
        <ele>272.39999389648</ele>
        <time>2016-05-25T14:29:43Z</time>
      </trkpt>
      <trkpt lat="43.42491" lon="6.06366">
        <ele>272.39999389648</ele>
        <time>2016-05-25T14:29:44Z</time>
      </trkpt>
      <trkpt lat="43.42471" lon="6.06368">
        <ele>271.79998779297</ele>
        <time>2016-05-25T14:29:47Z</time>
      </trkpt>
      <trkpt lat="43.42458" lon="6.06371">
        <ele>271.39999389648</ele>
        <time>2016-05-25T14:29:49Z</time>
      </trkpt>
      <trkpt lat="43.42451" lon="6.06374">
        <ele>270.79998779297</ele>
        <time>2016-05-25T14:29:50Z</time>
      </trkpt>
      <trkpt lat="43.42446" lon="6.06379">
        <ele>270.60000610352</ele>
        <time>2016-05-25T14:29:51Z</time>
      </trkpt>
      <trkpt lat="43.42435" lon="6.06388">
        <ele>270.20001220703</ele>
        <time>2016-05-25T14:29:53Z</time>
      </trkpt>
      <trkpt lat="43.42425" lon="6.06395">
        <ele>270.20001220703</ele>
        <time>2016-05-25T14:29:55Z</time>
      </trkpt>
      <trkpt lat="43.4242" lon="6.06396">
        <ele>270.20001220703</ele>
        <time>2016-05-25T14:29:56Z</time>
      </trkpt>
      <trkpt lat="43.424" lon="6.06392">
        <ele>270</ele>
        <time>2016-05-25T14:30:00Z</time>
      </trkpt>
      <trkpt lat="43.42378" lon="6.06392">
        <ele>269.39999389648</ele>
        <time>2016-05-25T14:30:04Z</time>
      </trkpt>
      <trkpt lat="43.42373" lon="6.06397">
        <ele>268.79998779297</ele>
        <time>2016-05-25T14:30:05Z</time>
      </trkpt>
      <trkpt lat="43.42368" lon="6.06402">
        <ele>268.39999389648</ele>
        <time>2016-05-25T14:30:06Z</time>
      </trkpt>
      <trkpt lat="43.42363" lon="6.06408">
        <ele>268</ele>
        <time>2016-05-25T14:30:07Z</time>
      </trkpt>
      <trkpt lat="43.42359" lon="6.06412">
        <ele>267.60000610352</ele>
        <time>2016-05-25T14:30:08Z</time>
      </trkpt>
      <trkpt lat="43.42353" lon="6.06416">
        <ele>267.39999389648</ele>
        <time>2016-05-25T14:30:09Z</time>
      </trkpt>
      <trkpt lat="43.42344" lon="6.06422">
        <ele>267.39999389648</ele>
        <time>2016-05-25T14:30:11Z</time>
      </trkpt>
      <trkpt lat="43.42326" lon="6.06438">
        <ele>267.39999389648</ele>
        <time>2016-05-25T14:30:15Z</time>
      </trkpt>
      <trkpt lat="43.42316" lon="6.06448">
        <ele>267.20001220703</ele>
        <time>2016-05-25T14:30:17Z</time>
      </trkpt>
      <trkpt lat="43.42311" lon="6.06454">
        <ele>266.79998779297</ele>
        <time>2016-05-25T14:30:18Z</time>
      </trkpt>
      <trkpt lat="43.42306" lon="6.0646">
        <ele>266.20001220703</ele>
        <time>2016-05-25T14:30:19Z</time>
      </trkpt>
      <trkpt lat="43.42297" lon="6.06473">
        <ele>265.20001220703</ele>
        <time>2016-05-25T14:30:21Z</time>
      </trkpt>
      <trkpt lat="43.42281" lon="6.06491">
        <ele>264.39999389648</ele>
        <time>2016-05-25T14:30:24Z</time>
      </trkpt>
      <trkpt lat="43.42276" lon="6.06496">
        <ele>263.79998779297</ele>
        <time>2016-05-25T14:30:25Z</time>
      </trkpt>
      <trkpt lat="43.42264" lon="6.06503">
        <ele>262.60000610352</ele>
        <time>2016-05-25T14:30:27Z</time>
      </trkpt>
      <trkpt lat="43.42258" lon="6.06504">
        <ele>262.20001220703</ele>
        <time>2016-05-25T14:30:28Z</time>
      </trkpt>
      <trkpt lat="43.42244" lon="6.06503">
        <ele>260.79998779297</ele>
        <time>2016-05-25T14:30:30Z</time>
      </trkpt>
      <trkpt lat="43.4223" lon="6.065">
        <ele>259.79998779297</ele>
        <time>2016-05-25T14:30:32Z</time>
      </trkpt>
      <trkpt lat="43.42223" lon="6.06499">
        <ele>259.39999389648</ele>
        <time>2016-05-25T14:30:33Z</time>
      </trkpt>
      <trkpt lat="43.42217" lon="6.06499">
        <ele>259.20001220703</ele>
        <time>2016-05-25T14:30:34Z</time>
      </trkpt>
      <trkpt lat="43.42205" lon="6.065">
        <ele>258.39999389648</ele>
        <time>2016-05-25T14:30:36Z</time>
      </trkpt>
      <trkpt lat="43.42199" lon="6.06496">
        <ele>257.20001220703</ele>
        <time>2016-05-25T14:30:38Z</time>
      </trkpt>
      <trkpt lat="43.42197" lon="6.06493">
        <ele>256.60000610352</ele>
        <time>2016-05-25T14:30:39Z</time>
      </trkpt>
      <trkpt lat="43.42193" lon="6.06481">
        <ele>256.20001220703</ele>
        <time>2016-05-25T14:30:42Z</time>
      </trkpt>
      <trkpt lat="43.42189" lon="6.06467">
        <ele>256</ele>
        <time>2016-05-25T14:30:45Z</time>
      </trkpt>
      <trkpt lat="43.42182" lon="6.0644">
        <ele>256.20001220703</ele>
        <time>2016-05-25T14:30:50Z</time>
      </trkpt>
      <trkpt lat="43.42179" lon="6.06421">
        <ele>256.20001220703</ele>
        <time>2016-05-25T14:30:53Z</time>
      </trkpt>
      <trkpt lat="43.42174" lon="6.0639">
        <ele>255.60000610352</ele>
        <time>2016-05-25T14:30:58Z</time>
      </trkpt>
      <trkpt lat="43.42172" lon="6.06378">
        <ele>255.60000610352</ele>
        <time>2016-05-25T14:31:00Z</time>
      </trkpt>
      <trkpt lat="43.4217" lon="6.06361">
        <ele>255.60000610352</ele>
        <time>2016-05-25T14:31:03Z</time>
      </trkpt>
      <trkpt lat="43.42167" lon="6.06344">
        <ele>255.60000610352</ele>
        <time>2016-05-25T14:31:06Z</time>
      </trkpt>
      <trkpt lat="43.42164" lon="6.06324">
        <ele>256</ele>
        <time>2016-05-25T14:31:10Z</time>
      </trkpt>
      <trkpt lat="43.42163" lon="6.06312">
        <ele>256.20001220703</ele>
        <time>2016-05-25T14:31:13Z</time>
      </trkpt>
      <trkpt lat="43.42162" lon="6.063">
        <ele>256.39999389648</ele>
        <time>2016-05-25T14:31:16Z</time>
      </trkpt>
      <trkpt lat="43.4216" lon="6.06289">
        <ele>257</ele>
        <time>2016-05-25T14:31:19Z</time>
      </trkpt>
      <trkpt lat="43.4216" lon="6.06281">
        <ele>257.60000610352</ele>
        <time>2016-05-25T14:31:21Z</time>
      </trkpt>
      <trkpt lat="43.42159" lon="6.06273">
        <ele>258.20001220703</ele>
        <time>2016-05-25T14:31:23Z</time>
      </trkpt>
      <trkpt lat="43.42159" lon="6.06262">
        <ele>259.39999389648</ele>
        <time>2016-05-25T14:31:26Z</time>
      </trkpt>
      <trkpt lat="43.42158" lon="6.06243">
        <ele>260.20001220703</ele>
        <time>2016-05-25T14:31:31Z</time>
      </trkpt>
      <trkpt lat="43.42158" lon="6.06239">
        <ele>260.60000610352</ele>
        <time>2016-05-25T14:31:32Z</time>
      </trkpt>
      <trkpt lat="43.42156" lon="6.06229">
        <ele>261.79998779297</ele>
        <time>2016-05-25T14:31:35Z</time>
      </trkpt>
      <trkpt lat="43.42155" lon="6.06226">
        <ele>262</ele>
        <time>2016-05-25T14:31:36Z</time>
      </trkpt>
      <trkpt lat="43.42153" lon="6.06221">
        <ele>262.20001220703</ele>
        <time>2016-05-25T14:31:40Z</time>
      </trkpt>
      <trkpt lat="43.4215" lon="6.0622">
        <ele>262.39999389648</ele>
        <time>2016-05-25T14:31:43Z</time>
      </trkpt>
      <trkpt lat="43.42149" lon="6.06219">
        <ele>262.39999389648</ele>
        <time>2016-05-25T14:31:44Z</time>
      </trkpt>
      <trkpt lat="43.42146" lon="6.0622">
        <ele>262.39999389648</ele>
        <time>2016-05-25T14:31:48Z</time>
      </trkpt>
      <trkpt lat="43.42146" lon="6.0622">
        <ele>262.20001220703</ele>
        <time>2016-05-25T14:31:53Z</time>
      </trkpt>
      <trkpt lat="43.42144" lon="6.06221">
        <ele>262</ele>
        <time>2016-05-25T14:32:08Z</time>
      </trkpt>
      <trkpt lat="43.42144" lon="6.06221">
        <ele>262.20001220703</ele>
        <time>2016-05-25T14:32:11Z</time>
      </trkpt>
      <trkpt lat="43.42144" lon="6.06221">
        <ele>262.39999389648</ele>
        <time>2016-05-25T14:32:14Z</time>
      </trkpt>
      <trkpt lat="43.42142" lon="6.06222">
        <ele>262.20001220703</ele>
        <time>2016-05-25T14:32:17Z</time>
      </trkpt>
      <trkpt lat="43.42139" lon="6.06222">
        <ele>261.79998779297</ele>
        <time>2016-05-25T14:32:21Z</time>
      </trkpt>
      <trkpt lat="43.42138" lon="6.06223">
        <ele>261.39999389648</ele>
        <time>2016-05-25T14:32:24Z</time>
      </trkpt>
      <trkpt lat="43.42123" lon="6.06227">
        <ele>261</ele>
        <time>2016-05-25T14:32:29Z</time>
      </trkpt>
      <trkpt lat="43.42108" lon="6.0623">
        <ele>260.39999389648</ele>
        <time>2016-05-25T14:32:33Z</time>
      </trkpt>
      <trkpt lat="43.42101" lon="6.06233">
        <ele>259.60000610352</ele>
        <time>2016-05-25T14:32:35Z</time>
      </trkpt>
      <trkpt lat="43.42097" lon="6.06234">
        <ele>259.20001220703</ele>
        <time>2016-05-25T14:32:36Z</time>
      </trkpt>
      <trkpt lat="43.4208" lon="6.06242">
        <ele>257.79998779297</ele>
        <time>2016-05-25T14:32:40Z</time>
      </trkpt>
      <trkpt lat="43.42059" lon="6.06249">
        <ele>256.60000610352</ele>
        <time>2016-05-25T14:32:43Z</time>
      </trkpt>
      <trkpt lat="43.42051" lon="6.06252">
        <ele>256</ele>
        <time>2016-05-25T14:32:44Z</time>
      </trkpt>
      <trkpt lat="43.42042" lon="6.06254">
        <ele>255.39999389648</ele>
        <time>2016-05-25T14:32:45Z</time>
      </trkpt>
      <trkpt lat="43.42023" lon="6.0626">
        <ele>254</ele>
        <time>2016-05-25T14:32:47Z</time>
      </trkpt>
      <trkpt lat="43.42002" lon="6.06266">
        <ele>252.80000305176</ele>
        <time>2016-05-25T14:32:49Z</time>
      </trkpt>
      <trkpt lat="43.41992" lon="6.06269">
        <ele>251.80000305176</ele>
        <time>2016-05-25T14:32:50Z</time>
      </trkpt>
      <trkpt lat="43.41982" lon="6.06273">
        <ele>250.60000610352</ele>
        <time>2016-05-25T14:32:51Z</time>
      </trkpt>
      <trkpt lat="43.41972" lon="6.06276">
        <ele>249</ele>
        <time>2016-05-25T14:32:52Z</time>
      </trkpt>
      <trkpt lat="43.41962" lon="6.06279">
        <ele>247.80000305176</ele>
        <time>2016-05-25T14:32:53Z</time>
      </trkpt>
      <trkpt lat="43.41952" lon="6.06282">
        <ele>246.60000610352</ele>
        <time>2016-05-25T14:32:54Z</time>
      </trkpt>
      <trkpt lat="43.41943" lon="6.06285">
        <ele>245.39999389648</ele>
        <time>2016-05-25T14:32:55Z</time>
      </trkpt>
      <trkpt lat="43.41927" lon="6.06291">
        <ele>244.19999694824</ele>
        <time>2016-05-25T14:32:57Z</time>
      </trkpt>
      <trkpt lat="43.41913" lon="6.06293">
        <ele>243.19999694824</ele>
        <time>2016-05-25T14:32:59Z</time>
      </trkpt>
      <trkpt lat="43.41891" lon="6.06291">
        <ele>242</ele>
        <time>2016-05-25T14:33:02Z</time>
      </trkpt>
      <trkpt lat="43.41875" lon="6.0629">
        <ele>240.80000305176</ele>
        <time>2016-05-25T14:33:04Z</time>
      </trkpt>
      <trkpt lat="43.41859" lon="6.0629">
        <ele>239.19999694824</ele>
        <time>2016-05-25T14:33:06Z</time>
      </trkpt>
      <trkpt lat="43.41833" lon="6.0629">
        <ele>238</ele>
        <time>2016-05-25T14:33:09Z</time>
      </trkpt>
      <trkpt lat="43.41816" lon="6.06288">
        <ele>237.39999389648</ele>
        <time>2016-05-25T14:33:11Z</time>
      </trkpt>
      <trkpt lat="43.418" lon="6.06281">
        <ele>237</ele>
        <time>2016-05-25T14:33:13Z</time>
      </trkpt>
      <trkpt lat="43.41793" lon="6.06276">
        <ele>236.60000610352</ele>
        <time>2016-05-25T14:33:14Z</time>
      </trkpt>
      <trkpt lat="43.41786" lon="6.0627">
        <ele>236</ele>
        <time>2016-05-25T14:33:15Z</time>
      </trkpt>
      <trkpt lat="43.41779" lon="6.06264">
        <ele>235.39999389648</ele>
        <time>2016-05-25T14:33:16Z</time>
      </trkpt>
      <trkpt lat="43.41772" lon="6.0626">
        <ele>234.80000305176</ele>
        <time>2016-05-25T14:33:17Z</time>
      </trkpt>
      <trkpt lat="43.41764" lon="6.06256">
        <ele>234.19999694824</ele>
        <time>2016-05-25T14:33:18Z</time>
      </trkpt>
      <trkpt lat="43.41756" lon="6.06253">
        <ele>233.60000610352</ele>
        <time>2016-05-25T14:33:19Z</time>
      </trkpt>
      <trkpt lat="43.41748" lon="6.06251">
        <ele>233</ele>
        <time>2016-05-25T14:33:20Z</time>
      </trkpt>
      <trkpt lat="43.41722" lon="6.06247">
        <ele>231.80000305176</ele>
        <time>2016-05-25T14:33:23Z</time>
      </trkpt>
      <trkpt lat="43.41714" lon="6.06247">
        <ele>231.39999389648</ele>
        <time>2016-05-25T14:33:24Z</time>
      </trkpt>
      <trkpt lat="43.41698" lon="6.06248">
        <ele>230.60000610352</ele>
        <time>2016-05-25T14:33:26Z</time>
      </trkpt>
      <trkpt lat="43.41684" lon="6.06247">
        <ele>230.19999694824</ele>
        <time>2016-05-25T14:33:28Z</time>
      </trkpt>
      <trkpt lat="43.41677" lon="6.06246">
        <ele>230</ele>
        <time>2016-05-25T14:33:29Z</time>
      </trkpt>
      <trkpt lat="43.41658" lon="6.06242">
        <ele>229.39999389648</ele>
        <time>2016-05-25T14:33:32Z</time>
      </trkpt>
      <trkpt lat="43.41642" lon="6.06237">
        <ele>229.39999389648</ele>
        <time>2016-05-25T14:33:35Z</time>
      </trkpt>
      <trkpt lat="43.41626" lon="6.06229">
        <ele>229</ele>
        <time>2016-05-25T14:33:39Z</time>
      </trkpt>
      <trkpt lat="43.41617" lon="6.06231">
        <ele>228.39999389648</ele>
        <time>2016-05-25T14:33:44Z</time>
      </trkpt>
      <trkpt lat="43.41608" lon="6.06236">
        <ele>227.19999694824</ele>
        <time>2016-05-25T14:33:50Z</time>
      </trkpt>
      <trkpt lat="43.41608" lon="6.06237">
        <ele>226.80000305176</ele>
        <time>2016-05-25T14:34:00Z</time>
      </trkpt>
      <trkpt lat="43.41604" lon="6.0625">
        <ele>226.80000305176</ele>
        <time>2016-05-25T14:34:06Z</time>
      </trkpt>
      <trkpt lat="43.41604" lon="6.06255">
        <ele>226.80000305176</ele>
        <time>2016-05-25T14:34:10Z</time>
      </trkpt>
      <trkpt lat="43.41601" lon="6.06258">
        <ele>226.80000305176</ele>
        <time>2016-05-25T14:34:12Z</time>
      </trkpt>
      <trkpt lat="43.41593" lon="6.06264">
        <ele>226.80000305176</ele>
        <time>2016-05-25T14:34:15Z</time>
      </trkpt>
      <trkpt lat="43.41588" lon="6.06272">
        <ele>226.60000610352</ele>
        <time>2016-05-25T14:34:17Z</time>
      </trkpt>
      <trkpt lat="43.41587" lon="6.06277">
        <ele>226.39999389648</ele>
        <time>2016-05-25T14:34:18Z</time>
      </trkpt>
      <trkpt lat="43.41588" lon="6.06289">
        <ele>226.19999694824</ele>
        <time>2016-05-25T14:34:20Z</time>
      </trkpt>
      <trkpt lat="43.41588" lon="6.06302">
        <ele>226</ele>
        <time>2016-05-25T14:34:22Z</time>
      </trkpt>
      <trkpt lat="43.41588" lon="6.06309">
        <ele>225.80000305176</ele>
        <time>2016-05-25T14:34:23Z</time>
      </trkpt>
      <trkpt lat="43.41586" lon="6.06316">
        <ele>225.60000610352</ele>
        <time>2016-05-25T14:34:24Z</time>
      </trkpt>
      <trkpt lat="43.41575" lon="6.06333">
        <ele>225</ele>
        <time>2016-05-25T14:34:27Z</time>
      </trkpt>
      <trkpt lat="43.41571" lon="6.0634">
        <ele>224.80000305176</ele>
        <time>2016-05-25T14:34:28Z</time>
      </trkpt>
      <trkpt lat="43.41567" lon="6.06347">
        <ele>224.39999389648</ele>
        <time>2016-05-25T14:34:29Z</time>
      </trkpt>
      <trkpt lat="43.41558" lon="6.06374">
        <ele>223.39999389648</ele>
        <time>2016-05-25T14:34:32Z</time>
      </trkpt>
      <trkpt lat="43.41556" lon="6.06383">
        <ele>222.80000305176</ele>
        <time>2016-05-25T14:34:33Z</time>
      </trkpt>
      <trkpt lat="43.4155" lon="6.06414">
        <ele>221.80000305176</ele>
        <time>2016-05-25T14:34:36Z</time>
      </trkpt>
      <trkpt lat="43.41546" lon="6.06435">
        <ele>220.39999389648</ele>
        <time>2016-05-25T14:34:38Z</time>
      </trkpt>
      <trkpt lat="43.41545" lon="6.06449">
        <ele>219.19999694824</ele>
        <time>2016-05-25T14:34:40Z</time>
      </trkpt>
      <trkpt lat="43.41545" lon="6.06453">
        <ele>218.80000305176</ele>
        <time>2016-05-25T14:34:41Z</time>
      </trkpt>
      <trkpt lat="43.41545" lon="6.06457">
        <ele>218</ele>
        <time>2016-05-25T14:34:43Z</time>
      </trkpt>
      <trkpt lat="43.41545" lon="6.0646">
        <ele>217.60000610352</ele>
        <time>2016-05-25T14:34:45Z</time>
      </trkpt>
      <trkpt lat="43.41538" lon="6.06465">
        <ele>218</ele>
        <time>2016-05-25T14:34:49Z</time>
      </trkpt>
      <trkpt lat="43.41536" lon="6.06468">
        <ele>217.80000305176</ele>
        <time>2016-05-25T14:34:50Z</time>
      </trkpt>
      <trkpt lat="43.41533" lon="6.06477">
        <ele>216.39999389648</ele>
        <time>2016-05-25T14:34:52Z</time>
      </trkpt>
      <trkpt lat="43.41533" lon="6.06486">
        <ele>215.60000610352</ele>
        <time>2016-05-25T14:34:54Z</time>
      </trkpt>
      <trkpt lat="43.41526" lon="6.06511">
        <ele>216.19999694824</ele>
        <time>2016-05-25T14:35:00Z</time>
      </trkpt>
      <trkpt lat="43.41522" lon="6.06537">
        <ele>217</ele>
        <time>2016-05-25T14:35:05Z</time>
      </trkpt>
      <trkpt lat="43.41521" lon="6.06543">
        <ele>217</ele>
        <time>2016-05-25T14:35:06Z</time>
      </trkpt>
      <trkpt lat="43.41513" lon="6.06594">
        <ele>216.60000610352</ele>
        <time>2016-05-25T14:35:14Z</time>
      </trkpt>
      <trkpt lat="43.41512" lon="6.066">
        <ele>216.39999389648</ele>
        <time>2016-05-25T14:35:15Z</time>
      </trkpt>
      <trkpt lat="43.41505" lon="6.06642">
        <ele>215.80000305176</ele>
        <time>2016-05-25T14:35:21Z</time>
      </trkpt>
      <trkpt lat="43.41501" lon="6.06663">
        <ele>215.39999389648</ele>
        <time>2016-05-25T14:35:24Z</time>
      </trkpt>
      <trkpt lat="43.41499" lon="6.06685">
        <ele>215.19999694824</ele>
        <time>2016-05-25T14:35:27Z</time>
      </trkpt>
      <trkpt lat="43.41499" lon="6.06707">
        <ele>215.39999389648</ele>
        <time>2016-05-25T14:35:30Z</time>
      </trkpt>
      <trkpt lat="43.41498" lon="6.06721">
        <ele>215.19999694824</ele>
        <time>2016-05-25T14:35:32Z</time>
      </trkpt>
      <trkpt lat="43.41496" lon="6.06745">
        <ele>214.60000610352</ele>
        <time>2016-05-25T14:35:36Z</time>
      </trkpt>
      <trkpt lat="43.41496" lon="6.06751">
        <ele>214.60000610352</ele>
        <time>2016-05-25T14:35:37Z</time>
      </trkpt>
      <trkpt lat="43.41492" lon="6.06778">
        <ele>214</ele>
        <time>2016-05-25T14:35:41Z</time>
      </trkpt>
      <trkpt lat="43.41487" lon="6.06805">
        <ele>213.39999389648</ele>
        <time>2016-05-25T14:35:45Z</time>
      </trkpt>
      <trkpt lat="43.41481" lon="6.06827">
        <ele>212.80000305176</ele>
        <time>2016-05-25T14:35:49Z</time>
      </trkpt>
      <trkpt lat="43.4148" lon="6.06831">
        <ele>213</ele>
        <time>2016-05-25T14:35:50Z</time>
      </trkpt>
      <trkpt lat="43.41476" lon="6.06854">
        <ele>212.60000610352</ele>
        <time>2016-05-25T14:35:56Z</time>
      </trkpt>
      <trkpt lat="43.41478" lon="6.06869">
        <ele>212.80000305176</ele>
        <time>2016-05-25T14:36:01Z</time>
      </trkpt>
      <trkpt lat="43.41478" lon="6.06876">
        <ele>213</ele>
        <time>2016-05-25T14:36:05Z</time>
      </trkpt>
      <trkpt lat="43.41478" lon="6.06879">
        <ele>213</ele>
        <time>2016-05-25T14:36:10Z</time>
      </trkpt>
      <trkpt lat="43.41478" lon="6.06892">
        <ele>213</ele>
        <time>2016-05-25T14:36:15Z</time>
      </trkpt>
      <trkpt lat="43.41478" lon="6.06908">
        <ele>213</ele>
        <time>2016-05-25T14:36:19Z</time>
      </trkpt>
      <trkpt lat="43.41471" lon="6.06924">
        <ele>212.80000305176</ele>
        <time>2016-05-25T14:36:24Z</time>
      </trkpt>
      <trkpt lat="43.41472" lon="6.0693">
        <ele>212.80000305176</ele>
        <time>2016-05-25T14:36:26Z</time>
      </trkpt>
      <trkpt lat="43.41476" lon="6.06936">
        <ele>212.60000610352</ele>
        <time>2016-05-25T14:36:28Z</time>
      </trkpt>
      <trkpt lat="43.41486" lon="6.06947">
        <ele>212.39999389648</ele>
        <time>2016-05-25T14:36:32Z</time>
      </trkpt>
      <trkpt lat="43.415" lon="6.06963">
        <ele>212.39999389648</ele>
        <time>2016-05-25T14:36:38Z</time>
      </trkpt>
      <trkpt lat="43.41509" lon="6.06972">
        <ele>212.19999694824</ele>
        <time>2016-05-25T14:36:44Z</time>
      </trkpt>
      <trkpt lat="43.41524" lon="6.06974">
        <ele>212.19999694824</ele>
        <time>2016-05-25T14:36:49Z</time>
      </trkpt>
      <trkpt lat="43.41542" lon="6.06973">
        <ele>212</ele>
        <time>2016-05-25T14:36:55Z</time>
      </trkpt>
      <trkpt lat="43.41553" lon="6.06973">
        <ele>212.39999389648</ele>
        <time>2016-05-25T14:37:00Z</time>
      </trkpt>
      <trkpt lat="43.41571" lon="6.06976">
        <ele>213.39999389648</ele>
        <time>2016-05-25T14:37:07Z</time>
      </trkpt>
      <trkpt lat="43.41573" lon="6.06978">
        <ele>213.39999389648</ele>
        <time>2016-05-25T14:37:08Z</time>
      </trkpt>
      <trkpt lat="43.41574" lon="6.06988">
        <ele>213.19999694824</ele>
        <time>2016-05-25T14:37:11Z</time>
      </trkpt>
      <trkpt lat="43.41579" lon="6.0701">
        <ele>213.19999694824</ele>
        <time>2016-05-25T14:37:17Z</time>
      </trkpt>
      <trkpt lat="43.41582" lon="6.07031">
        <ele>213.60000610352</ele>
        <time>2016-05-25T14:37:23Z</time>
      </trkpt>
      <trkpt lat="43.41583" lon="6.07033">
        <ele>213.60000610352</ele>
        <time>2016-05-25T14:37:24Z</time>
      </trkpt>
      <trkpt lat="43.41583" lon="6.07033">
        <ele>213.39999389648</ele>
        <time>2016-05-25T14:37:30Z</time>
      </trkpt>
      <trkpt lat="43.41583" lon="6.07033">
        <ele>213.60000610352</ele>
        <time>2016-05-25T14:37:38Z</time>
      </trkpt>
      <trkpt lat="43.41583" lon="6.07033">
        <ele>213.60000610352</ele>
        <time>2016-05-25T14:37:49Z</time>
      </trkpt>
      <trkpt lat="43.41583" lon="6.07033">
        <ele>213.80000305176</ele>
        <time>2016-05-25T14:38:05Z</time>
      </trkpt>
      <trkpt lat="43.41583" lon="6.07033">
        <ele>213.60000610352</ele>
        <time>2016-05-25T14:38:49Z</time>
      </trkpt>
      <trkpt lat="43.41583" lon="6.07033">
        <ele>213.60000610352</ele>
        <time>2016-05-25T14:39:15Z</time>
      </trkpt>
    </trkseg>
  </trk>
</gpx>